[[{"header":{"parameterUnit":"m.s-1","parameterCategory":1,"la1":30.6,"la2":29.2853,"lo1":-89.7004,"lo2":-87.6739,"dy":0.0162,"dx":0.0183,"nx":112,"ny":82,"refTime":"2025-05-22T06:00:00:Z","depth":0,"parameterNumber":2,"parameterNumberName":"U-component_of_WINDS"},"data":[0.0,0.0,0.0,0.0,0.0,0.0,0.0,0.0,0.0,0.0,0.0,0.0,0.0,0.0,0.0,0.0,0.0,0.0,0.0,0.0,0.0,0.0,0.0,0.0,0.0,0.0,0.0,0.0,0.0,0.0,0.0,0.0,0.0,0.0,0.0,0.0,0.0,0.0,0.0,0.0,0.0,0.0,0.0,0.0,0.0,0.0,0.0,0.0,0.0,0.0,0.0,0.0,0.0,0.0,0.0,0.0,0.0,0.0,0.0,0.0,0.0,0.0,0.0,0.0,0.0,0.0,0.0,0.0,0.0,0.0,0.0,0.0,0.0,0.0,0.0,0.0,0.0,0.0,0.0,0.0,0.0,0.0,0.0,0.0,0.0,0.0,0.0,0.0,0.0,0.0,0.6707,0.678,0.7127,0.7436,0.7576,0.7623,0.7777,0.8099,0.0,0.0,0.0,0.0,0.0,0.0,0.0,0.0,0.0,0.0,0.0,0.0,0.0,0.0,0.0,0.0,0.0,0.0,0.0,0.0,0.0,0.0,0.0,0.0,0.0,0.0,0.0,0.0,0.0,0.0,0.0,0.0,0.0,0.0,0.0,0.0,0.0,0.0,0.0,0.0,0.0,0.0,0.0,0.0,0.0,0.0,0.0,0.0,0.0,0.0,0.0,0.0,0.0,0.0,0.0,0.0,0.0,0.0,0.0,0.0,0.0,0.0,0.0,0.0,0.0,0.0,0.0,0.0,0.0,0.0,0.0,0.0,0.0,0.0,0.0,0.0,0.0,0.0,0.0,0.0,0.0,0.0,0.0,0.0,0.0,0.0,0.0,0.0,0.0,0.0,0.0,0.0,0.0,0.0,0.0,0.0,0.0,0.0,0.0,0.0,0.0,0.0,0.0,0.0,0.6895,0.7621,0.7971,0.8248,0.8476,0.7733,0.7651,0.8537,0.0,0.0,0.0,0.0,0.0,0.0,0.0,0.0,0.0,0.0,0.0,0.0,0.0,0.0,0.0,0.0,0.0,0.0,0.0,0.0,0.0,0.0,0.0,0.0,0.0,0.0,0.0,0.0,0.0,0.0,0.0,0.0,0.0,0.0,0.0,0.0,0.0,0.0,0.0,0.0,0.0,0.0,0.0,0.0,0.0,0.0,0.0,0.0,0.0,0.0,0.0,0.0,0.0,0.0,0.0,0.0,0.0,0.0,0.0,0.0,0.0,0.0,0.0,0.0,0.0,0.0,0.0,0.0,0.0,0.0,0.0,0.0,0.0,0.0,0.0,0.0,0.0,0.0,0.0,0.0,0.0,0.0,0.0,0.0,0.0,0.0,0.0,0.0,0.0,0.0,0.0,0.0,0.0,0.0,0.0,0.0,0.0,0.0,0.0,0.0,0.0,0.0,0.0,0.7596,0.7805,0.8668,0.8732,0.8756,0.8971,0.843,0.8269,0.8679,0.8865,0.0,0.0,0.0,0.0,0.0,0.0,0.0,0.0,0.0,0.0,0.0,0.0,0.0,0.0,0.0,0.0,0.0,0.0,0.0,0.0,0.0,0.0,0.0,0.0,0.0,0.0,0.0,0.0,0.0,0.0,0.0,0.0,0.0,0.0,0.0,0.0,0.0,0.0,0.0,0.0,0.0,0.0,0.0,0.0,0.0,0.0,0.0,0.0,0.0,0.0,0.0,0.0,0.0,0.0,0.0,0.0,0.0,0.0,0.0,0.0,0.0,0.0,0.0,0.0,0.0,0.0,0.0,0.0,0.0,0.0,0.0,0.0,0.0,0.0,0.0,0.0,0.0,0.0,0.0,0.0,0.0,0.0,0.0,0.0,0.0,0.0,0.0,0.0,0.0,0.0,0.0,0.0,0.0,0.0,0.0,0.0,0.0,0.0,0.0,0.0,0.0,0.0,0.8668,0.8832,0.9332,0.9257,0.9181,0.9217,0.886,0.8693,0.8781,0.8741,0.0,0.0,0.0,0.0,0.0,0.0,0.0,0.0,0.0,0.0,0.0,0.0,0.0,0.0,0.0,0.0,0.0,0.0,0.0,0.0,0.0,0.0,0.0,0.0,0.0,0.0,0.0,0.0,0.0,0.0,0.0,0.0,0.0,0.0,0.0,0.0,0.0,0.0,0.0,0.0,0.0,0.0,0.0,0.0,0.0,0.0,0.0,0.0,0.0,0.0,0.0,0.0,0.0,0.0,0.0,0.0,0.0,0.0,0.0,0.0,0.0,0.0,0.0,0.0,0.0,0.0,0.0,0.0,0.0,0.0,0.0,0.0,0.0,0.0,0.0,0.0,0.0,0.0,0.0,0.0,0.0,0.0,0.0,0.0,0.0,0.0,0.0,0.0,0.0,0.0,0.0,0.0,0.0,0.0,0.0,0.0,0.0,0.0,0.0,0.0,0.0,0.0,0.9456,0.9732,0.9092,0.939,0.9545,0.9324,0.8635,0.8442,0.8939,0.7879,0.0,0.0,0.0,0.0,0.0,0.0,0.0,0.0,0.0,0.0,0.0,0.0,0.0,0.0,0.0,0.0,0.0,0.0,0.0,0.0,0.0,0.0,0.0,0.0,0.0,0.0,0.0,0.0,0.0,0.0,0.0,0.0,0.0,0.0,0.0,0.0,0.0,0.0,0.0,0.0,0.0,0.0,0.0,0.0,0.0,0.0,0.0,0.0,0.0,0.0,0.0,0.0,0.0,0.0,0.0,0.0,0.0,0.0,0.0,0.0,0.0,0.0,0.0,0.0,0.0,0.0,0.0,0.0,0.0,0.0,0.0,0.0,0.0,0.0,0.0,0.0,0.0,0.0,0.0,0.0,0.0,0.0,0.0,0.0,0.0,0.0,0.0,0.0,0.0,0.0,0.0,0.0,0.0,0.0,0.0,0.0,0.0,0.0,0.0,0.0,0.0,0.0,0.9883,1.0005,0.9725,0.9709,0.9674,0.9616,0.9151,0.8902,0.8992,0.0,0.0,0.0,0.0,0.0,0.0,0.0,0.0,0.0,0.0,0.0,0.0,0.0,0.0,0.0,0.0,0.0,0.0,0.0,0.0,0.0,0.0,0.0,0.0,0.0,0.0,0.0,0.0,0.0,0.0,0.0,0.0,0.0,0.0,0.0,0.0,0.0,0.0,0.0,0.0,0.0,0.0,0.0,0.0,0.0,0.0,0.0,0.0,0.0,0.0,0.0,0.0,0.0,0.0,0.0,0.0,0.0,0.0,0.0,0.0,0.0,0.0,0.0,0.0,0.0,0.0,0.0,0.0,0.0,0.0,0.0,0.0,0.0,0.0,0.0,0.0,0.0,0.0,0.0,0.0,0.0,0.0,0.0,0.0,0.0,0.0,0.0,0.0,0.0,0.0,0.0,0.0,0.0,0.0,0.0,0.0,0.0,0.0,0.0,0.0,0.0,0.0,1.0176,1.0346,1.0346,1.0307,0.9976,0.9793,0.9783,0.9293,0.8956,0.8907,0.0,0.0,0.0,0.0,0.0,0.0,0.0,0.0,0.0,0.0,0.0,0.0,0.0,0.0,0.0,0.0,0.0,0.0,0.0,0.0,0.0,0.0,0.0,0.0,0.0,0.0,0.0,0.0,0.0,0.0,0.0,0.0,0.0,0.0,0.0,0.0,0.0,0.0,0.0,0.0,0.0,0.0,0.0,0.0,0.0,0.0,0.0,0.0,0.0,0.0,0.0,0.0,0.0,0.0,0.0,0.0,0.0,0.0,0.0,0.0,0.0,0.0,0.0,0.0,0.0,0.0,0.0,0.0,0.0,0.0,0.0,0.0,0.0,0.0,0.0,0.0,0.0,0.0,0.0,0.0,0.0,0.0,0.0,0.0,0.0,0.0,0.0,0.0,0.0,0.0,0.0,0.0,0.0,0.0,0.0,0.0,0.0,0.0,0.0,0.0,0.0,0.0,1.0616,1.0862,1.09,1.0715,1.0278,0.9941,0.9823,0.8829,0.8341,0.0,0.0,0.0,0.0,0.0,0.0,0.0,0.0,0.0,0.0,0.0,0.0,0.0,0.0,0.0,0.0,0.0,0.0,0.0,0.0,0.0,0.0,0.0,0.0,0.0,0.0,0.0,0.0,0.0,0.0,0.0,0.0,0.0,0.0,0.0,0.0,0.0,0.0,0.0,0.0,0.0,0.0,0.0,0.0,0.0,0.0,0.0,0.0,0.0,0.0,0.0,0.0,0.0,0.0,0.0,0.0,0.0,0.0,0.0,0.0,0.0,0.0,0.0,0.0,0.0,0.0,0.0,0.0,0.0,0.0,0.0,0.0,0.0,0.0,0.0,0.0,0.0,0.0,0.0,0.0,0.0,0.0,0.0,0.0,0.0,0.0,0.0,0.0,0.0,0.0,0.0,0.0,0.0,0.0,0.0,0.0,0.0,0.0,0.0,0.0,0.0,0.0,0.0,1.029,1.0759,1.0759,1.0054,0.998,0.9858,0.9487,0.8993,0.8681,0.8703,0.0,0.0,0.0,0.0,0.0,0.0,0.0,0.0,0.0,0.0,0.0,0.0,0.0,0.0,0.0,0.0,0.0,0.0,0.0,0.0,0.0,0.0,0.0,0.0,0.0,0.0,0.0,0.0,0.0,0.0,0.0,0.0,0.0,0.0,0.0,0.0,0.0,0.0,0.0,0.0,0.0,0.0,0.0,0.0,0.0,0.0,0.0,0.0,0.0,0.0,0.0,0.0,0.0,0.0,0.0,0.0,0.0,0.0,0.0,0.0,0.0,0.0,0.0,0.0,0.0,0.0,0.0,0.0,0.0,0.0,0.0,0.0,0.0,0.0,0.0,0.0,0.0,0.0,0.0,0.0,0.0,0.0,0.0,0.0,0.0,0.0,0.0,0.0,0.0,0.0,0.0,0.0,0.0,0.0,0.0,0.0,0.0,0.0,0.0,0.0,0.0,0.0,1.0957,1.125,1.1099,1.0472,1.0244,0.9932,0.9527,0.9007,0.8716,0.8695,0.0,0.0,0.0,0.0,0.0,0.0,0.0,0.0,0.0,0.0,0.0,0.0,0.0,0.0,0.0,0.0,0.0,0.0,0.0,0.0,0.0,0.0,0.0,0.0,0.0,0.0,0.0,0.0,0.0,0.0,0.0,0.0,0.0,0.0,0.0,0.0,0.0,0.0,0.0,0.0,0.0,0.0,0.0,0.0,0.0,0.0,0.0,0.0,0.0,0.0,0.0,0.0,0.0,0.0,0.0,0.0,0.0,0.0,0.0,0.0,0.0,0.0,0.0,0.0,0.0,0.0,0.0,0.0,0.0,0.0,0.0,0.0,0.0,0.0,0.0,0.0,0.0,0.0,0.0,0.0,0.0,0.0,0.0,0.0,0.0,0.0,0.0,0.0,0.0,0.0,0.0,0.0,0.0,0.0,0.0,0.0,0.0,0.0,0.0,0.0,0.0,0.0,1.206,1.1999,1.17,1.1442,1.0731,1.0166,0.9862,0.9003,0.8515,0.8695,0.0,0.0,0.0,0.0,0.0,0.0,0.0,0.0,0.0,0.0,0.0,0.0,0.0,0.0,0.0,0.0,0.0,0.0,0.0,0.0,0.0,0.0,0.0,0.0,0.0,0.0,0.0,0.0,0.0,0.0,0.0,0.0,0.0,0.0,0.0,0.0,0.0,0.0,0.0,0.0,0.0,0.0,0.0,0.0,0.0,0.0,0.0,0.0,0.0,0.0,0.0,0.0,0.0,0.0,0.0,0.0,0.0,0.0,0.0,0.0,0.0825,0.0,0.0,0.0,0.0,0.0,0.0,0.0,0.0,0.0,0.0,0.0,0.0,0.0,0.0,0.0,0.0,0.0,0.0,0.0,0.0,0.0,0.0,0.0,0.0,0.0,0.0,0.0,0.0,0.0,0.0,0.0,0.0,0.0,0.0,0.0,0.0,0.0,0.0,0.0,0.0,0.0,1.133,1.1695,1.1616,1.0883,1.051,1.0244,1.0044,0.9355,0.8869,0.8695,0.762,0.0,0.0,0.0,0.0,0.0,0.0,0.0,0.0,0.0,0.0,0.0,0.0,0.0,0.0,0.0,0.0,0.0,0.0,0.0,0.0,0.0,0.0,0.0,0.0,0.0,0.0,0.0,0.0,0.0,0.0,0.0,0.0,0.0,0.0,0.0,0.0,0.0,0.0,0.0,0.0,0.0,0.0,0.0,0.0,0.0,0.0,0.0,0.0,0.0,0.0,0.0,0.0,0.0,0.0,0.0,0.0,0.0,0.0,0.0,0.0,0.0986,0.0,0.0,0.0,0.0,0.0,0.0,0.0,0.0,0.0,0.0,0.0,0.0,0.0,0.0,0.0,0.0,0.0,0.0,0.0,0.0,0.0,0.0,0.0,0.0,0.0,0.0,0.0,0.0,0.0,0.0,0.0,0.0,0.0,0.0,0.0,0.0,0.0,0.0,0.0,0.0,1.171,1.1982,1.1763,1.1024,1.0654,1.0356,1.0123,0.9507,0.894,0.8481,0.783,0.0,0.0,0.0,0.0,0.0,0.0,0.0,0.0,0.0,0.0,0.0,0.0,0.0,0.0,0.0,0.0,0.0,0.0,0.0,0.0,0.0,0.0,0.0,0.0,0.0,0.0,0.0,0.0,0.0,0.0,0.0,0.0,0.0,0.0,0.0,0.0,0.0,0.0,0.0,0.0,0.0,0.0,0.0,0.0,0.0,0.0,0.0,0.0,0.0,0.0,0.0,0.0,0.0,0.2887,0.2812,0.2717,0.1896,0.1643,0.1829,0.1037,0.1087,0.1703,0.1254,0.0,0.0,0.0,0.0,0.0,0.0,0.0,0.0,0.0,0.0,0.0,0.0,0.0,0.0,0.0,0.0,0.0,0.0,0.0,0.0,0.0,0.0,0.0,0.0,0.5636,0.5297,0.5237,0.0,0.0,0.0,0.0,0.0,0.0,0.0,0.0,0.0,0.0,0.0,1.2347,1.2312,1.1951,1.1425,1.0911,1.0505,1.0273,0.9677,0.9025,0.8341,0.8034,0.7419,0.0,0.0,0.0,0.0,0.0,0.0,0.0,0.0,0.0,0.0,0.0,0.0,0.0,0.0,0.0,0.0,0.0,0.0,0.0,0.0,0.0,0.0,0.0,0.0,0.0,0.0,0.0,0.0,0.0,0.0,0.0,0.0,0.3242,0.2794,0.0,0.0,0.0,0.0,0.0,0.0,0.0,0.0,0.0,0.0,0.0,0.0,0.0,0.2994,0.2729,0.3359,0.3602,0.352,0.3614,0.3153,0.2187,0.2087,0.1602,0.0898,0.076,0.0,0.1433,0.1209,0.0,0.0,0.0,0.0,0.0,0.0,0.0,0.0,0.0,0.0,0.0,0.0,0.0,0.0,0.0,0.0,0.0,0.0,0.0,0.0,0.0,0.0,0.541,0.5263,0.5115,0.5045,0.0,0.5106,0.5055,0.5754,0.5623,0.0,0.0,0.0,0.0,0.0,0.0,0.0,1.2283,1.2108,1.1811,1.1732,1.1067,1.0654,1.0764,1.0147,0.9411,0.8685,0.8451,0.8006,0.7338,0.6495,0.0,0.0,0.0,0.0,0.0,0.0,0.0,0.0,0.0,0.0,0.0,0.0,0.0,0.0,0.0,0.0,0.0,0.0,0.0,0.0,0.0,0.0,0.0,0.0,0.0,0.0,0.0,0.0,0.0,0.2879,0.309,0.3073,0.2924,0.2738,0.0,0.0,0.0,0.0,0.0,0.0,0.0,0.0,0.0,0.3579,0.4007,0.4097,0.3773,0.425,0.4345,0.4104,0.4083,0.3807,0.3339,0.2808,0.2322,0.1922,0.1611,0.1611,0.1789,0.1567,0.1589,0.1802,0.0,0.0,0.0,0.0,0.2789,0.2534,0.3028,0.3467,0.3777,0.3466,0.0,0.0,0.0,0.0,0.0,0.0,0.0,0.0,0.0,0.0,0.5848,0.587,0.5509,0.5294,0.5902,0.5554,0.5319,0.0,0.6061,0.6351,0.7442,0.0,0.0,0.0,0.0,1.1243,1.2116,1.2186,1.1962,1.151,1.1067,1.0731,1.0582,1.0166,0.9476,0.85,0.8616,0.8318,0.7353,0.6522,0.604,0.0,0.0,0.0,0.0,0.0,0.0,0.0,0.0,0.0,0.0,0.0,0.0,0.0,0.0,0.0,0.0,0.0,0.0,0.0,0.0,0.0,0.0,0.0,0.0,0.0,0.0,0.0,0.0,0.2891,0.3039,0.3533,0.361,0.3552,0.0,0.0,0.0,0.0,0.0,0.0,0.4378,0.4652,0.4783,0.4783,0.5054,0.5039,0.4792,0.5042,0.5042,0.4792,0.4601,0.4401,0.4268,0.3559,0.3115,0.285,0.2451,0.223,0.2099,0.1924,0.196,0.2198,0.29,0.3051,0.2988,0.3356,0.3102,0.2558,0.3218,0.3589,0.3694,0.3436,0.4052,0.4814,0.4313,0.0,0.0,0.0,0.0,0.7102,0.6867,0.6492,0.6215,0.6279,0.587,0.565,0.6258,0.6029,0.5861,0.0,0.6436,0.6782,0.7589,0.0,0.0,0.0,0.0,1.1212,1.2062,1.2222,1.1999,1.1367,1.1062,1.0764,1.0356,1.0132,0.96,0.8596,0.8818,0.8572,0.7559,0.6881,0.645,0.6341,0.0,0.0,0.0,0.0,0.0,0.0,0.0,0.0,0.0,0.0,0.0,0.0,0.0,0.0,0.0,0.0,0.0,0.0,0.0,0.0,0.0,0.0,0.0,0.0,0.0,0.0,0.0,0.0,0.0,0.4279,0.4171,0.0,0.0,0.0,0.0,0.4141,0.4312,0.4431,0.4578,0.4856,0.4993,0.4993,0.5432,0.5658,0.5628,0.5661,0.5661,0.5628,0.5185,0.4742,0.4299,0.4254,0.3721,0.2795,0.2795,0.2491,0.2099,0.2099,0.2238,0.2514,0.2649,0.2829,0.3024,0.324,0.307,0.2764,0.3158,0.3261,0.3311,0.3809,0.4507,0.5185,0.5342,0.5731,0.0,0.0,0.6882,0.7008,0.7079,0.6736,0.631,0.5932,0.5913,0.5993,0.6036,0.6343,0.6604,0.0,0.658,0.704,0.8382,0.0,0.9809,1.1498,1.1403,1.1488,1.2294,1.2077,1.1737,1.151,1.1207,1.0829,1.0418,1.0196,0.9913,0.9451,0.9159,0.8809,0.8349,0.7882,0.7399,0.698,0.6093,0.0,0.0,0.0,0.0,0.0,0.0,0.0,0.0,0.0,0.0,0.0,0.0,0.0,0.0,0.0,0.0,0.0,0.0,0.0,0.0,0.0,0.0,0.0,0.0,0.0,0.0,0.0,0.0,0.4283,0.4619,0.0,0.4789,0.4944,0.5109,0.5147,0.5252,0.5357,0.5488,0.5661,0.5793,0.5887,0.6059,0.601,0.5696,0.601,0.601,0.5698,0.5684,0.5623,0.544,0.5304,0.4843,0.4128,0.4128,0.4036,0.3895,0.3985,0.3649,0.3067,0.3576,0.3725,0.3622,0.3767,0.3562,0.3246,0.3389,0.3421,0.3486,0.3916,0.4201,0.4432,0.4893,0.5341,0.5777,0.6397,0.6806,0.7086,0.6951,0.6787,0.6541,0.6154,0.5916,0.5953,0.6477,0.6483,0.6459,0.6735,0.6671,0.6905,0.8067,0.8371,0.9013,1.0606,1.0731,1.0807,1.1362,1.1292,1.1105,1.0769,1.0649,1.0457,1.0044,1.0083,0.9922,0.9523,0.9172,0.8818,0.8414,0.7584,0.7115,0.7134,0.5948,0.4996,0.0,0.0,0.0,0.0,0.0,0.0,0.0,0.0,0.0,0.0,0.0,0.0,0.0,0.0,0.0,0.0,0.0,0.0,0.0,0.0,0.0,0.0,0.0,0.0,0.0,0.3888,0.4319,0.4515,0.504,0.5266,0.5079,0.544,0.5715,0.5715,0.5769,0.5836,0.593,0.6059,0.6228,0.641,0.6457,0.6358,0.6122,0.6493,0.6493,0.6211,0.639,0.6472,0.6478,0.6352,0.5985,0.5445,0.5445,0.5347,0.5202,0.534,0.4775,0.3959,0.453,0.4532,0.4206,0.4208,0.405,0.3815,0.3815,0.3912,0.4054,0.4518,0.4621,0.4752,0.5185,0.5632,0.6115,0.6518,0.6934,0.7229,0.694,0.6733,0.6602,0.6477,0.6173,0.6084,0.6738,0.6653,0.6565,0.6829,0.6699,0.682,0.769,0.7814,0.8337,0.9829,1.0074,1.0269,1.084,1.0916,1.0731,1.0356,1.039,1.0307,0.9897,1.0049,1.004,0.9799,0.9403,0.9011,0.8618,0.7774,0.7313,0.722,0.5895,0.5043,0.4641,0.0,0.0,0.0,0.0,0.0,0.0,0.0,0.0,0.0,0.0,0.0,0.0,0.0,0.0,0.0,0.0,0.0,0.0,0.0,0.0,0.0,0.0,0.0,0.3673,0.4254,0.4793,0.5005,0.542,0.568,0.568,0.568,0.568,0.568,0.5761,0.5801,0.5801,0.5947,0.6153,0.6393,0.6532,0.6698,0.6912,0.7104,0.7203,0.7248,0.7209,0.7215,0.7215,0.7224,0.6983,0.6496,0.6496,0.6252,0.5864,0.5898,0.5643,0.5198,0.5436,0.5248,0.4798,0.4627,0.4527,0.4449,0.4449,0.4714,0.5113,0.5588,0.5916,0.6151,0.6344,0.6761,0.7149,0.7098,0.7282,0.7412,0.7068,0.6647,0.6431,0.6784,0.6601,0.6425,0.6836,0.696,0.6999,0.694,0.6822,0.6895,0.7402,0.7523,0.8005,0.9377,0.9584,0.0,1.0759,1.0878,1.0731,1.0322,1.0467,1.0433,1.0059,1.0171,1.0283,1.0283,0.9869,0.943,0.902,0.8614,0.8012,0.7208,0.6108,0.5373,0.5095,0.0,0.0,0.0,0.0,0.0,0.0,0.0,0.0,0.0,0.0,0.0,0.0,0.0,0.0,0.0,0.0,0.0,0.0,0.0,0.0,0.0,0.4113,0.4339,0.4532,0.4754,0.5088,0.5529,0.5628,0.568,0.568,0.568,0.568,0.568,0.5872,0.597,0.6065,0.6415,0.6637,0.6756,0.6949,0.7266,0.7672,0.7344,0.7392,0.777,0.7588,0.7486,0.7492,0.7641,0.7419,0.6941,0.6941,0.6836,0.6731,0.688,0.6726,0.646,0.6093,0.5664,0.5327,0.567,0.5839,0.5919,0.5919,0.6015,0.6112,0.625,0.6343,0.6409,0.6478,0.6597,0.6747,0.7098,0.7241,0.7211,0.6924,0.7026,0.7066,0.6557,0.6638,0.6908,0.7258,0.7345,0.7412,0.7596,0.7597,0.7545,0.7518,0.7686,0.814,0.9047,0.9461,0.0,0.998,1.0019,1.0019,0.9936,1.0054,1.0132,1.0088,1.0205,1.0283,1.0283,0.9869,0.943,0.902,0.8614,0.8043,0.7214,0.6305,0.5597,0.0,0.0,0.0,0.0,0.0,0.0,0.0,0.0,0.0,0.0,0.0,0.0,0.0,0.0,0.0,0.0,0.0,0.0,0.0,0.0,0.0,0.0,0.4409,0.4833,0.5282,0.524,0.5285,0.5747,0.5758,0.568,0.568,0.5766,0.5822,0.5822,0.604,0.6225,0.628,0.6546,0.6767,0.6921,0.7173,0.7468,0.7875,0.7635,0.7638,0.7938,0.7798,0.7713,0.7722,0.7829,0.7738,0.7413,0.7413,0.7413,0.7464,0.7512,0.7376,0.0,0.0,0.0,0.0,0.0,0.6548,0.6546,0.6747,0.6798,0.6846,0.7038,0.7161,0.7303,0.7303,0.7303,0.7355,0.7615,0.7585,0.7453,0.7282,0.733,0.7292,0.7032,0.7039,0.7173,0.7576,0.7659,0.7712,0.7848,0.7878,0.0,0.7681,0.7727,0.8061,0.8789,0.9037,0.9266,0.9639,0.9683,0.9723,0.9753,0.9906,1.0019,1.0054,1.0205,0.0,0.0,0.0,0.9637,0.902,0.8307,0.0,0.0,0.0,0.0,0.0,0.0,0.0,0.0,0.4686,0.455,0.0,0.0,0.0,0.0,0.0,0.0,0.0,0.0,0.0,0.0,0.0,0.0,0.0,0.0,0.0,0.0,0.4725,0.5399,0.5953,0.5663,0.5542,0.5876,0.5801,0.569,0.5717,0.59,0.6032,0.6059,0.6293,0.6433,0.6433,0.0,0.0,0.0,0.0,0.7552,0.788,0.7892,0.7898,0.8005,0.7955,0.7901,0.7901,0.7901,0.7901,0.7901,0.7901,0.7901,0.7901,0.7901,0.7628,0.7192,0.7408,0.7292,0.7039,0.713,0.7027,0.6827,0.7237,0.0,0.0,0.7882,0.8206,0.8424,0.8424,0.8424,0.8424,0.8424,0.8233,0.7975,0.7941,0.7637,0.7435,0.7793,0.7589,0.7404,0.7874,0.7935,0.7941,0.7975,0.7923,0.7868,0.7978,0.7789,0.7871,0.8677,0.8551,0.8683,0.9524,0.965,0.969,0.9771,0.0,0.0,1.0091,1.0234,1.0283,1.0283,1.0205,0.9769,0.898,0.7869,0.7379,0.7712,0.7067,0.6774,0.6771,0.6725,0.6389,0.5795,0.536,0.5074,0.0,0.0,0.0,0.0,0.0,0.0,0.0,0.0,0.0,0.0,0.0,0.0,0.0,0.0,0.0,0.4809,0.5295,0.5787,0.6207,0.6133,0.6136,0.6468,0.6056,0.575,0.5935,0.5995,0.6105,0.6309,0.6538,0.6619,0.6619,0.6957,0.7342,0.7694,0.7547,0.7944,0.8893,0.815,0.8043,0.8623,0.0,0.0,0.7901,0.7901,0.7901,0.7901,0.7901,0.7901,0.7901,0.7901,0.7848,0.7738,0.7557,0.7811,0.8252,0.842,0.842,0.8365,0.8479,0.8479,0.853,0.8582,0.8677,0.8724,0.8724,0.8724,0.0,0.8724,0.8684,0.8584,0.835,0.8237,0.8128,0.7938,0.7834,0.7849,0.8237,0.829,0.8357,0.8591,0.8586,0.8582,0.8637,0.8424,0.8329,0.8575,0.8837,0.9109,0.9289,0.9289,0.9558,1.0215,1.0027,1.0091,1.0668,1.0478,1.0283,1.0283,0.9651,0.9016,0.8537,0.7938,0.7649,0.7715,0.7321,0.7113,0.7083,0.6813,0.6641,0.6513,0.6121,0.5506,0.0,0.0,0.0,0.0,0.0,0.0,0.0,0.0,0.0,0.0,0.0,0.365,0.3771,0.0,0.489,0.5219,0.5704,0.6167,0.6547,0.651,0.6517,0.6683,0.6206,0.5895,0.6008,0.6189,0.6431,0.6557,0.6781,0.7015,0.7169,0.7245,0.7467,0.7874,0.7619,0.7783,0.8464,0.8256,0.8203,0.8365,0.8365,0.8365,0.8365,0.8058,0.8055,0.8315,0.8055,0.7901,0.7901,0.8212,0.8212,0.8058,0.8203,0.8517,0.8893,0.9054,0.9162,0.9162,0.8906,0.8808,0.8808,0.8808,0.8808,0.8808,0.8808,0.8808,0.8808,0.8808,0.8808,0.8774,0.8627,0.8591,0.8554,0.8407,0.837,0.841,0.8557,0.8591,0.8634,0.8778,0.8808,0.8808,0.8808,0.8707,0.8647,0.8792,0.8863,0.8989,0.9167,0.9213,0.9394,0.9848,0.9651,0.964,1.006,0.983,0.9651,0.9651,0.9052,0.8618,0.8418,0.7961,0.7715,0.7715,0.7548,0.7381,0.7213,0.7202,0.7024,0.6683,0.6517,0.6087,0.0,0.0,0.0,0.0,0.0,0.0,0.0,0.2305,0.2912,0.2916,0.3274,0.3692,0.3946,0.4358,0.4879,0.545,0.5959,0.6377,0.6716,0.668,0.662,0.6667,0.6256,0.6056,0.6148,0.6459,0.6754,0.69,0.708,0.7402,0.783,0.7628,0.7681,0.809,0.7833,0.7783,0.7987,0.8306,0.8312,0.8005,0.8415,0.862,0.862,0.8262,0.8262,0.8623,0.8109,0.7901,0.7952,0.8418,0.8418,0.8221,0.8794,0.9054,0.9155,0.9204,0.9305,0.9361,0.8959,0.8808,0.8808,0.8808,0.8808,0.8808,0.8808,0.8808,0.8808,0.8808,0.8808,0.8808,0.8808,0.8808,0.8808,0.8808,0.8808,0.8808,0.8808,0.8808,0.8808,0.8808,0.8808,0.8808,0.8808,0.8808,0.8825,0.8933,0.8781,0.8765,0.9084,0.9131,0.9223,0.9502,0.926,0.9127,0.9245,0.91,0.898,0.8899,0.8578,0.8377,0.8254,0.7919,0.7715,0.7715,0.7715,0.7548,0.7297,0.759,0.7412,0.6894,0.6852,0.6641,0.3454,0.3072,0.265,0.268,0.2682,0.2635,0.0,0.2834,0.2889,0.2892,0.338,0.3871,0.4186,0.4618,0.5099,0.5588,0.597,0.6221,0.6264,0.6264,0.6304,0.6484,0.6225,0.6186,0.6566,0.6654,0.6925,0.7555,0.7599,0.783,0.8315,0.8318,0.8477,0.8847,0.8474,0.8527,0.905,0.8355,0.8093,0.8318,0.799,0.7889,0.8005,0.8468,0.8468,0.8005,0.7955,0.7901,0.7901,0.7952,0.7952,0.8005,0.8725,0.9033,0.8977,0.8781,0.8791,0.8857,0.8808,0.8808,0.8808,0.8808,0.8808,0.8808,0.8808,0.8808,0.8808,0.8808,0.8808,0.8808,0.8808,0.8808,0.8808,0.8808,0.8808,0.8808,0.8808,0.8808,0.8808,0.8808,0.8808,0.8808,0.8808,0.8808,0.8794,0.8813,0.8783,0.8812,0.886,0.886,0.9106,0.9855,0.9341,0.8946,0.9013,0.9001,0.8858,0.85,0.8418,0.8209,0.7799,0.7715,0.7715,0.7715,0.7715,0.7674,0.7632,0.7674,0.767,0.7583,0.7485,0.7014,0.3181,0.2316,0.1631,0.2157,0.2212,0.2144,0.1893,0.2378,0.2788,0.2461,0.3132,0.3803,0.3877,0.4576,0.5285,0.5692,0.6217,0.668,0.686,0.6725,0.6681,0.6881,0.6626,0.6464,0.6665,0.6859,0.703,0.7343,0.7563,0.7883,0.8371,0.8424,0.8583,0.9008,0.8368,0.815,0.8458,0.8137,0.7981,0.7889,0.8096,0.8259,0.8318,0.8262,0.8159,0.7901,0.7901,0.7901,0.7901,0.8262,0.8212,0.7952,0.8735,0.8837,0.8679,0.8893,0.9054,0.9106,0.8794,0.8748,0.8808,0.8808,0.8808,0.8808,0.8808,0.8808,0.8808,0.8808,0.8808,0.8808,0.8808,0.8808,0.8808,0.8808,0.8808,0.8808,0.8808,0.8808,0.8695,0.8365,0.8259,0.8203,0.7889,0.8046,0.8259,0.8259,0.8586,0.8808,0.891,0.8906,0.9041,0.9351,0.903,0.8716,0.8543,0.8363,0.8167,0.8002,0.8002,0.7919,0.7715,0.7715,0.7715,0.7715,0.7715,0.7715,0.7715,0.7715,0.7715,0.7715,0.7458,0.7157,0.249,0.1699,0.1104,0.163,0.1736,0.1612,0.1138,0.1719,0.2275,0.1838,0.2549,0.3265,0.3342,0.4047,0.4764,0.5268,0.5976,0.6519,0.6801,0.6764,0.6861,0.7053,0.6834,0.671,0.6826,0.6985,0.7136,0.7244,0.767,0.8099,0.853,0.8682,0.8791,0.9008,0.8365,0.804,0.8037,0.8031,0.7874,0.7619,0.8046,0.8259,0.8309,0.7999,0.7949,0.8159,0.7952,0.7901,0.7952,0.8365,0.8312,0.7955,0.8484,0.8533,0.8371,0.8791,0.9054,0.9155,0.8791,0.8745,0.8808,0.8808,0.8808,0.8808,0.8808,0.8808,0.8808,0.8808,0.8808,0.8808,0.8808,0.8808,0.8808,0.8808,0.8808,0.8808,0.8808,0.8808,0.8643,0.8034,0.7984,0.788,0.73,0.772,0.8087,0.8087,0.8577,0.8959,0.9008,0.9061,0.904,0.8923,0.8851,0.8692,0.8363,0.8034,0.7847,0.7847,0.7763,0.7715,0.7715,0.7715,0.7715,0.7715,0.7715,0.7715,0.7715,0.7715,0.767,0.7621,0.7377,0.7167,0.1474,0.1517,0.1619,0.1377,0.1389,0.1321,0.0994,0.097,0.1081,0.1129,0.1479,0.1969,0.263,0.2812,0.3172,0.4112,0.4878,0.5347,0.5347,0.5993,0.6479,0.6708,0.6684,0.6826,0.0,0.7082,0.7244,0.767,0.8099,0.853,0.8956,0.9361,0.9409,0.9008,0.8956,0.8794,0.8368,0.7937,0.7771,0.7874,0.7521,0.7419,0.7521,0.7673,0.8093,0.8725,0.8159,0.7901,0.7901,0.7901,0.7901,0.7901,0.7901,0.8062,0.8221,0.8221,0.8484,0.8804,0.8808,0.8808,0.8808,0.8808,0.8808,0.8808,0.8808,0.8808,0.8808,0.8808,0.8808,0.8808,0.8808,0.8808,0.8808,0.8808,0.8808,0.8808,0.8808,0.8808,0.8643,0.8034,0.815,0.8212,0.7571,0.8096,0.8573,0.8573,0.8945,0.9162,0.9008,0.9211,0.924,0.8923,0.905,0.9029,0.8699,0.8377,0.8187,0.8187,0.7891,0.7715,0.7715,0.7715,0.7715,0.7715,0.7715,0.7715,0.7715,0.7715,0.7621,0.752,0.7409,0.7076,0.0849,0.0538,0.0399,0.0785,0.0471,-0.0,-0.0361,-0.009,0.0227,0.0224,0.0716,0.1253,0.1474,0.1977,0.255,0.3289,0.4231,0.5035,0.5468,0.6161,0.6615,0.6691,0.6858,0.0,0.0,0.0,0.0,0.7297,0.7996,0.8315,0.815,0.884,0.9001,0.8636,0.8312,0.8046,0.7937,0.7512,0.7348,0.7348,0.7308,0.7365,0.7521,0.7571,0.7723,0.8037,0.7833,0.7839,0.7901,0.7901,0.7955,0.8115,0.8215,0.8318,0.8474,0.859,0.8702,0.8804,0.8689,0.8745,0.8808,0.8808,0.8808,0.8808,0.8808,0.8808,0.8808,0.8808,0.8808,0.8808,0.8808,0.8808,0.8808,0.8808,0.8808,0.8808,0.8808,0.8477,0.8043,0.7453,0.756,0.7399,0.6549,0.7133,0.7774,0.7836,0.8732,0.9312,0.926,0.9413,0.947,0.9362,0.9285,0.9131,0.9021,0.8513,0.8202,0.8202,0.7895,0.7715,0.7715,0.7715,0.7715,0.7715,0.7715,0.7715,0.7715,0.7715,0.767,0.7621,0.7231,0.6807,0.0283,0.0043,0.0044,0.0231,-0.0236,-0.08,-0.113,-0.0906,-0.064,-0.0595,-0.0183,0.0183,0.0412,0.0914,0.1501,0.2253,0.3202,0.4045,0.4541,0.5487,0.6152,0.6152,0.6537,0.681,0.0,0.0,0.0,0.7295,0.7993,0.8262,0.799,0.8633,0.8742,0.8156,0.7833,0.7616,0.7509,0.7244,0.7085,0.7085,0.7198,0.7306,0.7521,0.7521,0.7625,0.7783,0.7783,0.7839,0.7901,0.7901,0.7952,0.8115,0.8268,0.8421,0.8524,0.8692,0.8748,0.8804,0.8689,0.8745,0.8808,0.8808,0.891,0.9057,0.8857,0.8959,0.9061,0.8857,0.8808,0.8804,0.8857,0.8857,0.8804,0.8857,0.8857,0.8808,0.8808,0.8477,0.7987,0.7244,0.7345,0.7182,0.6112,0.6756,0.7506,0.7783,0.8573,0.9148,0.9197,0.9406,0.9614,0.9614,0.9446,0.9383,0.9491,0.8794,0.8419,0.8506,0.8003,0.7715,0.7715,0.7715,0.7715,0.7715,0.759,0.759,0.7715,0.759,0.7458,0.7328,0.6979,0.6547,-0.0092,0.0072,0.0675,-0.0311,-0.0739,-0.1034,-0.1355,-0.1526,-0.1523,-0.1332,-0.1335,-0.1193,-0.0525,-0.0345,0.005,0.1058,0.1761,0.2355,0.277,0.411,0.5052,0.5052,0.5712,0.0,0.0,0.0,0.0,0.7616,0.0,0.8368,0.8318,0.8742,0.858,0.7723,0.767,0.7509,0.7085,0.7085,0.7085,0.7085,0.7085,0.7249,0.7467,0.7467,0.7628,0.7901,0.7901,0.7901,0.7901,0.7901,0.7901,0.7955,0.8112,0.8271,0.8421,0.8573,0.8689,0.8808,0.8808,0.8808,0.8808,0.8808,0.9162,0.9462,0.8959,0.9159,0.9462,0.8959,0.8808,0.8808,0.8959,0.8906,0.8857,0.8959,0.8906,0.8808,0.8808,0.8804,0.8427,0.7354,0.7506,0.7498,0.6423,0.7074,0.783,0.8262,0.8471,0.8626,0.883,0.9298,0.9614,0.9669,0.9666,0.9718,0.9972,0.9238,0.8814,0.9024,0.8193,0.7712,0.767,0.7715,0.767,0.7674,0.7381,0.7339,0.7632,0.7335,0.6995,0.6683,0.6683,0.6298,0.0933,0.1286,0.2986,-0.0735,-0.1446,-0.136,-0.2063,-0.2669,-0.2884,-0.2279,-0.2525,-0.2623,-0.1935,-0.174,-0.131,-0.0209,0.0484,0.1101,0.1779,0.3444,0.4555,0.4336,0.5334,0.5996,0.5875,0.6372,0.0,0.0,0.7723,0.7783,0.7577,0.7937,0.7934,0.7416,0.7419,0.7308,0.7085,0.7085,0.7085,0.7085,0.7085,0.7139,0.7192,0.7192,0.7357,0.7628,0.7628,0.7738,0.7901,0.7901,0.8008,0.8115,0.8168,0.8271,0.8421,0.8573,0.8629,0.8685,0.8752,0.8808,0.8808,0.8808,0.8906,0.8956,0.8857,0.8906,0.8956,0.8857,0.8808,0.8808,0.8857,0.8808,0.8808,0.8857,0.8808,0.8808,0.8808,0.8524,0.8087,0.7515,0.7187,0.702,0.7017,0.7399,0.7563,0.7187,0.7886,0.8629,0.9201,0.9458,0.9773,1.0201,1.0257,1.0203,0.9937,0.9514,0.8971,0.8446,0.8133,0.7784,0.7499,0.7632,0.759,0.7339,0.7255,0.7122,0.694,0.6859,0.6771,0.668,0.6255,0.5959,0.5953,0.4418,0.4306,-0.0904,-0.1985,-0.2031,-0.2879,-0.3256,-0.3318,-0.2837,-0.2993,-0.3086,-0.2679,-0.2359,-0.1912,-0.1167,-0.0431,0.0274,0.1115,0.2228,0.306,0.3399,0.4506,0.5281,0.5389,0.5941,0.6436,0.0,0.7393,0.772,0.7568,0.7886,0.7836,0.7416,0.7365,0.7308,0.7198,0.7198,0.7033,0.6701,0.6974,0.6974,0.6802,0.6802,0.6969,0.7241,0.0,0.6969,0.7136,0.7136,0.7241,0.7348,0.7673,0.7833,0.799,0.8365,0.8524,0.8524,0.8689,0.8692,0.8745,0.8804,0.8959,0.911,0.8854,0.8959,0.911,0.8857,0.8808,0.8804,0.8857,0.891,0.891,0.8959,0.8956,0.8956,0.8956,0.8784,0.8408,0.7892,0.7192,0.6812,0.713,0.7348,0.7297,0.692,0.7512,0.8262,0.8893,0.9047,0.9204,0.9521,0.984,0.9906,0.9653,0.9313,0.8883,0.8415,0.8046,0.7787,0.7545,0.7628,0.7587,0.7328,0.7002,0.6872,0.6904,0.6644,0.6513,0.6507,0.5916,0.5531,1.3543,0.8936,0.4961,-0.0187,-0.2029,-0.2815,-0.3753,-0.3773,-0.3519,-0.3298,-0.3287,-0.3258,-0.3153,-0.2673,-0.214,-0.1765,-0.107,-0.0271,0.0614,0.0839,0.1285,0.2346,0.3346,0.4177,0.4737,0.5291,0.5675,0.5937,0.6956,0.7548,0.7658,0.7943,0.7952,0.7518,0.7408,0.7303,0.7203,0.7095,0.6763,0.6102,0.6647,0.664,0.6251,0.6251,0.6414,0.6689,0.6197,0.6039,0.6152,0.6206,0.6209,0.6261,0.6912,0.7235,0.7396,0.8043,0.8368,0.8421,0.8577,0.8629,0.8629,0.8752,0.911,0.9409,0.8959,0.9162,0.9465,0.8959,0.8857,0.8857,0.9008,0.9008,0.9057,0.9159,0.9211,0.9211,0.9211,0.9106,0.8896,0.8268,0.7408,0.6869,0.7085,0.7139,0.7139,0.7139,0.7357,0.7678,0.8262,0.8371,0.8474,0.8527,0.9065,0.9369,0.9328,0.8958,0.8682,0.8494,0.8031,0.7753,0.767,0.767,0.7579,0.7478,0.6826,0.6666,0.6999,0.6438,0.6176,0.6207,0.5747,0.5229,2.2391,1.4442,0.5292,0.3257,-0.0045,-0.3138,-0.4431,-0.4816,-0.4888,-0.4623,-0.466,-0.4576,-0.4097,-0.3381,-0.266,-0.1885,-0.133,-0.0778,-0.0168,0.0503,0.0951,0.1176,0.2124,0.2901,0.3238,0.39,0.0,0.0,0.5273,0.5869,0.6475,0.719,0.7625,0.7673,0.7077,0.6753,0.6699,0.6164,0.5839,0.5729,0.5664,0.5553,0.5496,0.5496,0.5601,0.576,0.5821,0.0,0.6036,0.615,0.6209,0.6209,0.6485,0.6864,0.7343,0.767,0.815,0.8577,0.8745,0.8752,0.8752,0.8808,0.8959,0.9113,0.9008,0.911,0.9263,0.9159,0.9106,0.9162,0.9159,0.9162,0.9159,0.9211,0.9211,0.9211,0.9211,0.8742,0.8265,0.7987,0.7568,0.7257,0.7413,0.741,0.741,0.741,0.7467,0.7571,0.778,0.8355,0.8883,0.9354,0.9278,0.9234,0.9315,0.9156,0.8672,0.7914,0.801,0.7901,0.7458,0.7458,0.7409,0.7266,0.695,0.6571,0.6047,0.5922,0.5838,0.5804,0.5717,0.5588,1.1317,1.2424,1.4337,0.7362,0.1039,-0.3021,-0.1265,-0.3032,-0.4994,-0.4762,-0.4888,-0.4895,-0.4629,-0.3741,-0.2906,-0.2234,-0.151,-0.0896,-0.0673,-0.0112,0.0448,0.0841,0.1623,0.2123,0.2175,0.3289,0.3958,0.3789,0.3944,0.4491,0.5546,0.6261,0.6864,0.7351,0.6753,0.6374,0.6268,0.5946,0.5618,0.5232,0.5397,0.5287,0.5013,0.5013,0.5064,0.5166,0.5009,0.5064,0.5222,0.5281,0.5338,0.5449,0.5837,0.6213,0.6586,0.6964,0.7289,0.7608,0.7771,0.799,0.8262,0.8315,0.8583,0.891,0.8959,0.9061,0.911,0.9159,0.9211,0.9211,0.9211,0.926,0.9312,0.9312,0.9361,0.9364,0.9208,0.8791,0.8315,0.7981,0.7619,0.7416,0.7467,0.7568,0.7622,0.7622,0.7681,0.7681,0.7723,0.8046,0.8415,0.8616,0.867,0.8613,0.8432,0.8352,0.8034,0.737,0.7478,0.7561,0.7565,0.7321,0.7231,0.7255,0.6732,0.6273,0.6007,0.5841,0.5841,0.5973,0.5631,0.5417,0.4711,1.279,2.3215,1.362,0.5043,-0.0191,0.3227,0.0088,-0.3536,-0.3456,-0.4241,-0.4625,-0.3507,-0.2382,-0.1155,0.0305,0.0522,0.0481,0.0481,-0.0055,-0.0224,0.0449,0.1008,0.1342,0.1395,0.2567,0.0,0.2732,0.267,0.3386,0.4993,0.5384,0.5989,0.6861,0.6261,0.5937,0.5834,0.5673,0.5342,0.4736,0.5069,0.5016,0.4522,0.4522,0.4629,0.468,0.4356,0.4302,0.4463,0.4463,0.4575,0.4688,0.5236,0.5614,0.5882,0.6317,0.6588,0.675,0.6912,0.7235,0.7613,0.7717,0.8256,0.891,0.9008,0.9057,0.9159,0.926,0.926,0.926,0.926,0.9361,0.9465,0.9465,0.9621,0.9669,0.9155,0.889,0.8514,0.7981,0.767,0.7554,0.7499,0.7594,0.7655,0.7546,0.7592,0.7644,0.7583,0.7644,0.7686,0.7735,0.7872,0.7915,0.7681,0.7627,0.7409,0.7076,0.7063,0.7227,0.7558,0.7189,0.7063,0.7252,0.6474,0.6105,0.6142,0.5847,0.5844,0.6099,0.5545,0.5203,2.2912,2.4061,2.5322,2.4212,1.6127,0.8349,0.7963,0.4094,0.0477,0.0247,-0.262,-0.367,0.105,0.2545,0.4642,0.0,0.0,0.4925,0.4925,0.1494,-0.0897,-0.0617,-0.0336,0.0112,0.0897,0.1121,0.1289,0.1458,0.1566,0.2617,0.4825,0.4833,0.5218,0.6091,0.5544,0.5273,0.5389,0.4684,0.4358,0.4247,0.419,0.4133,0.4078,0.4078,0.4078,0.4076,0.4192,0.4193,0.0,0.441,0.4519,0.4572,0.4846,0.5281,0.5828,0.6154,0.6588,0.7082,0.7082,0.7136,0.7136,0.719,0.8096,0.9162,0.9159,0.9361,0.9566,0.9562,0.9562,0.9562,0.9562,0.9562,0.9562,0.9562,0.9988,1.0098,0.889,0.883,0.8715,0.788,0.7723,0.765,0.7623,0.7581,0.7467,0.6941,0.6924,0.7016,0.7148,0.7059,0.7204,0.7832,0.7542,0.7465,0.7913,0.7619,0.7356,0.7182,0.7353,0.7353,0.7063,0.695,0.695,0.7017,0.6647,0.6316,0.6019,0.5881,0.5795,0.572,0.5461,0.5287,2.5136,2.5457,2.5563,2.564,1.8827,1.2354,1.33,0.9558,0.5827,0.5755,0.4837,0.4675,0.6731,0.7609,0.8543,0.0,0.0,0.0,0.5067,0.3583,0.1929,-0.0666,-0.0841,-0.0505,0.0,0.0,0.0224,0.0505,0.0897,0.1621,0.2783,0.3342,0.4119,0.5162,0.4728,0.4513,0.4629,0.4358,0.4079,0.3852,0.369,0.3467,0.3077,0.3077,0.3077,0.3078,0.3241,0.3296,0.0,0.3404,0.3459,0.3572,0.4121,0.4562,0.4893,0.5452,0.5784,0.6003,0.6003,0.627,0.6591,0.6753,0.7503,0.8362,0.8633,0.9099,0.9514,0.9562,0.9614,0.9614,0.9781,0.9991,1.0146,1.0146,1.0308,1.0304,0.961,0.9298,0.8988,0.8461,0.7987,0.7647,0.7579,0.7459,0.7274,0.6862,0.6824,0.6887,0.7058,0.6899,0.6948,0.7416,0.7312,0.7299,0.7538,0.7263,0.7048,0.6921,0.6953,0.7076,0.7241,0.6956,0.6826,0.693,0.6517,0.6145,0.5806,0.5761,0.5717,0.568,0.5323,0.5014,2.5033,2.549,2.5503,2.526,2.0799,1.6876,1.8398,1.4615,1.0892,1.124,1.0642,1.0543,1.21,1.2692,1.3243,0.0,0.0,1.269,0.8874,0.6536,0.4057,0.1037,-0.0491,-0.1121,-0.0729,-0.0617,-0.0449,-0.028,0.028,0.0841,0.1287,0.2181,0.3182,0.4346,0.4073,0.3967,0.397,0.397,0.3744,0.3347,0.3298,0.3077,0.2688,0.2688,0.2744,0.28,0.2795,0.2793,0.0,0.2905,0.2962,0.3016,0.3678,0.4067,0.4346,0.4908,0.5189,0.5299,0.5409,0.5732,0.6105,0.6374,0.6964,0.7667,0.7993,0.8676,0.9409,0.9406,0.9614,0.9936,1.0098,1.036,1.0624,1.0573,1.0569,1.0411,0.9972,0.9514,0.905,0.8626,0.8081,0.7574,0.7324,0.712,0.6905,0.66,0.6457,0.6508,0.6885,0.6518,0.6377,0.6854,0.6859,0.6927,0.7144,0.6787,0.6595,0.6633,0.6708,0.6875,0.7118,0.6745,0.6568,0.6638,0.609,0.5666,0.5415,0.5328,0.5282,0.5282,0.4884,0.4618,2.5042,2.5697,2.5432,2.43,2.351,2.3008,2.3028,1.8888,1.5321,1.631,1.3037,1.1581,1.677,1.7724,1.9377,2.4418,0.0,0.0,1.8545,1.0408,0.4587,0.5093,0.0818,-0.1848,-0.0953,-0.0897,-0.0897,-0.0897,-0.0336,0.0,0.0897,0.168,0.2575,0.3584,0.3744,0.3687,0.3413,0.3413,0.3187,0.2736,0.2962,0.3074,0.3074,0.3074,0.3301,0.3584,0.3244,0.3074,0.0,0.347,0.3413,0.313,0.363,0.4073,0.4519,0.4632,0.4967,0.5354,0.5683,0.5795,0.5848,0.6105,0.6694,0.7289,0.7289,0.8296,0.9357,0.9086,0.9721,1.0466,1.0466,1.0667,1.0871,1.0722,1.0722,1.051,0.9773,0.9413,0.8949,0.8058,0.7734,0.7413,0.6901,0.6534,0.6235,0.6036,0.5618,0.5594,0.6422,0.5642,0.5326,0.6143,0.6081,0.6224,0.6741,0.6205,0.6007,0.648,0.6741,0.6784,0.652,0.631,0.6142,0.6019,0.5236,0.4801,0.4801,0.4493,0.4318,0.4318,0.4056,0.4056,2.3044,2.3584,2.3864,2.3863,2.3437,2.3193,2.3778,2.2644,2.1554,2.1867,2.1253,2.1151,2.2771,2.3093,2.3454,2.4416,2.387,0.0,0.0,1.5679,1.1869,0.5788,0.3775,0.1849,0.0,0.0,0.2366,-0.0668,-0.0449,-0.0056,0.028,0.0503,0.1341,0.28,0.325,0.3473,0.3527,0.2741,0.2293,0.2293,0.2406,0.2295,0.1906,0.2126,0.2293,0.235,0.2238,0.2238,0.2349,0.2462,0.2462,0.2405,0.3242,0.3522,0.363,0.4296,0.4631,0.4741,0.4849,0.5179,0.5504,0.583,0.6372,0.6864,0.6864,0.7871,0.8988,0.9099,0.9517,0.988,0.988,1.0083,1.0281,1.023,1.0233,1.0182,1.0035,0.9673,0.9193,0.8619,0.8002,0.7334,0.6427,0.6032,0.572,0.5379,0.5224,0.5456,0.6269,0.5643,0.5333,0.5853,0.5199,0.5143,0.6279,0.6467,0.6597,0.6839,0.6562,0.6395,0.638,0.5867,0.5569,0.5529,0.5142,0.4881,0.4801,0.462,0.4314,0.3875,0.3743,0.357,2.183,2.2403,2.2944,2.3332,2.317,2.3156,2.406,2.4307,2.4463,2.4785,2.527,2.5622,2.5551,2.5571,2.5406,2.4791,2.5169,2.4366,2.0963,1.9238,1.5534,0.8098,0.7553,0.0,0.0,0.3946,0.3832,-0.0666,-0.0673,-0.0393,-0.0168,-0.0727,-0.0056,0.1958,0.2296,0.252,0.2689,0.1902,0.1566,0.1624,0.1959,0.1904,0.157,0.196,0.2183,0.2293,0.2183,0.2183,0.0,0.235,0.235,0.2351,0.3021,0.3298,0.3408,0.4018,0.4351,0.4519,0.4625,0.4844,0.5226,0.5498,0.6046,0.6591,0.7023,0.7818,0.8666,0.9201,0.9569,0.9825,0.9766,0.9921,1.0075,1.0127,1.002,0.9917,1.0083,0.9725,0.92,0.8891,0.8123,0.7279,0.6512,0.587,0.5409,0.5343,0.5178,0.5323,0.6197,0.5725,0.5422,0.578,0.5152,0.5094,0.5996,0.6102,0.6248,0.6584,0.6349,0.6221,0.6255,0.5564,0.5178,0.5094,0.4703,0.4445,0.4366,0.4182,0.3873,0.3432,0.3345,0.3262,0.0,2.1946,2.2469,2.2654,2.2763,2.3046,2.3979,2.4286,0.0,2.5434,2.5653,2.5672,2.5606,2.5596,2.559,2.5521,2.556,2.56,2.56,2.1127,1.6277,1.198,1.2101,1.0598,0.5585,0.572,0.4069,-0.0886,-0.1065,-0.0841,-0.0617,-0.1961,-0.1621,0.0949,0.095,0.0951,0.1178,0.1064,0.1007,0.0897,0.1624,0.2014,0.2015,0.2521,0.2856,0.0,0.2856,0.2746,0.0,0.3021,0.2967,0.2802,0.3021,0.3408,0.3798,0.3798,0.4075,0.4462,0.4736,0.4844,0.4954,0.5279,0.5771,0.6475,0.7478,0.796,0.829,0.9295,0.9829,1.0091,0.9969,1.0032,1.0146,1.0297,0.998,0.9707,0.9934,0.9611,0.9134,0.8843,0.8029,0.7314,0.7052,0.6025,0.5424,0.5815,0.533,0.5243,0.6174,0.581,0.5588,0.574,0.5752,0.5752,0.5698,0.5315,0.5331,0.6019,0.6142,0.6181,0.6181,0.5397,0.4923,0.4801,0.4094,0.366,0.3622,0.3352,0.3126,0.3033,0.2953,0.3087,2.0339,0.0,2.0929,2.163,2.2347,2.3095,0.0,2.4686,2.5279,2.5479,2.5578,2.5615,2.5603,2.5642,2.5647,2.5593,2.559,2.5603,2.5605,2.1504,1.8079,1.7008,1.6987,1.3707,0.5204,0.7835,0.6515,-0.1966,-0.212,-0.1955,-0.2292,-0.3021,-0.2907,-0.1785,-0.1452,-0.0559,0.0953,0.0504,0.0448,0.0897,0.1567,0.1903,0.2015,0.2686,0.302,0.3074,0.3021,0.0,0.3246,0.3302,0.3302,0.3246,0.3416,0.3469,0.3524,0.3581,0.3694,0.3859,0.4133,0.4517,0.5007,0.5771,0.6374,0.6886,0.6913,0.7515,0.8318,0.8949,0.9263,0.942,0.9417,0.9417,0.9521,0.9873,0.9869,0.9794,0.9986,0.9678,0.9184,0.8653,0.8017,0.7372,0.6876,0.6306,0.5948,0.5838,0.5486,0.5433,0.6083,0.5788,0.5523,0.5545,0.5392,0.5179,0.492,0.5375,0.5988,0.663,0.6304,0.6087,0.6181,0.5348,0.4785,0.4663,0.414,0.3792,0.3656,0.3439,0.3306,0.317,0.3037,0.2948,2.0116,2.0326,2.0784,2.1732,2.2345,2.3045,2.4319,2.4763,2.5013,2.5383,2.5535,2.5597,2.5599,2.5332,2.5222,2.559,2.5309,2.5179,2.5548,2.344,2.1848,2.1818,2.1796,1.7908,0.0,0.9676,0.7258,-0.2611,-0.2901,-0.2736,-0.2905,-0.3527,-0.3357,-0.2231,-0.2237,-0.1511,0.0056,-0.0056,0.0112,0.0673,0.1176,0.1624,0.2126,0.2644,0.3061,0.322,0.3169,0.0,0.3308,0.3417,0.3449,0.3444,0.3606,0.3587,0.3527,0.3584,0.3694,0.3803,0.3967,0.4296,0.4844,0.5716,0.6211,0.6604,0.7006,0.7644,0.8274,0.8536,0.8944,0.926,0.9211,0.9258,0.9347,0.9546,0.9741,0.9895,0.9839,0.9665,0.934,0.8813,0.8211,0.759,0.7173,0.6606,0.6142,0.5965,0.5614,0.5456,0.5834,0.5908,0.59,0.5902,0.5827,0.5647,0.548,0.5779,0.6112,0.6535,0.6139,0.605,0.6431,0.5443,0.4797,0.4581,0.4054,0.3877,0.3963,0.3788,0.37,0.3609,0.3296,0.3036,2.0398,2.0828,2.1439,2.2153,2.2518,2.3123,2.4652,2.4648,2.4523,2.5244,2.5478,2.5564,2.559,2.5055,2.4842,2.5566,2.5068,2.4838,2.5519,2.5599,2.5575,2.5517,2.5502,0.0,1.1505,1.0841,0.6855,-0.3156,-0.3687,-0.3463,-0.3238,-0.3862,-0.358,-0.2005,-0.2404,-0.2129,-0.1065,-0.056,-0.0056,0.0505,0.0841,0.1453,0.2276,0.2657,0.3038,0.3369,0.0,0.0,0.3168,0.3422,0.3436,0.3322,0.36,0.3665,0.3586,0.3657,0.3828,0.4102,0.4179,0.4408,0.4792,0.5559,0.5828,0.6115,0.7215,0.7889,0.8263,0.8131,0.871,0.9372,0.9226,0.9324,0.9403,0.95,0.9743,0.9904,0.9744,0.955,0.9356,0.9027,0.8381,0.7796,0.7662,0.6905,0.6249,0.6122,0.5767,0.5515,0.5566,0.6063,0.6387,0.634,0.6447,0.648,0.6438,0.6145,0.6062,0.6224,0.601,0.6073,0.6618,0.5592,0.4928,0.4631,0.414,0.4052,0.4403,0.4312,0.4222,0.4134,0.3691,0.3355,2.114,2.1892,2.2374,2.1732,2.2647,2.3759,2.4049,2.4499,2.4959,0.0,2.5332,2.5402,2.5564,2.5549,2.5526,2.5597,2.5547,2.5543,2.5673,0.0,2.5536,2.5576,0.0,2.1283,1.0791,1.0071,0.5905,-0.467,-0.5071,-0.4737,-0.4622,-0.4631,-0.4301,-0.3629,-0.3411,-0.2854,-0.1903,-0.0896,-0.0,0.0841,0.14,0.1929,0.2469,0.3023,0.3281,0.3251,0.0,0.3261,0.3015,0.3066,0.303,0.301,0.3202,0.3347,0.3492,0.3855,0.4212,0.4546,0.4955,0.5342,0.5629,0.5736,0.6109,0.6494,0.6693,0.758,0.8482,0.8228,0.8721,0.929,0.9294,0.9303,0.9443,0.9898,0.98,0.9696,1.011,0.9393,0.8725,0.8876,0.8192,0.7599,0.7741,0.7239,0.664,0.6231,0.5988,0.5732,0.555,0.5979,0.626,0.6079,0.6313,0.6398,0.6105,0.6022,0.6147,0.6438,0.6522,0.6462,0.6271,0.5598,0.5243,0.5183,0.484,0.4755,0.4971,0.4923,0.4705,0.4364,0.4092,0.3943,2.0373,2.1541,2.2209,2.2211,2.3121,2.4109,2.4469,2.4501,2.4624,0.0,0.0,0.0,2.5566,2.5274,2.4986,2.4958,2.5369,2.5693,2.5648,2.5588,2.5547,0.0,0.0,1.9226,1.4232,0.885,0.3611,-0.1376,-0.39,-0.5183,-0.5126,-0.4853,-0.4524,-0.4136,-0.3637,-0.3132,-0.2516,-0.1457,-0.0336,0.0729,0.1795,0.2393,0.2625,0.2884,0.3167,0.3418,0.0,0.3416,0.331,0.3261,0.3201,0.3178,0.3178,0.3317,0.3513,0.4193,0.4329,0.4303,0.5369,0.5761,0.5819,0.6262,0.6704,0.7076,0.6949,0.7778,0.8595,0.8177,0.8742,0.9408,0.9089,0.9156,0.93,0.9223,0.9291,0.9393,0.9416,0.9007,0.8593,0.8473,0.8059,0.77,0.7691,0.7237,0.68,0.6473,0.6137,0.5856,0.5742,0.6376,0.6816,0.6703,0.7175,0.7255,0.6758,0.6719,0.655,0.6133,0.6554,0.6539,0.5963,0.5828,0.5689,0.5539,0.5147,0.5104,0.5412,0.5188,0.5014,0.4893,0.4725,0.4546,1.8973,2.0653,2.1894,2.2715,2.3352,2.3957,2.4697,2.4245,2.3918,2.481,0.0,0.0,2.5541,2.511,2.4626,2.4411,2.5113,2.5648,2.5593,2.5537,2.5037,2.3803,2.1087,1.7811,1.402,0.758,0.2617,0.0047,-0.341,-0.5464,-0.5622,-0.5128,-0.4853,-0.4787,-0.4241,-0.3795,-0.3454,-0.2514,-0.123,0.0336,0.2021,0.2797,0.2765,0.2875,0.3128,0.3567,0.3637,0.3609,0.3534,0.3396,0.3295,0.3287,0.3168,0.3303,0.3595,0.4245,0.4262,0.4116,0.5524,0.5824,0.5752,0.6608,0.7064,0.7281,0.7199,0.7791,0.8353,0.7933,0.8481,0.9191,0.8793,0.8916,0.8969,0.8514,0.8717,0.8929,0.8753,0.8559,0.8347,0.8143,0.7952,0.7792,0.7612,0.7156,0.6759,0.6555,0.6226,0.6008,0.5927,0.6806,0.7419,0.7373,0.7949,0.8066,0.7433,0.744,0.7092,0.6302,0.6715,0.6606,0.5763,0.6156,0.6174,0.5761,0.5534,0.5575,0.5933,0.558,0.541,0.5463,0.5319,0.5167,1.7148,1.9519,2.1913,2.2785,2.29,2.3041,2.396,2.3409,2.2965,2.3899,0.0,0.0,0.0,2.5598,2.5321,2.4453,2.504,2.5579,2.5515,0.0,2.3463,1.8731,2.1829,1.8699,0.4216,0.6472,0.4836,-0.4877,-0.5703,-0.6007,-0.6482,-0.5729,-0.5666,-0.6609,-0.5875,-0.5336,-0.515,-0.4551,-0.3002,-0.0503,0.1903,0.3036,0.2994,0.3292,0.3419,0.3434,0.3695,0.3654,0.3398,0.3124,0.3004,0.2949,0.2922,0.3216,0.3622,0.386,0.4138,0.4489,0.536,0.5555,0.5583,0.6421,0.6701,0.6698,0.7029,0.7286,0.75,0.7433,0.7843,0.8322,0.8401,0.844,0.8479,0.8472,0.8255,0.8122,0.8591,0.8102,0.7679,0.803,0.784,0.7607,0.7528,0.7006,0.6537,0.6268,0.6363,0.634,0.6028,0.7011,0.7731,0.7679,0.8039,0.8124,0.7708,0.7776,0.7805,0.7665,0.737,0.6751,0.5833,0.6531,0.666,0.6004,0.6121,0.6337,0.6641,0.6404,0.6193,0.5941,0.5734,0.5721,1.8177,2.0117,2.1166,2.2091,2.1796,0.0,0.0,2.3365,2.3133,2.4575,2.4458,0.0,0.0,2.4805,2.4709,2.436,2.4117,2.4146,2.462,2.1789,2.0128,2.1367,1.7774,1.4032,1.1022,0.9803,0.5928,-0.2038,-0.2082,-0.3374,-0.7191,-0.6848,-0.6679,-0.6937,-0.6411,-0.5925,-0.5588,-0.4888,-0.4012,-0.3015,-0.0947,0.0775,0.219,0.3269,0.3619,0.3438,0.3919,0.3889,0.3554,0.3113,0.3071,0.3243,0.3037,0.2873,0.2879,0.3548,0.3762,0.3855,0.4978,0.5345,0.548,0.6294,0.6811,0.7098,0.7095,0.7488,0.7802,0.7351,0.7536,0.7928,0.8118,0.8262,0.837,0.8318,0.8064,0.7907,0.8107,0.7884,0.7734,0.784,0.7743,0.7656,0.7686,0.7081,0.6667,0.6789,0.665,0.652,0.6553,0.7723,0.87,0.9086,0.9733,0.9872,0.9316,0.8907,0.8554,0.8129,0.7895,0.7478,0.6835,0.7084,0.7037,0.6568,0.6647,0.6855,0.7185,0.6486,0.6233,0.6441,0.6043,0.6013,1.7403,1.9622,2.0606,2.0966,0.0,0.0,2.2875,2.2653,2.2462,2.3964,2.399,2.3779,2.3873,0.0,0.0,0.0,2.3696,2.3495,2.3973,2.0653,1.8948,2.1092,1.5182,1.1008,1.1197,0.807,0.35,-0.2509,-0.2363,-0.3069,-0.5541,-0.6891,-0.686,-0.5406,-0.6483,-0.6948,-0.6671,-0.5921,-0.5309,-0.4727,-0.3398,-0.143,0.1169,0.2873,0.3583,0.3452,0.3816,0.3774,0.341,0.3053,0.3014,0.3164,0.2895,0.2599,0.2373,0.2964,0.3157,0.3277,0.4472,0.4918,0.5057,0.591,0.6599,0.702,0.6894,0.727,0.7626,0.7237,0.7334,0.765,0.8025,0.8142,0.8142,0.8077,0.7922,0.7773,0.7821,0.7821,0.7821,0.7773,0.7773,0.7788,0.7895,0.7388,0.7055,0.7361,0.7142,0.7014,0.7192,0.8361,0.9493,1.0298,1.0875,1.101,1.0561,1.0034,0.9536,0.9094,0.8878,0.8349,0.7458,0.7536,0.7341,0.6868,0.6956,0.7122,0.7402,0.6526,0.6276,0.6614,0.6178,0.6113,1.4093,1.7562,2.0329,1.9453,1.9867,0.0,2.1604,2.1069,2.0667,2.1613,2.244,2.3,2.2984,2.3688,0.0,2.3927,2.3936,2.3909,2.3704,2.279,2.0565,1.6353,1.5008,1.075,0.1376,-0.0175,-0.2783,-0.7909,-0.8165,-0.5925,-0.1158,-0.5498,-0.6167,-0.1918,-0.6217,-0.8623,-0.8623,-0.8134,-0.6989,-0.5217,-0.4964,-0.3169,0.0056,0.2127,0.3257,0.3475,0.3278,0.3102,0.2896,0.2881,0.2734,0.2487,0.234,0.2297,0.2283,0.2164,0.2375,0.2855,0.3846,0.4138,0.4282,0.5255,0.59,0.6295,0.6292,0.6488,0.6771,0.7095,0.7217,0.7374,0.8195,0.7996,0.7632,0.7794,0.7743,0.7749,0.7869,0.7893,0.7893,0.7893,0.7893,0.7955,0.8165,0.7909,0.7747,0.7882,0.7924,0.7887,0.793,0.8854,0.9958,1.116,1.1199,1.1115,1.1192,1.0967,1.0795,1.078,1.0338,0.9276,0.7513,0.7811,0.7584,0.6732,0.7034,0.7213,0.7216,0.6666,0.6413,0.6376,0.6136,0.597,1.3429,1.5845,1.7429,2.0371,2.0802,2.0734,0.0,2.1143,0.0,0.0,2.2439,2.2779,2.2075,2.2117,0.0,2.2777,2.2355,2.2142,2.2706,1.9322,1.7663,2.0018,1.366,0.8051,0.543,0.4888,0.07,-0.8991,-0.5816,-0.2949,-0.1731,-0.6632,-0.7068,-0.1964,-0.6352,-0.8677,-0.8324,-0.7351,-0.6174,-0.4931,-0.4066,-0.2623,-0.0649,0.0951,0.2183,0.3103,0.3283,0.3118,0.2748,0.2778,0.2591,0.2375,0.2515,0.2513,0.2439,0.2567,0.2769,0.3089,0.3381,0.3753,0.4102,0.4523,0.5218,0.5852,0.6183,0.6441,0.6764,0.7364,0.7511,0.7611,0.8119,0.8284,0.8308,0.8419,0.7987,0.7608,0.772,0.7744,0.7797,0.7869,0.7893,0.8038,0.8484,0.8086,0.7936,0.8577,0.8223,0.813,0.8736,0.9524,1.038,1.1323,1.1606,1.1604,1.1317,1.1069,1.0727,1.0212,0.9779,0.9286,0.8742,0.8437,0.7964,0.7273,0.7328,0.7412,0.7565,0.6784,0.6492,0.6608,0.5687,0.5363,1.1012,1.3745,1.5732,1.8506,1.9854,2.0653,2.1205,0.0,0.0,0.0,2.1671,2.1871,2.1556,2.1448,0.0,2.2212,2.1607,2.0564,1.9188,1.5965,1.4331,1.59,0.8543,0.3525,0.4009,0.1891,-0.2397,-0.9433,-0.6623,-0.3734,-0.1689,-0.6727,-0.7154,-0.1655,-0.6329,-0.8665,-0.8225,-0.7197,-0.6107,-0.5081,-0.4158,-0.2759,-0.104,0.0287,0.1522,0.264,0.285,0.2765,0.2526,0.2524,0.2432,0.2336,0.2521,0.2564,0.2543,0.2608,0.2884,0.3172,0.3159,0.343,0.3861,0.412,0.4771,0.5467,0.5908,0.6322,0.6743,0.7321,0.7512,0.7683,0.8046,0.8189,0.8353,0.8651,0.8196,0.7736,0.7918,0.7842,0.7773,0.7869,0.7961,0.8162,0.8582,0.8333,0.828,0.8892,0.863,0.8641,0.954,1.0072,1.0692,1.1576,1.1907,1.197,1.1758,1.1353,1.0927,1.044,0.9886,0.9514,0.9416,0.8624,0.804,0.7655,0.7454,0.737,0.7485,0.6562,0.6181,0.6298,0.5308,0.486,0.7754,1.1487,1.4666,1.5601,1.8246,2.0605,2.0523,2.0546,2.059,2.058,0.0,2.0578,2.1229,2.1305,2.1432,2.1979,2.1458,1.9306,1.4488,1.3162,1.1244,0.7269,0.1643,-0.16,-0.0792,-0.599,-0.9394,-0.9394,-0.8979,-0.6472,-0.1293,-0.5766,-0.6196,-0.1129,-0.6102,-0.868,-0.8249,-0.744,-0.6453,-0.5431,-0.489,-0.3438,-0.1137,-0.0,0.1114,0.2234,0.2216,0.2246,0.2307,0.2309,0.2304,0.2337,0.2409,0.253,0.2632,0.2495,0.2789,0.3181,0.303,0.3247,0.3621,0.3944,0.4468,0.5091,0.5508,0.6087,0.664,0.7008,0.7305,0.7636,0.8022,0.7999,0.8035,0.8671,0.8365,0.799,0.8175,0.8014,0.7821,0.7898,0.8121,0.8399,0.8651,0.8749,0.8864,0.9138,0.9172,0.9448,1.0239,1.0499,1.0931,1.1744,1.1959,1.2077,1.2289,1.1661,1.1199,1.1121,1.0331,0.9789,0.9606,0.857,0.7953,0.7916,0.7461,0.7213,0.7171,0.6212,0.5739,0.5741,0.4939,0.4512,0.7809,1.0054,1.1994,1.9515,2.1493,2.1415,2.0665,2.051,2.0488,2.0391,2.0298,2.023,2.0184,2.0153,2.0348,2.1008,2.0965,1.9182,1.4463,1.3642,1.1853,0.7326,0.1643,-0.16,-0.0792,-0.599,-0.9394,-0.9394,-0.6174,-0.3281,-0.1128,-0.3017,-0.3153,-0.0925,-0.5927,-0.8379,-0.783,-0.7277,-0.6255,0.0,-0.4949,-0.3651,-0.1099,-0.0,0.1218,0.2455,0.237,0.243,0.2535,0.238,0.2386,0.2548,0.2766,0.2969,0.3072,0.2965,0.301,0.3093,0.2834,0.2973,0.324,0.3427,0.3914,0.4532,0.4966,0.5351,0.5874,0.6891,0.7193,0.7471,0.8572,0.8593,0.8454,0.8931,0.8159,0.7346,0.7542,0.7749,0.7869,0.7893,0.8616,0.9299,0.9505,0.9851,1.0154,1.0396,1.0394,1.0475,1.0672,1.0715,1.0892,1.1291,1.1386,1.1439,1.1544,1.105,1.0711,1.0587,1.0045,0.9726,0.9681,0.8933,0.8353,0.7983,0.7708,0.7416,0.7027,0.6295,0.6044,0.6242,0.5051,0.4571,0.2583,0.6228,1.0669,1.9617,2.1852,2.1614,2.0706,2.0483,2.0398,2.0192,2.0185,2.0119,1.9857,1.9769,1.9123,1.7185,1.6871,1.445,0.7501,0.6528,0.4795,0.0068,-0.3322,-0.5123,-0.4704,-0.7419,-0.921,-0.921,-0.7054,-0.4444,-0.146,-0.4094,-0.428,-0.1193,-0.577,-0.8,-0.7478,-0.7048,-0.6158,-0.4836,-0.492,-0.3674,-0.129,0.0312,0.1431,0.2186,0.2446,0.2575,0.2621,0.2501,0.2525,0.2713,0.2833,0.3079,0.3288,0.3137,0.3127,0.3147,0.2891,0.2935,0.3135,0.3426,0.3809,0.4255,0.4806,0.5165,0.5562,0.6166,0.6575,0.6991,0.7492,0.7646,0.7722,0.7961,0.7678,0.744,0.7577,0.7657,0.7764,0.7989,0.8753,0.9458,0.9831,1.0317,1.073,1.1009,1.089,1.089,1.1153,1.1084,1.1201,1.159,1.1473,1.1431,1.1579,1.1207,1.0873,1.0802,1.0317,1.0054,1.0054,0.9496,0.8886,0.8267,0.7787,0.7454,0.7196,0.664,0.6358,0.6287,0.5376,0.5042,-0.2324,0.3646,1.1008,1.7772,2.0543,2.1402,2.0648,2.0435,2.0332,2.0078,2.0095,2.0068,1.9812,1.9722,1.8128,1.3367,1.2603,0.9318,-0.0066,-0.0743,-0.2008,-0.6699,-0.76,-0.787,-0.787,-0.8627,-0.9092,-0.9092,-0.8405,-0.6507,-0.3101,-0.6025,-0.623,-0.2848,-0.6273,-0.7908,-0.7412,-0.7088,-0.6404,-0.5354,-0.4908,-0.3669,-0.1731,0.0223,0.1341,0.1697,0.2236,0.249,0.2466,0.2596,0.2715,0.2762,0.2854,0.3129,0.3411,0.3188,0.3162,0.3227,0.2973,0.2946,0.31,0.3549,0.3744,0.3939,0.4576,0.4981,0.5221,0.5252,0.5786,0.6299,0.6203,0.6411,0.6695,0.6859,0.7275,0.7678,0.7784,0.7743,0.7799,0.8237,0.8947,0.9654,1.0224,1.0746,1.1191,1.1499,1.1314,1.1303,1.1721,1.1653,1.1689,1.2108,1.1915,1.1799,1.1945,1.161,1.1356,1.1292,1.0829,1.0567,1.0611,1.016,0.9555,0.8803,0.8071,0.7701,0.7739,0.7293,0.6981,0.6668,0.6155,0.5819,0.0899,0.8104,1.4642,1.5174,1.8052,2.0695,2.0468,0.0,2.0337,0.0,2.0011,1.9885,1.9677,1.9615,1.8067,1.3364,1.2603,0.9318,-0.0066,0.1916,0.2585,-0.2034,-0.3006,-0.3285,-0.3285,-0.7071,-0.9505,-0.9505,-0.5985,-0.5108,-0.811,-0.5398,-0.5131,-0.8071,-0.8785,-0.8788,-0.8166,-0.8047,-0.7419,-0.628,-0.4926,-0.3714,-0.2583,-0.1336,-0.0089,0.1029,0.1433,0.1573,0.1631,0.2523,0.2775,0.2648,0.3088,0.3373,0.3515,0.3227,0.3093,0.307,0.2815,0.2723,0.2803,0.3084,0.319,0.3275,0.361,0.3908,0.4196,0.4607,0.495,0.5482,0.6637,0.6538,0.6316,0.7139,0.7392,0.7492,0.7757,0.8148,0.8515,0.869,0.9739,1.08,1.1525,1.2008,1.2324,1.2478,1.2478,1.2478,1.2556,1.252,1.2484,1.2437,1.2395,1.2318,1.2168,1.1915,1.1737,1.1737,1.1394,1.1239,1.1367,1.0954,1.0454,0.9906,0.918,0.8935,0.9219,0.8584,0.8429,0.8671,0.7899,0.7339,-0.0038,0.4505,0.8947,1.3122,1.3789,1.4605,1.9133,1.8466,1.7454,1.9561,2.0031,1.9983,1.9704,1.7474,1.4129,0.9439,0.8583,0.6143,-0.0618,0.2248,0.4272,0.2256,-0.0621,-0.2484,-0.2712,-0.6886,-0.9702,-0.9991,-0.8236,-0.6698,-0.5714,-0.6683,-0.6734,-0.5581,-0.8077,-0.9146,-0.8574,-0.85,-0.7844,-0.6586,-0.4969,-0.3714,-0.2763,-0.2096,-0.0937,0.0537,0.1119,0.1418,0.143,0.1737,0.2015,0.2251,0.2555,0.2823,0.3061,0.3093,0.3069,0.2983,0.2852,0.2752,0.2761,0.3086,0.3188,0.3226,0.353,0.3789,0.3988,0.417,0.4581,0.5122,0.5683,0.5868,0.604,0.6399,0.6905,0.7405,0.7827,0.8304,0.8857,0.9467,1.0441,1.1367,1.1917,1.2365,1.2627,1.2703,1.2709,1.2709,1.2709,1.2709,1.2668,1.2627,1.2354,1.2132,1.2024,1.1836,1.1616,1.1479,1.1547,1.1436,1.1062,1.1173,1.1002,1.0553,0.9721,0.922,0.9044,0.8965,0.9022,0.9203,0.8862,0.8799,-0.2326,0.0961,0.4469,0.9523,1.0109,1.1005,1.7078,0.0,1.5185,0.0,2.0068,2.0086,1.9869,1.5888,1.1103,0.6372,0.5408,0.3653,-0.1027,0.3084,0.6572,0.6572,0.2277,-0.0848,-0.1269,-0.6455,-0.9947,-1.0404,-1.0515,-0.8843,-0.4969,-0.8573,-0.8862,-0.4829,-0.8008,-0.9588,-0.9146,-0.8878,-0.8058,-0.668,-0.5449,-0.4107,-0.2807,-0.2544,-0.1563,-0.0,0.0627,0.0895,0.0936,0.0989,0.1221,0.1582,0.2029,0.2384,0.2656,0.2929,0.3,0.2903,0.2866,0.2776,0.2733,0.3055,0.3115,0.3135,0.3366,0.3653,0.3861,0.3826,0.4301,0.4858,0.4947,0.5324,0.5721,0.5812,0.6496,0.7332,0.8127,0.8701,0.9262,1.0045,1.0825,1.1479,1.1889,1.23,1.2597,1.2668,1.2597,1.2556,1.2633,1.2556,1.252,1.2597,1.2252,1.2024,1.1982,1.1763,1.1584,1.1367,1.1547,1.1485,1.1072,1.1478,1.1525,1.1188,1.0496,0.9961,0.9596,0.9805,0.9966,0.9992,1.0031,1.0293,-0.5225,0.0768,0.595,0.3074,0.8132,1.3922,1.4166,0.0,1.5107,1.9316,2.0085,2.004,2.0147,1.6135,1.1208,0.638,0.5372,0.3589,-0.1062,0.5725,1.1163,1.1163,0.6905,0.3769,0.3296,-0.4951,-1.0438,-1.0848,-1.0881,-1.0677,-1.0213,-1.0748,-1.0797,-1.0213,-1.0479,-1.0452,-1.004,-0.9212,-0.8103,-0.6683,-0.6595,-0.5242,-0.2807,-0.2763,-0.201,-0.0629,-0.0627,-0.0493,-0.0269,0.0428,0.0671,0.0667,0.1832,0.2426,0.2606,0.2824,0.2917,0.2888,0.2742,0.2721,0.2716,0.2723,0.2719,0.2714,0.2756,0.3113,0.353,0.353,0.3921,0.4524,0.5261,0.53,0.5263,0.5783,0.6405,0.7311,0.883,0.9549,0.9958,1.0084,1.0557,1.1067,1.1479,1.1847,1.2258,1.2633,1.2377,1.2216,1.2473,1.2174,1.206,1.2371,1.2377,1.233,1.2204,1.1951,1.1774,1.1774,1.1505,1.1551,1.2,1.2115,1.2095,1.1972,1.1937,1.1969,1.2008,1.1992,1.1945,1.194,1.1774,1.1697,-0.603,-0.3656,-0.1042,0.1109,0.1746,0.3967,1.1948,1.1809,1.1893,1.8683,2.02,2.0228,1.9933,1.3582,0.8732,0.9794,0.718,0.5414,0.6618,1.198,1.5792,1.5792,0.9217,0.4517,0.4091,-0.4378,-1.003,-1.0482,-1.0843,-1.0924,-1.0741,-1.1071,-1.1109,-1.0741,-1.0888,-1.0659,-1.0054,-0.9532,-0.8663,-0.754,-0.6969,-0.5762,-0.4065,-0.3465,-0.254,-0.1387,-0.1208,-0.0807,-0.0224,0.03,0.0799,0.1332,0.1735,0.2128,0.2482,0.2712,0.2764,0.2769,0.2813,0.2764,0.2712,0.29,0.2872,0.2766,0.2831,0.3064,0.3337,0.3464,0.3791,0.4234,0.4772,0.5016,0.5299,0.6034,0.6647,0.7316,0.8379,0.9357,1.0019,1.0083,1.0539,1.0959,1.1105,1.1436,1.1774,1.1926,1.1816,1.1737,1.1847,1.1957,1.2071,1.2186,1.2144,1.206,1.2024,1.1799,1.1584,1.1442,1.1726,1.1912,1.198,1.2293,1.263,1.2946,1.2944,1.2468,1.155,1.1877,1.2272,1.2745,1.3009,1.3333,-0.6839,-0.5523,-0.3927,-0.1506,-0.1918,-0.0373,0.9398,0.9589,1.0064,1.8392,2.024,2.0262,1.9936,1.3481,0.9147,1.1962,0.9548,0.8282,1.118,1.5411,1.8211,1.8211,1.1644,0.6953,0.6558,-0.1956,-0.7621,-0.8073,-0.9999,0.0,-1.0899,-1.1223,-1.1266,-1.0899,-1.1007,-1.0703,-1.0024,-0.9774,-0.9106,-0.7982,-0.7415,-0.6307,-0.4801,-0.4156,-0.3241,-0.2096,-0.1429,-0.0806,-0.0224,0.0131,0.0895,0.1837,0.1964,0.2195,0.2482,0.2758,0.2829,0.2842,0.2944,0.2913,0.2852,0.3002,0.2953,0.2838,0.2818,0.3,0.3208,0.3434,0.3761,0.4155,0.4649,0.5025,0.5447,0.6122,0.6672,0.7264,0.7956,0.9023,0.9892,1.0049,1.039,1.0731,1.0883,1.1105,1.1324,1.1473,1.1473,1.1473,1.159,1.1811,1.2035,1.2102,1.206,1.2018,1.206,1.1794,1.1542,1.1404,1.1726,1.1912,1.194,1.2417,1.2974,1.3503,1.3605,1.3203,1.2223,1.2643,1.311,1.3575,1.4043,1.4642,0.0,0.0,0.0,-0.509,-0.2457,0.2071,0.6471,0.0,0.9867,1.8522,2.0182,2.0089,2.017,1.626,1.2957,1.2746,1.2321,1.1998,1.1992,1.5572,1.8211,1.8211,1.4223,1.1357,1.0947,0.2479,-0.3132,-0.3548,-0.8155,-1.0977,-1.0881,-1.1228,-1.1303,-1.1121,-1.0997,-1.0621,-1.0019,-1.0019,-0.9355,-0.8068,-0.8024,-0.6919,-0.4885,-0.4842,-0.4109,-0.2762,-0.1335,-0.0581,-0.0404,-0.0135,0.0832,0.2107,0.2444,0.2619,0.2665,0.2967,0.3082,0.3082,0.3087,0.3085,0.3062,0.2966,0.292,0.2888,0.2734,0.2883,0.3146,0.3442,0.3796,0.4258,0.4956,0.5378,0.5679,0.5934,0.6523,0.712,0.7602,0.8619,0.9567,0.9941,1.0171,1.0433,1.0807,1.0883,1.1029,1.1404,1.1356,1.1388,1.1737,1.178,1.1915,1.2168,1.221,1.2282,1.2407,1.1915,1.1684,1.1811,1.1505,1.1529,1.2014,1.2601,1.3133,1.3608,1.403,1.4264,1.4351,1.4468,1.4549,1.4549,1.4892,1.5616,-0.7244,0.0,0.0,0.0,0.0,0.0,0.0,0.0,0.8115,1.822,1.9808,1.949,1.984,1.8905,1.7945,1.7561,1.4443,1.3145,1.6214,1.7668,1.8363,1.8232,1.4223,1.1465,1.1351,0.5818,0.2179,0.0,-0.29,-0.5892,-0.5833,-0.9257,-1.1266,-1.1303,-1.1147,-1.0909,-1.0654,-1.0278,-0.9843,-0.9439,-0.8476,-0.7683,-0.7044,-0.5522,-0.4582,-0.4107,-0.1818,-0.0758,-0.058,-0.0179,0.0624,0.1668,0.2345,0.2884,0.3292,0.3166,0.3082,0.3097,0.3207,0.3174,0.3093,0.3124,0.3037,0.2892,0.2745,0.2874,0.3189,0.361,0.4125,0.4672,0.537,0.5792,0.5988,0.59,0.6518,0.7243,0.7686,0.8419,0.9191,0.9858,1.0201,1.0423,1.0534,1.0534,1.0572,1.0687,1.0797,1.0905,1.0981,1.1505,1.1915,1.1982,1.233,1.2597,1.2597,1.2395,1.2282,1.2282,1.218,1.2301,1.2773,1.3087,1.3667,1.4528,1.4659,1.4858,1.5187,1.5124,1.5203,1.5466,1.6427,1.7018,-0.7904,-0.8316,0.0,0.0,0.0,0.0,0.1113,0.4052,0.7431,0.0,1.8198,1.8879,1.7189,1.8514,1.9091,1.6774,1.5686,1.5956,1.8307,1.8544,1.8423,1.8223,1.4029,1.1178,1.1217,0.4902,0.0788,0.0788,-0.4101,-0.7068,-0.7005,-0.9753,-1.1341,-1.1389,-1.1282,-1.1104,-1.0916,-1.0572,-1.0278,-0.998,-0.9062,-0.8399,-0.7889,-0.5235,-0.3866,-0.3442,-0.0344,0.0652,-0.0,0.0044,0.0623,0.143,0.1917,0.2679,0.3451,0.3222,0.3143,0.3156,0.3241,0.3214,0.3148,0.3135,0.3048,0.2919,0.278,0.2993,0.3359,0.3729,0.4451,0.5262,0.5987,0.6339,0.645,0.6323,0.6845,0.749,0.7867,0.8407,0.9026,0.9858,1.0162,1.0307,1.0385,1.038,1.038,1.038,1.0715,1.0938,1.0938,1.1647,1.2168,1.2246,1.255,1.2739,1.2774,1.2656,1.2591,1.2615,1.2556,1.2729,1.3131,1.3706,1.4375,1.5154,1.5538,1.599,1.6459,1.5958,1.6039,1.6714,1.7348,1.792,-0.92,0.0,0.0,0.0,0.0,0.0,-0.3178,0.1442,0.6075,0.0,1.4753,1.683,1.3276,1.5566,1.6824,1.3283,1.5591,1.8049,1.8699,1.8172,1.7619,1.7433,1.2939,0.9906,0.9957,0.1927,-0.329,-0.329,-0.7886,-1.0677,-1.0714,-1.1233,-1.1255,-1.0666,-1.1137,-1.126,-1.0964,-1.0406,-1.015,-1.0093,-0.9226,-0.8579,-0.8131,-0.494,-0.3162,-0.2427,0.154,0.2364,0.0857,0.0562,0.0791,0.1298,0.1518,0.2279,0.3364,0.3219,0.3216,0.326,0.3216,0.3214,0.3196,0.304,0.3003,0.2977,0.2843,0.3147,0.3642,0.41,0.4995,0.599,0.667,0.6954,0.6997,0.7019,0.7336,0.7772,0.8154,0.8554,0.907,0.9858,1.0054,1.0196,1.038,1.0418,1.0418,1.038,1.0943,1.1314,1.1314,1.2018,1.2585,1.2709,1.2809,1.2873,1.2937,1.2809,1.2774,1.2873,1.2809,1.2961,1.3345,1.4385,1.5178,1.5585,1.6502,1.7229,1.7747,1.6889,1.7021,1.8068,1.803,1.8589,0.0,0.0,0.0,0.0,0.0,0.0,-0.5129,-0.4251,-0.2593,0.0,0.5936,0.7225,1.0856,0.9892,1.0171,1.5102,1.1442,1.0513,1.7787,1.5278,1.2635,1.2423,0.7871,0.4743,0.4775,0.2987,0.1841,0.1841,-0.2724,-0.5659,-0.5934,-0.9488,-0.9773,-0.6035,-0.949,-1.1384,-1.1303,-0.7378,-0.7199,-1.0677,-0.644,-0.6263,-0.9558,-0.7798,-0.6943,-0.6543,-0.1459,0.0417,0.0083,0.1534,0.1573,0.0805,0.2102,0.3044,0.3674,0.3306,0.3437,0.3704,0.3347,0.3214,0.3165,0.3052,0.2999,0.2975,0.2852,0.3259,0.4137,0.5727,0.6365,0.6671,0.7148,0.7489,0.7568,0.71,0.7468,0.8043,0.8492,0.8795,0.9172,0.9862,1.0132,1.0273,1.038,1.05,1.05,1.0418,1.1024,1.1473,1.1473,1.2144,1.2697,1.2832,1.3019,1.3129,1.3123,1.3129,1.3192,1.335,1.3263,1.3556,1.4361,1.5028,1.5664,1.6205,1.6745,1.716,1.7544,1.7619,1.7968,1.8581,1.9416,2.0014,0.0,0.0,0.0,-1.2704,0.0,0.0,0.0,-0.7527,-0.4954,-0.1409,0.1143,0.2999,0.3822,0.4426,0.5305,0.6871,0.7591,0.8768,1.1172,0.9169,0.7398,0.719,0.27,-0.0406,-0.0406,-0.2622,-0.3138,-0.0804,-0.3169,-0.3648,-0.125,-0.5732,-0.6149,-0.1251,-0.333,-0.4495,-0.4465,-0.2045,-0.1914,-0.4026,-0.1273,-0.2291,-0.646,-0.1811,-0.2053,-0.5754,0.0713,0.1977,-0.0501,0.0889,0.065,-0.0312,0.2275,0.3447,0.367,0.3398,0.3481,0.3699,0.3478,0.3258,0.3041,0.2951,0.3124,0.3285,0.322,0.3792,0.4798,0.6495,0.6938,0.7053,0.7682,0.8066,0.8193,0.7697,0.8032,0.8525,0.8809,0.8975,0.9257,0.9902,1.0098,1.0205,1.038,1.0462,1.0539,1.0649,1.0911,1.1244,1.1653,1.2144,1.2585,1.2949,1.3301,1.3512,1.3512,1.356,1.3648,1.3742,1.3656,1.3893,1.4533,1.5512,1.6552,1.7646,1.7718,1.7915,1.8187,1.839,1.8539,1.8672,1.9598,2.0344,0.0,0.0,0.0,0.0,0.0,-1.3613,0.0,0.0,0.0,0.0,0.0,0.0,0.0,0.0,0.0,-0.1519,0.0,0.0,0.0,0.1536,0.0,0.3124,-0.0344,-0.2841,-0.2841,-0.6615,-0.7435,-0.3545,-0.3731,-0.218,0.2047,-0.1588,-0.1959,0.2145,0.2354,0.2432,0.2474,0.3358,0.344,0.2742,0.3039,0.0899,-0.3168,0.2456,0.1212,-0.492,0.1946,0.2506,-0.1332,-0.0168,-0.0257,-0.0832,0.1995,0.326,0.3435,0.3396,0.3612,0.3827,0.3651,0.3349,0.3,0.2912,0.3173,0.3609,0.3827,0.4476,0.5513,0.692,0.7346,0.7513,0.8244,0.8622,0.8683,0.8324,0.8582,0.8952,0.9024,0.9141,0.9381,0.9862,0.9902,0.9971,1.0307,1.0385,1.0495,1.0731,1.0725,1.0943,1.1573,1.1987,1.2389,1.2873,1.3397,1.3714,1.3748,1.3888,1.4006,1.4065,1.4032,1.4244,1.483,1.6208,1.7574,1.8884,1.862,1.8627,1.8836,1.8707,1.8707,1.8777,1.9514,2.0234,0.0,0.0,0.0,0.0,-1.4465,0.0,0.0,0.0,-1.3692,-1.2575,0.0,0.0,0.0,0.0,0.0,0.0,0.0,0.0,-0.3861,-0.6813,-0.6111,0.2382,0.2378,0.1668,0.1668,0.0575,0.035,0.1511,0.0953,0.0905,0.1731,0.1614,0.1618,0.1766,0.2198,0.2393,0.2396,0.6465,0.6516,0.2547,0.2697,0.0407,-0.4011,-0.6745,-0.848,-0.9094,-0.4806,-0.307,-0.3112,-0.0696,0.0416,0.0671,0.1183,0.1952,0.2831,0.3254,0.4007,0.47,0.3869,0.348,0.3265,0.2864,0.3041,0.3614,0.4572,0.5374,0.6204,0.7401,0.8158,0.8659,0.8857,0.9039,0.9007,0.8411,0.863,0.902,0.9141,0.931,0.9554,0.9783,0.9567,0.9558,1.0196,1.0351,1.0341,1.0196,1.0577,1.0878,1.0829,1.1579,1.218,1.2378,1.3029,1.3493,1.3621,1.3801,1.404,1.4358,1.4358,1.4967,1.6389,1.7616,1.8471,1.8898,1.862,1.851,1.8549,1.8088,1.8351,1.9332,1.9889,2.0346,0.0,0.0,0.0,0.0,0.0,0.0,-1.5125,0.0,-1.4779,0.0,0.0,0.0,0.0,0.0,0.0,0.0,-0.6424,0.0,0.0,0.0,-0.2547,-0.0968,0.0,0.0,0.1672,0.4003,0.5823,0.6911,0.5718,0.6616,1.0444,0.7312,0.6845,0.9945,0.9898,1.002,1.0404,0.967,0.8349,0.641,0.3785,0.0168,-0.4125,-0.3225,-0.5508,-0.9948,-0.5568,-0.4677,-0.6173,-0.4776,-0.3676,-0.2778,-0.1703,0.0132,0.2215,0.24,0.3114,0.3915,0.352,0.317,0.295,0.3388,0.3654,0.4091,0.5564,0.6076,0.6489,0.8064,0.8484,0.861,0.9146,0.9408,0.9341,0.8841,0.9011,0.9315,0.935,0.9519,0.9634,0.9783,0.9532,0.9399,0.976,0.9908,1.0025,1.0351,1.0395,1.0505,1.0829,1.1132,1.1499,1.2079,1.292,1.355,1.3762,1.4605,1.5141,1.5161,1.5133,1.5541,1.6384,1.6725,1.7441,1.8651,1.7883,1.7692,1.8225,1.7492,1.7362,1.7849,1.8274,1.8605,-1.4197,0.0,0.0,0.0,0.0,0.0,0.0,0.0,0.0,0.0,0.0,0.0,0.0,0.0,0.0,0.0,0.0,-0.7829,0.0,-0.5332,0.0,0.0,0.0,0.0,0.0,0.8074,1.029,1.1608,1.0276,1.098,1.4594,1.1688,1.1182,1.3955,1.4968,1.5695,1.6194,1.1618,0.9305,0.9229,0.3304,-0.1223,-0.4254,-0.2185,-0.4618,-1.0258,-0.6697,-0.65,-0.8663,-0.8016,-0.7054,-0.5839,-0.439,-0.2018,0.0708,0.1241,0.2131,0.3027,0.2897,0.2678,0.2636,0.3693,0.4045,0.4389,0.6161,0.668,0.6965,0.8638,0.9009,0.9044,0.9741,0.9887,0.9823,0.9452,0.9501,0.9639,0.9639,0.9681,0.9753,0.9946,0.9663,0.9523,0.9853,0.9744,0.9746,1.0186,1.0088,1.0127,1.0572,1.0712,1.1005,1.1643,1.2625,1.3419,1.3823,1.4835,1.5515,1.5572,1.5882,1.6109,1.6241,1.6238,1.6899,1.832,1.7441,1.7256,1.7906,1.709,1.6563,1.6257,1.6827,1.717,0.0,0.0,0.0,-1.6289,0.0,0.0,0.0,0.0,-1.5897,0.0,0.0,0.0,0.0,0.0,0.0,0.0,0.0,0.0,0.0,0.0,0.0,0.0,0.0,0.0,0.0,1.4209,1.3895,0.0,1.45,1.249,0.9067,1.3284,1.3671,0.8981,1.3544,1.6108,1.6194,1.1618,0.9305,0.9188,-0.0,-0.4367,-0.4549,-0.8743,-1.0747,-1.084,-1.0181,-0.9889,-0.9858,-0.8882,-0.7867,-0.6877,-0.6189,-0.4446,-0.2124,-0.0177,0.1458,0.2649,0.2218,0.2138,0.25,0.3556,0.3907,0.4254,0.6115,0.7175,0.7982,0.9058,0.9841,1.0413,1.0824,1.0682,1.038,1.038,1.0162,0.9985,0.9985,0.9876,0.9933,1.0312,1.0079,1.003,1.0843,1.0127,0.9483,0.9359,0.9611,0.9783,0.9758,1.0474,1.0992,1.1033,1.1975,1.2941,1.3639,1.4004,1.4494,1.5271,1.6302,1.6732,1.641,1.7117,1.7695,1.8,1.7709,1.7583,1.7597,1.6988,1.6153,1.5188,1.6236,1.6733,0.0,0.0,-1.7797,-1.759,0.0,0.0,0.0,0.0,0.0,0.0,0.0,0.0,0.0,0.0,0.0,0.0,0.0,0.0,0.0,0.0,0.0,0.0,0.0,0.0,0.0,0.0,0.0,0.0,1.4939,0.0,1.416,1.5004,1.4892,1.3551,1.48,1.4255,1.166,0.7059,0.3173,0.0033,-0.6137,-0.911,-0.9151,-1.0549,-1.1136,-1.1093,-1.0774,-1.0428,-1.0049,-0.9651,-0.8735,-0.748,-0.689,-0.5527,-0.3677,-0.2077,-0.0575,0.0621,0.0488,0.0845,0.1687,0.3607,0.4233,0.4822,0.8033,0.8797,0.8774,0.988,1.0205,1.021,1.0307,1.0259,1.0171,1.0162,0.9848,0.96,0.9826,1.003,1.0202,1.0338,1.028,1.029,1.0561,1.0383,1.0286,1.0419,1.0354,1.0363,1.0468,1.0736,1.1037,1.13,1.2017,1.2621,1.3054,1.3923,1.4734,1.5388,1.5764,1.6016,1.6143,1.6414,1.6807,1.7381,1.7121,1.7093,1.7255,1.646,1.5834,1.5514,1.5459,1.5263,-1.5645,-1.7194,0.0,-1.8245,-1.8065,0.0,-1.6624,0.0,-1.6776,0.0,0.0,0.0,0.0,0.0,0.0,0.0,0.0,0.0,0.0,-1.165,0.0,0.0,0.0,0.0,0.0,0.9509,0.9724,1.1209,1.1859,0.0,0.0,0.0,1.5679,1.6017,1.571,1.4372,1.1966,0.5747,0.1126,-0.1957,-0.8151,-1.1217,-1.1368,-1.1047,-1.0893,-1.0851,-1.0543,-1.0158,-0.9748,-0.9621,-0.8905,-0.7833,-0.7283,-0.6225,-0.4867,-0.3456,-0.2042,-0.0802,-0.049,-0.0045,0.0885,0.3519,0.4389,0.5134,0.9033,0.9818,0.9559,1.0552,1.0677,1.0475,1.0385,1.022,1.0084,0.9991,0.9662,0.9425,0.9631,1.0083,1.0445,1.0521,1.0687,1.0839,1.0975,1.0998,1.0949,1.0808,1.0776,1.0827,1.0913,1.1035,1.1222,1.1453,1.1998,1.2434,1.2837,1.3812,1.4572,1.5022,1.5417,1.5599,1.5569,1.6064,1.6523,1.7036,1.7029,1.7114,1.727,1.6452,1.5965,1.5737,1.5188,1.4735]},{"header":{"parameterUnit":"m.s-1","parameterCategory":1,"la1":30.6,"la2":29.2853,"lo1":-89.7004,"lo2":-87.6739,"dy":0.0162,"dx":0.0183,"nx":112,"ny":82,"refTime":"2025-05-22T06:00:00:Z","depth":0,"parameterNumber":3,"parameterNumberName":"V-component_of_WINDS"},"data":[0.0,0.0,0.0,0.0,0.0,0.0,0.0,0.0,0.0,0.0,0.0,0.0,0.0,0.0,0.0,0.0,0.0,0.0,0.0,0.0,0.0,0.0,0.0,0.0,0.0,0.0,0.0,0.0,0.0,0.0,0.0,0.0,0.0,0.0,0.0,0.0,0.0,0.0,0.0,0.0,0.0,0.0,0.0,0.0,0.0,0.0,0.0,0.0,0.0,0.0,0.0,0.0,0.0,0.0,0.0,0.0,0.0,0.0,0.0,0.0,0.0,0.0,0.0,0.0,0.0,0.0,0.0,0.0,0.0,0.0,0.0,0.0,0.0,0.0,0.0,0.0,0.0,0.0,0.0,0.0,0.0,0.0,0.0,0.0,0.0,0.0,0.0,0.0,0.0,0.0,-1.7938,-1.8014,-1.8687,-1.9122,-1.911,-1.8986,-1.8892,-1.8851,0.0,0.0,0.0,0.0,0.0,0.0,0.0,0.0,0.0,0.0,0.0,0.0,0.0,0.0,0.0,0.0,0.0,0.0,0.0,0.0,0.0,0.0,0.0,0.0,0.0,0.0,0.0,0.0,0.0,0.0,0.0,0.0,0.0,0.0,0.0,0.0,0.0,0.0,0.0,0.0,0.0,0.0,0.0,0.0,0.0,0.0,0.0,0.0,0.0,0.0,0.0,0.0,0.0,0.0,0.0,0.0,0.0,0.0,0.0,0.0,0.0,0.0,0.0,0.0,0.0,0.0,0.0,0.0,0.0,0.0,0.0,0.0,0.0,0.0,0.0,0.0,0.0,0.0,0.0,0.0,0.0,0.0,0.0,0.0,0.0,0.0,0.0,0.0,0.0,0.0,0.0,0.0,0.0,0.0,0.0,0.0,0.0,0.0,0.0,0.0,0.0,0.0,0.0,0.0,-1.7173,-1.7632,-1.8332,-1.8744,-1.8706,-1.8328,-1.8246,-1.8625,0.0,0.0,0.0,0.0,0.0,0.0,0.0,0.0,0.0,0.0,0.0,0.0,0.0,0.0,0.0,0.0,0.0,0.0,0.0,0.0,0.0,0.0,0.0,0.0,0.0,0.0,0.0,0.0,0.0,0.0,0.0,0.0,0.0,0.0,0.0,0.0,0.0,0.0,0.0,0.0,0.0,0.0,0.0,0.0,0.0,0.0,0.0,0.0,0.0,0.0,0.0,0.0,0.0,0.0,0.0,0.0,0.0,0.0,0.0,0.0,0.0,0.0,0.0,0.0,0.0,0.0,0.0,0.0,0.0,0.0,0.0,0.0,0.0,0.0,0.0,0.0,0.0,0.0,0.0,0.0,0.0,0.0,0.0,0.0,0.0,0.0,0.0,0.0,0.0,0.0,0.0,0.0,0.0,0.0,0.0,0.0,0.0,0.0,0.0,0.0,0.0,0.0,0.0,-1.7366,-1.7327,-1.7872,-1.8307,-1.8566,-1.8496,-1.8823,-1.8905,-1.8613,-1.9011,0.0,0.0,0.0,0.0,0.0,0.0,0.0,0.0,0.0,0.0,0.0,0.0,0.0,0.0,0.0,0.0,0.0,0.0,0.0,0.0,0.0,0.0,0.0,0.0,0.0,0.0,0.0,0.0,0.0,0.0,0.0,0.0,0.0,0.0,0.0,0.0,0.0,0.0,0.0,0.0,0.0,0.0,0.0,0.0,0.0,0.0,0.0,0.0,0.0,0.0,0.0,0.0,0.0,0.0,0.0,0.0,0.0,0.0,0.0,0.0,0.0,0.0,0.0,0.0,0.0,0.0,0.0,0.0,0.0,0.0,0.0,0.0,0.0,0.0,0.0,0.0,0.0,0.0,0.0,0.0,0.0,0.0,0.0,0.0,0.0,0.0,0.0,0.0,0.0,0.0,0.0,0.0,0.0,0.0,0.0,0.0,0.0,0.0,0.0,0.0,0.0,0.0,-1.797,-1.7715,-1.8217,-1.8365,-1.8414,-1.8385,-1.9218,-1.9412,-1.8619,-1.8853,0.0,0.0,0.0,0.0,0.0,0.0,0.0,0.0,0.0,0.0,0.0,0.0,0.0,0.0,0.0,0.0,0.0,0.0,0.0,0.0,0.0,0.0,0.0,0.0,0.0,0.0,0.0,0.0,0.0,0.0,0.0,0.0,0.0,0.0,0.0,0.0,0.0,0.0,0.0,0.0,0.0,0.0,0.0,0.0,0.0,0.0,0.0,0.0,0.0,0.0,0.0,0.0,0.0,0.0,0.0,0.0,0.0,0.0,0.0,0.0,0.0,0.0,0.0,0.0,0.0,0.0,0.0,0.0,0.0,0.0,0.0,0.0,0.0,0.0,0.0,0.0,0.0,0.0,0.0,0.0,0.0,0.0,0.0,0.0,0.0,0.0,0.0,0.0,0.0,0.0,0.0,0.0,0.0,0.0,0.0,0.0,0.0,0.0,0.0,0.0,0.0,0.0,-1.8165,-1.8018,-1.8437,-1.833,-1.8239,-1.8299,-1.873,-1.885,-1.8533,-1.739,0.0,0.0,0.0,0.0,0.0,0.0,0.0,0.0,0.0,0.0,0.0,0.0,0.0,0.0,0.0,0.0,0.0,0.0,0.0,0.0,0.0,0.0,0.0,0.0,0.0,0.0,0.0,0.0,0.0,0.0,0.0,0.0,0.0,0.0,0.0,0.0,0.0,0.0,0.0,0.0,0.0,0.0,0.0,0.0,0.0,0.0,0.0,0.0,0.0,0.0,0.0,0.0,0.0,0.0,0.0,0.0,0.0,0.0,0.0,0.0,0.0,0.0,0.0,0.0,0.0,0.0,0.0,0.0,0.0,0.0,0.0,0.0,0.0,0.0,0.0,0.0,0.0,0.0,0.0,0.0,0.0,0.0,0.0,0.0,0.0,0.0,0.0,0.0,0.0,0.0,0.0,0.0,0.0,0.0,0.0,0.0,0.0,0.0,0.0,0.0,0.0,0.0,-1.8014,-1.7957,-1.81,-1.8164,-1.8194,-1.818,-1.8973,-1.9199,-1.854,0.0,0.0,0.0,0.0,0.0,0.0,0.0,0.0,0.0,0.0,0.0,0.0,0.0,0.0,0.0,0.0,0.0,0.0,0.0,0.0,0.0,0.0,0.0,0.0,0.0,0.0,0.0,0.0,0.0,0.0,0.0,0.0,0.0,0.0,0.0,0.0,0.0,0.0,0.0,0.0,0.0,0.0,0.0,0.0,0.0,0.0,0.0,0.0,0.0,0.0,0.0,0.0,0.0,0.0,0.0,0.0,0.0,0.0,0.0,0.0,0.0,0.0,0.0,0.0,0.0,0.0,0.0,0.0,0.0,0.0,0.0,0.0,0.0,0.0,0.0,0.0,0.0,0.0,0.0,0.0,0.0,0.0,0.0,0.0,0.0,0.0,0.0,0.0,0.0,0.0,0.0,0.0,0.0,0.0,0.0,0.0,0.0,0.0,0.0,0.0,0.0,0.0,-1.7625,-1.7741,-1.7741,-1.7763,-1.7996,-1.813,-1.8113,-1.8947,-1.9206,-1.857,0.0,0.0,0.0,0.0,0.0,0.0,0.0,0.0,0.0,0.0,0.0,0.0,0.0,0.0,0.0,0.0,0.0,0.0,0.0,0.0,0.0,0.0,0.0,0.0,0.0,0.0,0.0,0.0,0.0,0.0,0.0,0.0,0.0,0.0,0.0,0.0,0.0,0.0,0.0,0.0,0.0,0.0,0.0,0.0,0.0,0.0,0.0,0.0,0.0,0.0,0.0,0.0,0.0,0.0,0.0,0.0,0.0,0.0,0.0,0.0,0.0,0.0,0.0,0.0,0.0,0.0,0.0,0.0,0.0,0.0,0.0,0.0,0.0,0.0,0.0,0.0,0.0,0.0,0.0,0.0,0.0,0.0,0.0,0.0,0.0,0.0,0.0,0.0,0.0,0.0,0.0,0.0,0.0,0.0,0.0,0.0,0.0,0.0,0.0,0.0,0.0,0.0,-1.7409,-1.7383,-1.736,-1.7486,-1.7803,-1.8027,-1.8091,-1.851,-1.8735,0.0,0.0,0.0,0.0,0.0,0.0,0.0,0.0,0.0,0.0,0.0,0.0,0.0,0.0,0.0,0.0,0.0,0.0,0.0,0.0,0.0,0.0,0.0,0.0,0.0,0.0,0.0,0.0,0.0,0.0,0.0,0.0,0.0,0.0,0.0,0.0,0.0,0.0,0.0,0.0,0.0,0.0,0.0,0.0,0.0,0.0,0.0,0.0,0.0,0.0,0.0,0.0,0.0,0.0,0.0,0.0,0.0,0.0,0.0,0.0,0.0,0.0,0.0,0.0,0.0,0.0,0.0,0.0,0.0,0.0,0.0,0.0,0.0,0.0,0.0,0.0,0.0,0.0,0.0,0.0,0.0,0.0,0.0,0.0,0.0,0.0,0.0,0.0,0.0,0.0,0.0,0.0,0.0,0.0,0.0,0.0,0.0,0.0,0.0,0.0,0.0,0.0,0.0,-1.7468,-1.7471,-1.7471,-1.7953,-1.8005,-1.8061,-1.8225,-1.7842,-1.7898,-1.8559,0.0,0.0,0.0,0.0,0.0,0.0,0.0,0.0,0.0,0.0,0.0,0.0,0.0,0.0,0.0,0.0,0.0,0.0,0.0,0.0,0.0,0.0,0.0,0.0,0.0,0.0,0.0,0.0,0.0,0.0,0.0,0.0,0.0,0.0,0.0,0.0,0.0,0.0,0.0,0.0,0.0,0.0,0.0,0.0,0.0,0.0,0.0,0.0,0.0,0.0,0.0,0.0,0.0,0.0,0.0,0.0,0.0,0.0,0.0,0.0,0.0,0.0,0.0,0.0,0.0,0.0,0.0,0.0,0.0,0.0,0.0,0.0,0.0,0.0,0.0,0.0,0.0,0.0,0.0,0.0,0.0,0.0,0.0,0.0,0.0,0.0,0.0,0.0,0.0,0.0,0.0,0.0,0.0,0.0,0.0,0.0,0.0,0.0,0.0,0.0,0.0,0.0,-1.6953,-1.7159,-1.7256,-1.7689,-1.7833,-1.8009,-1.8205,-1.7583,-1.7577,-1.8541,0.0,0.0,0.0,0.0,0.0,0.0,0.0,0.0,0.0,0.0,0.0,0.0,0.0,0.0,0.0,0.0,0.0,0.0,0.0,0.0,0.0,0.0,0.0,0.0,0.0,0.0,0.0,0.0,0.0,0.0,0.0,0.0,0.0,0.0,0.0,0.0,0.0,0.0,0.0,0.0,0.0,0.0,0.0,0.0,0.0,0.0,0.0,0.0,0.0,0.0,0.0,0.0,0.0,0.0,0.0,0.0,0.0,0.0,0.0,0.0,0.0,0.0,0.0,0.0,0.0,0.0,0.0,0.0,0.0,0.0,0.0,0.0,0.0,0.0,0.0,0.0,0.0,0.0,0.0,0.0,0.0,0.0,0.0,0.0,0.0,0.0,0.0,0.0,0.0,0.0,0.0,0.0,0.0,0.0,0.0,0.0,0.0,0.0,0.0,0.0,0.0,0.0,-1.6224,-1.6667,-1.6866,-1.7043,-1.7511,-1.7878,-1.807,-1.7574,-1.7653,-1.8541,0.0,0.0,0.0,0.0,0.0,0.0,0.0,0.0,0.0,0.0,0.0,0.0,0.0,0.0,0.0,0.0,0.0,0.0,0.0,0.0,0.0,0.0,0.0,0.0,0.0,0.0,0.0,0.0,0.0,0.0,0.0,0.0,0.0,0.0,0.0,0.0,0.0,0.0,0.0,0.0,0.0,0.0,0.0,0.0,0.0,0.0,0.0,0.0,0.0,0.0,0.0,0.0,0.0,0.0,0.0,0.0,0.0,0.0,0.0,0.0,-1.7989,0.0,0.0,0.0,0.0,0.0,0.0,0.0,0.0,0.0,0.0,0.0,0.0,0.0,0.0,0.0,0.0,0.0,0.0,0.0,0.0,0.0,0.0,0.0,0.0,0.0,0.0,0.0,0.0,0.0,0.0,0.0,0.0,0.0,0.0,0.0,0.0,0.0,0.0,0.0,0.0,0.0,-1.6718,-1.6858,-1.6901,-1.7416,-1.7666,-1.7833,-1.7936,-1.7411,-1.75,-1.8541,-1.6435,0.0,0.0,0.0,0.0,0.0,0.0,0.0,0.0,0.0,0.0,0.0,0.0,0.0,0.0,0.0,0.0,0.0,0.0,0.0,0.0,0.0,0.0,0.0,0.0,0.0,0.0,0.0,0.0,0.0,0.0,0.0,0.0,0.0,0.0,0.0,0.0,0.0,0.0,0.0,0.0,0.0,0.0,0.0,0.0,0.0,0.0,0.0,0.0,0.0,0.0,0.0,0.0,0.0,0.0,0.0,0.0,0.0,0.0,0.0,0.0,-1.8822,0.0,0.0,0.0,0.0,0.0,0.0,0.0,0.0,0.0,0.0,0.0,0.0,0.0,0.0,0.0,0.0,0.0,0.0,0.0,0.0,0.0,0.0,0.0,0.0,0.0,0.0,0.0,0.0,0.0,0.0,0.0,0.0,0.0,0.0,0.0,0.0,0.0,0.0,0.0,0.0,-1.6417,-1.6644,-1.6799,-1.7304,-1.7557,-1.7758,-1.7892,-1.7329,-1.7266,-1.7983,-1.6509,0.0,0.0,0.0,0.0,0.0,0.0,0.0,0.0,0.0,0.0,0.0,0.0,0.0,0.0,0.0,0.0,0.0,0.0,0.0,0.0,0.0,0.0,0.0,0.0,0.0,0.0,0.0,0.0,0.0,0.0,0.0,0.0,0.0,0.0,0.0,0.0,0.0,0.0,0.0,0.0,0.0,0.0,0.0,0.0,0.0,0.0,0.0,0.0,0.0,0.0,0.0,0.0,0.0,-1.903,-1.9101,-2.0297,-1.9694,-1.9776,-2.0397,-1.9787,-1.9902,-2.0496,-2.0499,0.0,0.0,0.0,0.0,0.0,0.0,0.0,0.0,0.0,0.0,0.0,0.0,0.0,0.0,0.0,0.0,0.0,0.0,0.0,0.0,0.0,0.0,0.0,0.0,-1.8292,-1.7058,-1.6483,0.0,0.0,0.0,0.0,0.0,0.0,0.0,0.0,0.0,0.0,0.0,-1.6018,-1.6413,-1.6678,-1.7019,-1.7376,-1.7658,-1.7794,-1.7369,-1.7244,-1.7585,-1.6844,-1.628,0.0,0.0,0.0,0.0,0.0,0.0,0.0,0.0,0.0,0.0,0.0,0.0,0.0,0.0,0.0,0.0,0.0,0.0,0.0,0.0,0.0,0.0,0.0,0.0,0.0,0.0,0.0,0.0,0.0,0.0,0.0,0.0,-1.668,-1.7394,0.0,0.0,0.0,0.0,0.0,0.0,0.0,0.0,0.0,0.0,0.0,0.0,0.0,-1.9172,-2.005,-2.0627,-2.0695,-2.0223,-2.0762,-2.0788,-2.0381,-2.0283,-2.0357,-2.0566,-2.0474,0.0,-2.0497,-2.0501,0.0,0.0,0.0,0.0,0.0,0.0,0.0,0.0,0.0,0.0,0.0,0.0,0.0,0.0,0.0,0.0,0.0,0.0,0.0,0.0,0.0,0.0,-1.9183,-1.8819,-1.7988,-1.7449,0.0,-1.6319,-1.4785,-1.5187,-1.4095,0.0,0.0,0.0,0.0,0.0,0.0,0.0,-1.63,-1.6588,-1.6789,-1.6833,-1.7288,-1.7557,-1.7479,-1.7754,-1.8078,-1.8416,-1.7619,-1.7267,-1.7498,-1.6177,0.0,0.0,0.0,0.0,0.0,0.0,0.0,0.0,0.0,0.0,0.0,0.0,0.0,0.0,0.0,0.0,0.0,0.0,0.0,0.0,0.0,0.0,0.0,0.0,0.0,0.0,0.0,0.0,0.0,-1.633,-1.6878,-1.7654,-1.7472,-1.7285,0.0,0.0,0.0,0.0,0.0,0.0,0.0,0.0,0.0,-1.8853,-1.9265,-1.9915,-2.0863,-2.0661,-2.0661,-2.087,-2.0764,-2.0539,-2.0224,-2.0305,-2.0376,-2.0427,-2.0474,-2.0474,-2.0449,-2.0477,-2.0769,-2.1124,0.0,0.0,0.0,0.0,-2.1549,-2.1413,-2.2246,-2.2202,-2.1695,-2.1282,0.0,0.0,0.0,0.0,0.0,0.0,0.0,0.0,0.0,0.0,-1.9585,-1.9201,-1.8901,-1.877,-1.9007,-1.7888,-1.6744,0.0,-1.6104,-1.5719,-1.5091,0.0,0.0,0.0,0.0,-1.5983,-1.6449,-1.6543,-1.6693,-1.6985,-1.7288,-1.7511,-1.7612,-1.7878,-1.8011,-1.792,-1.7962,-1.7941,-1.7862,-1.688,-1.6154,0.0,0.0,0.0,0.0,0.0,0.0,0.0,0.0,0.0,0.0,0.0,0.0,0.0,0.0,0.0,0.0,0.0,0.0,0.0,0.0,0.0,0.0,0.0,0.0,0.0,0.0,0.0,0.0,-1.6824,-1.7234,-1.8175,-1.815,-1.8062,0.0,0.0,0.0,0.0,0.0,0.0,-1.8061,-1.8657,-1.9007,-1.9007,-1.9543,-2.0211,-2.0963,-2.0221,-2.0221,-2.0963,-2.0335,-2.006,-2.0079,-2.0187,-2.024,-2.0279,-2.0331,-2.0366,-2.04,-2.0447,-2.0836,-2.1362,-2.1307,-2.171,-2.232,-2.2456,-2.2423,-2.2452,-2.3265,-2.3319,-2.2996,-2.2651,-2.241,-2.1939,-2.0289,0.0,0.0,0.0,0.0,-2.0773,-1.9944,-1.9834,-1.9861,-1.9615,-1.966,-1.9704,-1.955,-1.9121,-1.8447,0.0,-1.7683,-1.7784,-1.675,0.0,0.0,0.0,0.0,-1.6313,-1.6525,-1.6517,-1.6667,-1.7093,-1.728,-1.7479,-1.7758,-1.7909,-1.7867,-1.7625,-1.8179,-1.8383,-1.8136,-1.7694,-1.7366,-1.7188,0.0,0.0,0.0,0.0,0.0,0.0,0.0,0.0,0.0,0.0,0.0,0.0,0.0,0.0,0.0,0.0,0.0,0.0,0.0,0.0,0.0,0.0,0.0,0.0,0.0,0.0,0.0,0.0,0.0,-1.9707,-1.9211,0.0,0.0,0.0,0.0,-1.8677,-1.8679,-1.9002,-1.983,-1.9844,-1.984,-1.984,-1.9755,-1.9732,-1.9791,-1.9741,-1.9741,-1.9791,-1.9872,-1.9942,-2.0012,-2.0012,-2.0078,-2.0208,-2.0208,-2.0287,-2.04,-2.04,-2.0434,-2.0471,-2.0464,-2.045,-2.054,-2.1357,-2.1175,-2.0646,-2.1448,-2.1186,-2.0615,-2.1332,-2.1435,-2.1392,-2.2038,-2.1576,0.0,0.0,-2.1995,-2.173,-2.0853,-2.073,-2.0639,-1.9866,-1.9647,-1.9602,-1.9589,-1.9523,-1.9178,0.0,-1.8078,-1.7872,-1.7186,0.0,-1.7787,-1.6887,-1.6986,-1.6952,-1.6463,-1.6623,-1.6841,-1.6985,-1.7175,-1.7415,-1.7687,-1.7839,-1.7975,-1.8156,-1.8371,-1.8573,-1.8753,-1.8912,-1.8665,-1.7948,-1.7205,0.0,0.0,0.0,0.0,0.0,0.0,0.0,0.0,0.0,0.0,0.0,0.0,0.0,0.0,0.0,0.0,0.0,0.0,0.0,0.0,0.0,0.0,0.0,0.0,0.0,0.0,0.0,0.0,-1.9936,-1.981,0.0,-1.9569,-1.9289,-1.9235,-1.9549,-1.943,-1.9482,-1.979,-1.9741,-1.9713,-1.9716,-1.9664,-1.9658,-1.9701,-1.9658,-1.9658,-1.971,-2.0324,-2.0624,-2.0663,-2.1273,-2.1622,-2.1741,-2.1741,-2.1778,-2.1813,-2.1767,-2.1519,-2.1156,-2.1086,-2.1397,-2.1939,-2.2212,-2.2177,-2.2047,-2.2342,-2.2228,-2.2011,-2.2206,-2.1866,-2.1541,-2.2301,-2.1827,-2.1189,-2.1948,-2.209,-2.1807,-2.0926,-2.0734,-2.0588,-1.9818,-1.9656,-1.9625,-1.9499,-1.9518,-1.9444,-1.9018,-1.8969,-1.8843,-1.8333,-1.8475,-1.8378,-1.7564,-1.7511,-1.7464,-1.7085,-1.7142,-1.7264,-1.7487,-1.7549,-1.7664,-1.7936,-1.7914,-1.7992,-1.8196,-1.8397,-1.8591,-1.8788,-1.8538,-1.8535,-1.8831,-1.7152,-1.5607,0.0,0.0,0.0,0.0,0.0,0.0,0.0,0.0,0.0,0.0,0.0,0.0,0.0,0.0,0.0,0.0,0.0,0.0,0.0,0.0,0.0,0.0,0.0,0.0,0.0,-1.8492,-1.9088,-1.9954,-2.003,-2.0002,-2.0,-1.9955,-1.9929,-1.9929,-1.9792,-1.9701,-1.9703,-1.9664,-1.9754,-2.0024,-2.002,-2.0164,-2.0502,-2.0439,-2.0439,-2.0475,-2.1064,-2.1335,-2.1354,-2.1971,-2.2337,-2.2465,-2.2465,-2.2488,-2.2532,-2.246,-2.2227,-2.1891,-2.178,-2.1789,-2.1894,-2.2163,-2.2122,-2.1916,-2.1916,-2.1909,-2.1874,-2.1723,-2.1511,-2.1433,-2.2236,-2.1975,-2.1501,-2.2004,-2.1825,-2.1297,-2.0446,-2.0268,-2.0168,-1.9643,-1.9577,-1.9595,-1.9431,-1.946,-1.948,-1.942,-1.9455,-1.9392,-1.9033,-1.8982,-1.8726,-1.801,-1.7897,-1.7786,-1.7432,-1.7384,-1.7511,-1.7758,-1.7726,-1.7763,-1.804,-1.7944,-1.7927,-1.8048,-1.8258,-1.8476,-1.8695,-1.8427,-1.8447,-1.8808,-1.6881,-1.5755,-1.5543,0.0,0.0,0.0,0.0,0.0,0.0,0.0,0.0,0.0,0.0,0.0,0.0,0.0,0.0,0.0,0.0,0.0,0.0,0.0,0.0,0.0,0.0,0.0,-1.8894,-1.8802,-1.9045,-1.9888,-1.988,-1.9807,-1.9807,-1.9807,-1.9807,-1.9807,-1.9763,-1.9741,-1.9741,-1.9759,-2.0125,-2.091,-2.0877,-2.1244,-2.2088,-2.2027,-2.2005,-2.198,-2.2024,-2.2042,-2.2042,-2.207,-2.2148,-2.2285,-2.2285,-2.2355,-2.247,-2.2401,-2.2426,-2.2513,-2.2427,-2.1447,-2.018,-2.109,-2.0852,-2.0069,-2.0069,-2.0019,-1.9951,-1.9813,-2.0298,-2.1104,-2.1943,-2.2114,-2.2002,-2.2009,-2.1299,-2.0363,-1.9553,-1.9442,-1.9504,-1.9426,-1.9447,-1.9485,-1.9438,-1.9384,-1.936,-1.9464,-1.9536,-1.947,-1.9157,-1.9099,-1.886,-1.8206,-1.812,0.0,-1.7471,-1.7408,-1.7511,-1.7789,-1.7681,-1.7712,-1.7961,-1.7886,-1.7811,-1.7811,-1.7988,-1.8211,-1.8494,-1.8686,-1.8538,-1.7953,-1.6556,-1.6295,-1.7201,0.0,0.0,0.0,0.0,0.0,0.0,0.0,0.0,0.0,0.0,0.0,0.0,0.0,0.0,0.0,0.0,0.0,0.0,0.0,0.0,0.0,-1.8553,-1.8793,-1.8697,-1.9246,-1.9675,-1.9769,-1.9791,-1.9807,-1.9807,-1.9807,-1.9807,-1.9807,-2.0311,-2.0648,-2.0641,-2.1148,-2.154,-2.1758,-2.1708,-2.1717,-2.1815,-2.1948,-2.1932,-2.1791,-2.2515,-2.2868,-2.2887,-2.3516,-2.3894,-2.4007,-2.4007,-2.4037,-2.4067,-2.3994,-2.3652,-2.3098,-2.2541,-2.2098,-2.177,-2.1925,-2.179,-2.1525,-2.1525,-2.1509,-2.1492,-2.1442,-2.1587,-2.1812,-2.2046,-2.2093,-2.2068,-2.2009,-2.1798,-2.1396,-2.0544,-2.0262,-2.0093,-1.9596,-1.9414,-1.9506,-2.0076,-2.0179,-2.0363,-2.1013,-2.1158,-2.073,-1.9332,-1.9024,-1.8834,-1.8448,-1.8272,0.0,-1.8005,-1.7983,-1.7983,-1.8018,-1.7953,-1.7909,-1.7922,-1.7856,-1.7811,-1.7811,-1.7988,-1.8211,-1.8494,-1.8686,-1.8833,-1.8915,-1.744,-1.6849,0.0,0.0,0.0,0.0,0.0,0.0,0.0,0.0,0.0,0.0,0.0,0.0,0.0,0.0,0.0,0.0,0.0,0.0,0.0,0.0,0.0,0.0,-1.9097,-1.9206,-1.9047,-1.9554,-1.9896,-1.9717,-1.9754,-1.9807,-1.9807,-2.0108,-2.0305,-2.0305,-2.1065,-2.153,-2.1545,-2.1924,-2.2307,-2.2637,-2.2579,-2.2648,-2.2872,-2.2984,-2.2993,-2.2891,-2.3475,-2.3739,-2.3767,-2.4276,-2.4541,-2.4631,-2.4631,-2.4631,-2.4606,-2.4571,-2.4316,0.0,0.0,0.0,0.0,0.0,-2.2107,-2.2098,-2.2068,-2.2062,-2.2047,-2.1987,-2.2204,-2.2476,-2.2476,-2.2476,-2.2469,-2.2434,-2.2186,-2.1798,-2.1299,-2.1138,-2.1027,-2.0569,-2.0443,-2.0541,-2.0958,-2.1042,-2.1189,-2.1711,-2.1793,0.0,-2.0409,-1.9869,-1.9461,-1.9175,-1.8735,-1.8383,-1.8223,-1.8211,-1.819,-1.8151,-1.8057,-1.7983,-1.7953,-1.7856,0.0,0.0,0.0,-1.8125,-1.8494,-1.844,0.0,0.0,0.0,0.0,0.0,0.0,0.0,0.0,-1.7488,-1.7595,0.0,0.0,0.0,0.0,0.0,0.0,0.0,0.0,0.0,0.0,0.0,0.0,0.0,0.0,0.0,0.0,-1.9494,-1.9804,-1.9625,-1.9751,-1.9816,-1.9679,-1.9741,-1.9845,-1.9939,-2.0577,-2.1037,-2.1131,-2.1948,-2.2436,-2.2436,0.0,0.0,0.0,0.0,-2.3771,-2.4434,-2.4472,-2.449,-2.4456,-2.4482,-2.45,-2.45,-2.45,-2.45,-2.45,-2.45,-2.45,-2.45,-2.45,-2.4566,-2.4676,-2.4613,-2.3668,-2.2325,-2.2275,-2.2287,-2.2329,-2.2272,0.0,0.0,-2.2104,-2.2547,-2.3144,-2.3144,-2.3144,-2.3144,-2.3144,-2.262,-2.206,-2.1968,-2.2024,-2.2062,-2.1855,-2.1885,-2.1969,-2.193,-2.195,-2.1968,-2.206,-2.2068,-2.2067,-2.2069,-2.1255,-2.0504,-2.0197,-1.9549,-1.8945,-1.8591,-1.8537,-1.8516,-1.8474,0.0,0.0,-1.8111,-1.7907,-1.7811,-1.7811,-1.7856,-1.8087,-1.8513,-1.8206,-1.8379,-1.9087,-1.8532,-1.861,-1.9389,-1.9394,-1.9518,-1.9723,-1.8242,-1.799,0.0,0.0,0.0,0.0,0.0,0.0,0.0,0.0,0.0,0.0,0.0,0.0,0.0,0.0,0.0,-1.9654,-1.9762,-1.9695,-1.9536,-1.96,-1.9609,-1.9471,-1.9655,-2.0051,-2.0699,-2.0906,-2.129,-2.2004,-2.2802,-2.3276,-2.3276,-2.387,-2.4204,-2.4217,-2.4304,-2.427,-2.4105,-2.4356,-2.4392,-2.4182,0.0,0.0,-2.45,-2.45,-2.45,-2.45,-2.45,-2.45,-2.45,-2.45,-2.4517,-2.4541,-2.4526,-2.4221,-2.3795,-2.3778,-2.3778,-2.3787,-2.3778,-2.3778,-2.3759,-2.374,-2.3841,-2.3969,-2.3969,-2.3969,0.0,-2.3969,-2.3859,-2.3584,-2.2942,-2.2785,-2.2638,-2.1959,-2.182,-2.2012,-2.263,-2.2776,-2.296,-2.3602,-2.375,-2.374,-2.3731,-2.2383,-2.128,-2.1224,-2.0946,-2.0702,-2.0621,-2.0621,-2.0498,-2.0157,-1.9573,-1.9078,-1.8761,-1.8149,-1.7811,-1.7811,-1.815,-1.8485,-1.8732,-1.8814,-1.8933,-1.9096,-1.9073,-1.9151,-1.9329,-1.9374,-1.9423,-1.9467,-1.9266,-1.9359,0.0,0.0,0.0,0.0,0.0,0.0,0.0,0.0,0.0,0.0,0.0,-1.8561,-1.9402,0.0,-1.9433,-1.9823,-1.9729,-1.9559,-1.9425,-1.9457,-1.9476,-1.9409,-1.9986,-2.0558,-2.0952,-2.1764,-2.2426,-2.2867,-2.3647,-2.4067,-2.4011,-2.4457,-2.4615,-2.4416,-2.4538,-2.4497,-2.4238,-2.4321,-2.4338,-2.4293,-2.4293,-2.4293,-2.4293,-2.4438,-2.4429,-2.4321,-2.4429,-2.45,-2.45,-2.4366,-2.4366,-2.4438,-2.4338,-2.422,-2.4105,-2.4056,-2.4025,-2.4025,-2.4142,-2.4199,-2.4199,-2.4199,-2.4199,-2.4199,-2.4199,-2.4199,-2.4199,-2.4199,-2.4199,-2.4107,-2.3703,-2.3602,-2.3501,-2.3098,-2.2997,-2.3107,-2.3511,-2.3602,-2.3722,-2.4116,-2.4199,-2.4199,-2.4199,-2.3445,-2.2675,-2.2178,-2.1665,-2.1306,-2.1209,-2.1189,-2.1099,-2.088,-2.012,-1.9549,-1.9325,-1.8586,-1.815,-1.815,-1.8456,-1.8695,-1.8797,-1.8984,-1.9096,-1.9096,-1.9163,-1.9228,-1.9291,-1.9264,-1.9299,-1.9409,-1.9476,-1.9604,0.0,0.0,0.0,0.0,0.0,0.0,0.0,-1.844,-1.8651,-1.9223,-1.9304,-1.9447,-2.0065,-2.0069,-1.9939,-1.9821,-1.9643,-1.9481,-1.9367,-1.94,-1.9503,-1.9641,-2.0462,-2.1121,-2.1441,-2.2713,-2.3553,-2.3673,-2.4292,-2.4594,-2.4461,-2.4566,-2.4549,-2.4355,-2.447,-2.4497,-2.44,-2.4293,-2.4312,-2.4456,-2.4266,-2.4173,-2.4173,-2.4339,-2.4339,-2.4182,-2.4411,-2.45,-2.4473,-2.4275,-2.4275,-2.4394,-2.4162,-2.4056,-2.4007,-2.3978,-2.3928,-2.3917,-2.4122,-2.4199,-2.4199,-2.4199,-2.4199,-2.4199,-2.4199,-2.4199,-2.4199,-2.4199,-2.4199,-2.4199,-2.4199,-2.4199,-2.4199,-2.4199,-2.4199,-2.4199,-2.4199,-2.4199,-2.4199,-2.4199,-2.4199,-2.4199,-2.4199,-2.4199,-2.3922,-2.3119,-2.2435,-2.1968,-2.1796,-2.1776,-2.1727,-2.1596,-2.0677,-1.9912,-1.9491,-1.8867,-1.8513,-1.8552,-1.8714,-1.8815,-1.8869,-1.9002,-1.9096,-1.9096,-1.9096,-1.9163,-1.926,-1.9146,-1.9184,-1.9335,-1.935,-1.9423,-1.8409,-1.8358,-1.7999,-1.8774,-1.908,-1.9362,0.0,-2.0163,-2.0234,-2.0254,-2.0198,-2.0149,-2.0126,-2.0001,-1.9894,-1.9813,-1.9681,-1.9582,-1.9569,-1.9569,-1.9843,-2.0564,-2.0848,-2.1572,-2.3088,-2.3398,-2.3757,-2.4332,-2.4472,-2.4461,-2.4321,-2.433,-2.4275,-2.4143,-2.4266,-2.4247,-2.4047,-2.4266,-2.4365,-2.433,-2.4409,-2.4462,-2.4456,-2.4248,-2.4248,-2.4456,-2.4482,-2.45,-2.45,-2.4473,-2.4473,-2.4456,-2.4135,-2.4001,-2.4011,-2.4125,-2.4153,-2.417,-2.4199,-2.4199,-2.4199,-2.4199,-2.4199,-2.4199,-2.4199,-2.4199,-2.4199,-2.4199,-2.4199,-2.4199,-2.4199,-2.4199,-2.4199,-2.4199,-2.4199,-2.4199,-2.4199,-2.4199,-2.4199,-2.4199,-2.4199,-2.4199,-2.4199,-2.4199,-2.4162,-2.4051,-2.3969,-2.3885,-2.3857,-2.3857,-2.3722,-2.3358,-2.2006,-2.0453,-1.879,-1.8557,-1.8572,-1.876,-1.8797,-1.8878,-1.9062,-1.9096,-1.9096,-1.9096,-1.9096,-1.9113,-1.9129,-1.9113,-1.9104,-1.9128,-1.9124,-1.9271,-2.0082,-2.0327,-2.0159,-2.0522,-2.1046,-2.1289,-2.0607,-2.0478,-2.0485,-2.0409,-2.0346,-2.0271,-2.0178,-2.0431,-2.0622,-2.0524,-2.082,-2.1025,-2.0957,-2.101,-2.1352,-2.2159,-2.2369,-2.2731,-2.3436,-2.3919,-2.4317,-2.4591,-2.4545,-2.4444,-2.4312,-2.4294,-2.4238,-2.4094,-2.4303,-2.4356,-2.422,-2.4319,-2.4381,-2.4462,-2.4374,-2.433,-2.433,-2.4339,-2.4384,-2.45,-2.45,-2.45,-2.45,-2.4339,-2.4366,-2.4473,-2.4163,-2.4115,-2.4173,-2.4105,-2.4056,-2.4036,-2.4162,-2.42,-2.4199,-2.4199,-2.4199,-2.4199,-2.4199,-2.4199,-2.4199,-2.4199,-2.4199,-2.4199,-2.4199,-2.4199,-2.4199,-2.4199,-2.4199,-2.4199,-2.4199,-2.4199,-2.4219,-2.4293,-2.433,-2.4338,-2.4462,-2.4401,-2.433,-2.433,-2.4247,-2.4199,-2.4151,-2.4142,-2.3862,-2.3143,-2.2072,-2.0913,-1.9649,-1.912,-1.8896,-1.8967,-1.8967,-1.9002,-1.9096,-1.9096,-1.9096,-1.9096,-1.9096,-1.9096,-1.9096,-1.9096,-1.9096,-1.9096,-1.9177,-1.927,-2.0651,-2.1006,-2.1065,-2.1305,-2.2061,-2.2354,-2.0838,-2.069,-2.0774,-2.0494,-2.0388,-2.0325,-2.0243,-2.0821,-2.127,-2.113,-2.1732,-2.2187,-2.2072,-2.2124,-2.2441,-2.3251,-2.3448,-2.3596,-2.3806,-2.436,-2.4682,-2.4651,-2.4512,-2.4383,-2.4257,-2.4182,-2.4153,-2.4094,-2.4293,-2.4382,-2.4373,-2.4355,-2.4416,-2.4538,-2.4401,-2.433,-2.4302,-2.4437,-2.4464,-2.4384,-2.4473,-2.45,-2.4473,-2.4293,-2.4312,-2.4482,-2.4294,-2.4266,-2.4312,-2.4153,-2.4056,-2.4007,-2.4153,-2.419,-2.4199,-2.4199,-2.4199,-2.4199,-2.4199,-2.4199,-2.4199,-2.4199,-2.4199,-2.4199,-2.4199,-2.4199,-2.4199,-2.4199,-2.4199,-2.4199,-2.4199,-2.4199,-2.4238,-2.4364,-2.4391,-2.4434,-2.4645,-2.4486,-2.4346,-2.4346,-2.422,-2.4122,-2.4094,-2.4074,-2.3706,-2.2798,-2.2186,-2.1514,-2.0699,-1.9884,-1.9422,-1.9422,-1.9214,-1.9096,-1.9096,-1.9096,-1.9096,-1.9096,-1.9096,-1.9096,-1.9096,-1.9096,-1.9104,-1.9102,-1.9219,-1.9298,-1.926,-1.9276,-1.9484,-2.0334,-2.1185,-2.16,-2.0699,-2.115,-2.1516,-2.0672,-2.0503,-2.0452,-2.0319,-2.1004,-2.1545,-2.1405,-2.2005,-2.2488,-2.2488,-2.2365,-2.2595,-2.3393,-2.3502,-2.3806,0.0,-2.4698,-2.4651,-2.4512,-2.4383,-2.4257,-2.4113,-2.3917,-2.3887,-2.4094,-2.4113,-2.4162,-2.4303,-2.4426,-2.4459,-2.4416,-2.4599,-2.465,-2.4599,-2.4521,-2.4365,-2.4135,-2.4384,-2.45,-2.45,-2.45,-2.45,-2.45,-2.45,-2.4447,-2.4394,-2.4394,-2.4294,-2.419,-2.4199,-2.4199,-2.4199,-2.4199,-2.4199,-2.4199,-2.4199,-2.4199,-2.4199,-2.4199,-2.4199,-2.4199,-2.4199,-2.4199,-2.4199,-2.4199,-2.4199,-2.4199,-2.4199,-2.4199,-2.4238,-2.4364,-2.4356,-2.4366,-2.4573,-2.4374,-2.421,-2.421,-2.4086,-2.4025,-2.4094,-2.3996,-2.3608,-2.2798,-2.2685,-2.2347,-2.1532,-2.0735,-2.0264,-2.0264,-1.9531,-1.9096,-1.9096,-1.9096,-1.9096,-1.9096,-1.9096,-1.9096,-1.9096,-1.9096,-1.9102,-1.909,-1.9175,-1.9311,-2.0471,-2.054,-2.0328,-2.1157,-2.1577,-2.1572,-2.07,-2.0732,-2.0848,-2.0555,-2.0505,-2.0489,-2.0435,-2.1511,-2.2384,-2.2337,-2.34,-2.4208,-2.4164,-2.4037,-2.4058,-2.4331,-2.4315,0.0,0.0,0.0,0.0,-2.4635,-2.4428,-2.4321,-2.4356,-2.4125,-2.4075,-2.4219,-2.4312,-2.4401,-2.4426,-2.4571,-2.461,-2.461,-2.4673,-2.4666,-2.4599,-2.4573,-2.4495,-2.4373,-2.447,-2.4489,-2.45,-2.45,-2.4482,-2.443,-2.4375,-2.433,-2.4266,-2.4256,-2.4237,-2.419,-2.42,-2.419,-2.4199,-2.4199,-2.4199,-2.4199,-2.4199,-2.4199,-2.4199,-2.4199,-2.4199,-2.4199,-2.4199,-2.4199,-2.4199,-2.4199,-2.4199,-2.4199,-2.4199,-2.4275,-2.4392,-2.4568,-2.4536,-2.4584,-2.4875,-2.4673,-2.4469,-2.4479,-2.4154,-2.3946,-2.3967,-2.3896,-2.3737,-2.3465,-2.298,-2.26,-2.2328,-2.107,-2.03,-2.03,-1.954,-1.9096,-1.9096,-1.9096,-1.9096,-1.9096,-1.9096,-1.9096,-1.9096,-1.9096,-1.9104,-1.9102,-1.9212,-1.9356,-1.8562,-1.956,-2.0332,-2.1161,-2.159,-2.1567,-2.0702,-2.0742,-2.0957,-2.0958,-2.0956,-2.0956,-2.0963,-2.2032,-2.29,-2.2878,-2.3917,-2.4839,-2.511,-2.501,-2.4906,-2.4906,-2.4828,-2.4764,0.0,0.0,0.0,-2.4626,-2.4418,-2.4339,-2.4409,-2.421,-2.4181,-2.4375,-2.447,-2.4528,-2.4561,-2.4651,-2.4707,-2.4707,-2.4695,-2.4663,-2.4599,-2.4599,-2.4556,-2.4497,-2.4497,-2.4489,-2.45,-2.45,-2.4473,-2.443,-2.4358,-2.4284,-2.4238,-2.4209,-2.42,-2.419,-2.42,-2.419,-2.4199,-2.4199,-2.4151,-2.4065,-2.417,-2.4122,-2.4074,-2.417,-2.4199,-2.419,-2.417,-2.417,-2.419,-2.417,-2.417,-2.4199,-2.4199,-2.4275,-2.44,-2.4651,-2.4601,-2.4639,-2.4976,-2.4779,-2.4552,-2.4497,-2.421,-2.3989,-2.3959,-2.3878,-2.3795,-2.3795,-2.3379,-2.3078,-2.3055,-2.163,-2.0707,-2.0661,-1.9685,-1.9096,-1.9096,-1.9096,-1.9096,-1.9096,-1.9146,-1.9146,-1.9096,-1.9146,-1.9177,-1.9216,-1.9305,-1.9425,-1.4004,-1.6553,-1.9334,-2.0339,-2.1169,-2.1518,-2.0678,-2.1156,-2.1783,-2.1785,-2.1824,-2.1852,-2.1859,-2.2566,-2.3144,-2.3081,-2.3694,-2.4457,-2.5288,-2.5234,-2.5112,-2.5112,-2.499,0.0,0.0,0.0,0.0,-2.4528,0.0,-2.4303,-2.433,-2.4181,-2.4229,-2.4495,-2.4512,-2.4561,-2.4707,-2.4707,-2.4707,-2.4707,-2.4707,-2.467,-2.4615,-2.4615,-2.4566,-2.45,-2.45,-2.45,-2.45,-2.45,-2.45,-2.4482,-2.442,-2.4367,-2.4284,-2.421,-2.42,-2.4199,-2.4199,-2.4199,-2.4199,-2.4199,-2.4025,-2.3867,-2.4122,-2.4016,-2.3867,-2.4122,-2.4199,-2.4199,-2.4122,-2.4142,-2.417,-2.4122,-2.4142,-2.4199,-2.4199,-2.419,-2.4303,-2.4629,-2.4552,-2.4524,-2.4837,-2.467,-2.4461,-2.4339,-2.4257,-2.4192,-2.4097,-2.391,-2.3795,-2.3783,-2.3774,-2.3753,-2.3637,-2.2303,-2.1411,-2.126,-1.9903,-1.9087,-1.9104,-1.9096,-1.9104,-1.9113,-1.9228,-1.9244,-1.9129,-1.9235,-1.9351,-1.9409,-1.9409,-1.9527,-1.4237,-1.5895,-1.6936,-1.9811,-2.0682,-2.0756,-2.0492,-2.0983,-2.1546,-2.1687,-2.2161,-2.2583,-2.2681,-2.3412,-2.3988,-2.3974,-2.4634,-2.522,-2.5436,-2.5304,-2.5187,-2.5236,-2.5094,-2.4974,-2.4952,-2.4861,0.0,0.0,-2.4495,-2.4497,-2.4592,-2.4426,-2.4417,-2.4641,-2.465,-2.4673,-2.4707,-2.4707,-2.4707,-2.4707,-2.4707,-2.4692,-2.4676,-2.4676,-2.4638,-2.4566,-2.4566,-2.4541,-2.45,-2.45,-2.4465,-2.443,-2.4412,-2.4367,-2.4284,-2.421,-2.4201,-2.4191,-2.4209,-2.4199,-2.4199,-2.4199,-2.4142,-2.4113,-2.417,-2.4142,-2.4113,-2.417,-2.4199,-2.4199,-2.417,-2.4199,-2.4199,-2.417,-2.4199,-2.4199,-2.4199,-2.4238,-2.4346,-2.458,-2.4657,-2.4685,-2.4676,-2.4584,-2.4545,-2.4657,-2.4453,-2.4201,-2.3969,-2.3858,-2.3741,-2.3603,-2.3589,-2.3325,-2.2717,-2.175,-2.1006,-2.0517,-1.9515,-1.9026,-1.9161,-1.9129,-1.9146,-1.9244,-1.9276,-1.9304,-1.9329,-1.9368,-1.9389,-1.94,-1.9541,-1.9643,-1.2913,-1.5282,-1.7113,-2.0703,-2.1598,-2.1584,-2.1507,-2.1789,-2.2205,-2.2694,-2.3127,-2.344,-2.351,-2.3947,-2.43,-2.4298,-2.4703,-2.5155,-2.5532,-2.5469,-2.5383,-2.5389,-2.5235,-2.5115,-2.5082,-2.4987,-2.4884,0.0,-2.4566,-2.4486,-2.4564,-2.4453,-2.4479,-2.4641,-2.4666,-2.4673,-2.4695,-2.4695,-2.4732,-2.4794,-2.4729,-2.4729,-2.4736,-2.4736,-2.471,-2.4642,0.0,-2.471,-2.4682,-2.4682,-2.4642,-2.461,-2.4521,-2.447,-2.4409,-2.4293,-2.4238,-2.4238,-2.42,-2.4209,-2.419,-2.419,-2.4122,-2.4045,-2.4161,-2.4122,-2.4045,-2.417,-2.4199,-2.419,-2.417,-2.4151,-2.4151,-2.4122,-2.4113,-2.4113,-2.4113,-2.4135,-2.4248,-2.4472,-2.4676,-2.4774,-2.4664,-2.461,-2.4635,-2.4744,-2.4571,-2.4339,-2.4105,-2.4037,-2.3978,-2.3864,-2.3756,-2.3336,-2.2467,-2.1678,-2.0927,-2.0192,-1.9425,-1.9035,-1.9153,-1.912,-1.9137,-1.9216,-1.9369,-1.9405,-1.9362,-1.9433,-1.9467,-1.9448,-1.9656,-1.9778,-1.0725,-1.451,-1.8355,-2.1484,-2.2624,-2.2923,-2.2729,-2.2855,-2.3201,-2.3845,-2.4152,-2.4334,-2.4357,-2.4405,-2.4457,-2.4468,-2.4518,-2.4832,-2.5588,-2.5641,-2.5583,-2.5527,-2.5415,-2.5302,-2.5253,-2.5163,-2.5079,-2.4968,-2.4663,-2.4498,-2.4474,-2.4445,-2.4473,-2.4589,-2.4613,-2.4654,-2.4714,-2.4745,-2.4807,-2.4938,-2.4808,-2.478,-2.4841,-2.4841,-2.4799,-2.4747,-2.4854,-2.4913,-2.4906,-2.4892,-2.4902,-2.4879,-2.4716,-2.4623,-2.4575,-2.4392,-2.4303,-2.4284,-2.422,-2.4201,-2.4201,-2.4209,-2.4045,-2.3887,-2.4122,-2.4025,-2.3876,-2.4122,-2.417,-2.417,-2.4094,-2.4094,-2.4065,-2.4016,-2.3996,-2.3996,-2.3996,-2.4036,-2.4114,-2.4358,-2.4613,-2.4768,-2.4707,-2.4692,-2.4692,-2.4692,-2.4638,-2.454,-2.4339,-2.4312,-2.4266,-2.4247,-2.3926,-2.3336,-2.2382,-2.1626,-2.0832,-2.001,-1.9389,-1.907,-1.9104,-1.9104,-1.9119,-1.9106,-1.9411,-1.9497,-1.936,-1.9523,-1.9587,-1.9536,-1.9717,-1.986,-0.8651,-1.3004,-1.7723,-1.8237,-2.0664,-2.2684,-2.178,-2.2658,-2.3501,-2.2977,-2.3975,-2.4995,-2.5157,-2.5253,-2.531,-2.5369,-2.5385,-2.5457,-2.5673,-2.564,-2.5617,-2.5657,-2.5556,-2.546,-2.5449,-2.5336,0.0,0.0,-2.5077,-2.4924,-2.4814,-2.4667,-2.4556,-2.4521,-2.4679,-2.477,-2.4784,-2.4953,-2.5041,-2.5066,-2.5031,-2.5046,-2.5049,-2.5049,-2.5005,-2.4949,-2.4965,0.0,-2.4904,-2.4896,-2.4902,-2.4902,-2.4851,-2.4749,-2.4591,-2.4512,-2.4356,-2.422,-2.419,-2.4209,-2.4209,-2.4199,-2.4122,-2.4054,-2.4094,-2.4045,-2.3976,-2.4016,-2.4036,-2.4025,-2.4016,-2.4025,-2.4016,-2.3996,-2.3996,-2.3996,-2.3996,-2.4181,-2.4348,-2.44,-2.4564,-2.4698,-2.4631,-2.4622,-2.4622,-2.4622,-2.4615,-2.4573,-2.4487,-2.4266,-2.4078,-2.3899,-2.3256,-2.2431,-2.1422,-2.0564,-1.9827,-1.9226,-1.8985,-1.8957,-1.9177,-1.9177,-1.9175,-1.9178,-1.9357,-1.9499,-1.9627,-1.9675,-1.971,-1.9751,-1.9776,-1.9813,-0.8528,-1.1041,-1.3606,-1.5434,-1.8301,-2.0521,-1.997,-2.192,-2.3748,-2.3407,-2.4298,-2.5183,-2.5283,-2.541,-2.5509,-2.5537,-2.561,-2.5658,-2.5704,-2.5674,-2.566,-2.5699,-2.5613,-2.5547,-2.5503,-2.5413,-2.5347,-2.5353,-2.526,-2.5149,-2.5018,-2.4879,-2.4749,-2.4619,-2.477,-2.487,-2.4907,-2.5006,-2.5082,-2.5155,-2.512,-2.5143,-2.52,-2.52,-2.5169,-2.5109,-2.518,-2.5169,-2.5107,-2.5115,-2.5113,-2.5099,-2.5032,-2.4921,-2.4795,-2.4691,-2.4607,-2.45,-2.4459,-2.4409,-2.4339,-2.4321,-2.4238,-2.4151,-2.4122,-2.4074,-2.4045,-2.4016,-2.3996,-2.3996,-2.3996,-2.3967,-2.3946,-2.3946,-2.3917,-2.3926,-2.3987,-2.4153,-2.4321,-2.4381,-2.4538,-2.4641,-2.4615,-2.4564,-2.4547,-2.4547,-2.4549,-2.4549,-2.4495,-2.4401,-2.4266,-2.4164,-2.3344,-2.2437,-2.1543,-2.0671,-1.9884,-1.92,-1.9106,-1.9073,-1.9082,-1.9198,-1.9212,-1.915,-1.9413,-1.9597,-1.9649,-1.9719,-1.9719,-1.969,-1.9801,-1.987,-0.7958,-0.9378,-1.0641,-1.2701,-1.5407,-1.7489,-1.72,-2.0185,-2.2972,-2.2786,-2.4053,-2.4956,-2.419,-2.418,-2.4054,-2.3269,-2.392,-2.4517,-2.4517,-2.5195,-2.5702,-2.5699,-2.5654,-2.56,-2.5548,-2.5496,0.0,-2.5459,-2.5407,-2.5292,-2.5104,-2.5063,-2.4945,-2.474,-2.4879,-2.4968,-2.5022,-2.5069,-2.5132,-2.5243,-2.5198,-2.5219,-2.5322,-2.5322,-2.5283,-2.5253,-2.5351,-2.537,-2.5313,-2.5313,-2.5302,-2.5292,-2.5174,-2.5063,-2.4981,-2.4874,-2.4804,-2.476,-2.4716,-2.4623,-2.4519,-2.4476,-2.4321,-2.4151,-2.4094,-2.4065,-2.4016,-2.3967,-2.3967,-2.3967,-2.3967,-2.3917,-2.3876,-2.3876,-2.3813,-2.3783,-2.4007,-2.4096,-2.4211,-2.4381,-2.4512,-2.4517,-2.434,-2.4269,-2.4096,-2.3752,-2.3717,-2.37,-2.3689,-2.37,-2.383,-2.4163,-2.3358,-2.2506,-2.1843,-2.0814,-1.9948,-1.9311,-1.9274,-1.9202,-1.9064,-1.9227,-1.9274,-1.9141,-1.949,-1.966,-1.9628,-1.9738,-1.9729,-1.9641,-1.9825,-1.9938,-0.5027,-0.8758,-1.2833,-0.9782,-1.1663,-1.3964,-1.293,-1.6572,-1.9877,-1.8846,-2.214,-2.4196,-2.0901,-2.0359,-1.9333,0.0,0.0,-2.0712,-2.0712,-2.3585,-2.5697,-2.5696,-2.5691,-2.5693,-2.5678,-2.5679,-2.5671,-2.5671,-2.5606,-2.5432,-2.5117,-2.5155,-2.5088,-2.4891,-2.5008,-2.5077,-2.5082,-2.5273,-2.5361,-2.5379,-2.5379,-2.5378,-2.5387,-2.5387,-2.5387,-2.5378,-2.5389,-2.5398,0.0,-2.5332,-2.5303,-2.5283,-2.5222,-2.5115,-2.4994,-2.4915,-2.4804,-2.4698,-2.4698,-2.4682,-2.4682,-2.4667,-2.4374,-2.4025,-2.4016,-2.3917,-2.3825,-2.3816,-2.3816,-2.3816,-2.3816,-2.3816,-2.3816,-2.3816,-2.3673,-2.3647,-2.4096,-2.4097,-2.4108,-2.4434,-2.4495,-2.4262,-2.3461,-2.3331,-2.2813,-2.1362,-2.1151,-2.1121,-2.1056,-2.1096,-2.1686,-2.3072,-2.2541,-2.199,-2.174,-2.0244,-1.9289,-1.9209,-1.9155,-1.9155,-1.9274,-1.9357,-1.9357,-1.928,-1.9442,-1.9583,-1.9686,-1.9697,-1.9723,-1.9785,-1.9859,-1.9905,-0.3981,-0.5411,-0.685,-0.5392,-0.7227,-0.9309,-0.8887,-1.1963,-1.4887,-1.4705,-1.6595,-1.7916,-1.6766,-1.6601,-1.6151,0.0,0.0,0.0,-1.9771,-2.1411,-2.3211,-2.544,-2.5699,-2.5698,0.0,0.0,-2.5702,-2.5698,-2.5678,-2.5583,-2.5414,-2.5386,-2.5292,-2.509,-2.5205,-2.5274,-2.5283,-2.5361,-2.5397,-2.5393,-2.5447,-2.5478,-2.5518,-2.5518,-2.5518,-2.5528,-2.5478,-2.5461,0.0,-2.5427,-2.542,-2.5414,-2.5301,-2.5226,-2.5173,-2.5108,-2.5054,-2.5002,-2.5002,-2.4916,-2.4813,-2.477,-2.4543,-2.4284,-2.421,-2.4018,-2.3846,-2.3816,-2.3795,-2.3795,-2.3759,-2.3682,-2.3616,-2.3616,-2.3567,-2.3558,-2.3786,-2.391,-2.4039,-2.4229,-2.44,-2.4068,-2.2652,-2.2456,-2.19,-2.0215,-1.9959,-2.0144,-2.0643,-2.0769,-2.1226,-2.2326,-2.2175,-2.1974,-2.1893,-2.0799,-1.9902,-1.9408,-1.9366,-1.9311,-1.9239,-1.9375,-1.9411,-1.9301,-1.9476,-1.9637,-1.976,-1.9763,-1.9776,-1.9807,-1.9866,-1.9926,-0.3018,-0.2623,-0.2175,-0.2154,-0.3574,-0.4919,-0.4801,-0.6854,-0.914,-1.0528,-1.2242,-1.3314,-1.2751,-1.2692,-1.2403,0.0,0.0,-1.3909,-1.6429,-1.8716,-2.1118,-2.3757,-2.5024,-2.5679,-2.5702,-2.5696,-2.5699,-2.5702,-2.5702,-2.568,-2.5632,-2.5571,-2.5456,-2.5293,-2.5359,-2.5405,-2.5424,-2.5424,-2.5429,-2.5425,-2.5481,-2.5518,-2.5572,-2.5572,-2.5566,-2.557,-2.5521,-2.5502,0.0,-2.5499,-2.5502,-2.5486,-2.5369,-2.532,-2.5293,-2.525,-2.5224,-2.5201,-2.5177,-2.5076,-2.4947,-2.487,-2.4691,-2.4502,-2.4418,-2.4164,-2.3887,-2.3878,-2.3795,-2.3694,-2.3647,-2.3544,-2.3448,-2.3471,-2.3462,-2.3522,-2.3637,-2.3846,-2.4047,-2.4192,-2.4153,-2.3661,-2.2212,-2.1591,-2.0787,-1.9303,-1.8888,-1.9035,-1.9856,-2.0061,-2.0537,-2.1574,-2.1921,-2.1971,-2.1665,-2.0888,-2.0149,-1.954,-1.9483,-1.9414,-1.9295,-1.945,-1.9489,-1.9414,-1.9613,-1.976,-1.9861,-1.9884,-1.9887,-1.9887,-1.9958,-2.0001,-0.1806,-0.1347,-0.0944,-0.0902,-0.1078,-0.1155,-0.0653,-0.1197,-0.2805,-0.6343,-1.0231,-1.2098,-0.9105,-0.8549,-0.7535,-0.4416,0.0,0.0,-0.9246,-1.5431,-2.0068,-2.0238,-2.3423,-2.5627,-2.5695,-2.5697,-2.5697,-2.5697,-2.5701,0.0,-2.5697,-2.5638,-2.5574,-2.5501,-2.5429,-2.5427,-2.5495,-2.5495,-2.5495,-2.5498,-2.5502,-2.5499,-2.5499,-2.5499,-2.55,-2.5501,-2.5498,-2.5499,0.0,-2.5497,-2.5495,-2.5492,-2.5426,-2.5359,-2.5303,-2.5302,-2.5258,-2.5189,-2.5117,-2.5101,-2.5079,-2.4947,-2.4766,-2.4607,-2.4607,-2.4265,-2.3908,-2.3981,-2.3762,-2.3508,-2.3508,-2.3407,-2.3313,-2.3392,-2.3392,-2.3467,-2.3741,-2.3896,-2.4095,-2.4438,-2.3804,-2.2985,-2.2225,-2.0723,-1.9332,-1.8441,-1.7684,-1.7476,-1.8135,-1.8454,-1.9207,-2.074,-2.1744,-2.1886,-2.0903,-2.014,-1.9649,-1.9508,-1.944,-1.9426,-1.9485,-1.9564,-1.9628,-1.9686,-1.9889,-1.9998,-1.9998,-2.006,-2.0098,-2.0098,-2.0162,-2.0162,-0.0352,-0.0,0.0364,0.0469,0.0153,-0.0051,0.0259,-0.0296,-0.1271,-0.2685,-0.4228,-0.5225,-0.4892,-0.4489,-0.3977,-0.3377,-0.4263,0.0,0.0,-1.0928,-1.4527,-1.9542,-2.114,-2.2855,0.0,0.0,-2.2994,-2.5509,-2.5699,-2.5703,-2.5702,-2.564,-2.559,-2.557,-2.5546,-2.5517,-2.5499,-2.5547,-2.5571,-2.5571,-2.5571,-2.5591,-2.5642,-2.5586,-2.5571,-2.5576,-2.5576,-2.5576,-2.5566,-2.5565,-2.5565,-2.5561,-2.5488,-2.5461,-2.5426,-2.5332,-2.5292,-2.5272,-2.5241,-2.5176,-2.5087,-2.5003,-2.4861,-2.4749,-2.4749,-2.4407,-2.4039,-2.4018,-2.3855,-2.3707,-2.3707,-2.3611,-2.3504,-2.3526,-2.3535,-2.3558,-2.3642,-2.3792,-2.3794,-2.3363,-2.3241,-2.2404,-1.9927,-1.913,-1.8143,-1.6077,-1.6077,-1.6546,-1.7225,-1.8034,-1.8911,-1.992,-2.0473,-2.082,-2.0863,-2.1153,-2.0764,-1.9448,-1.9471,-1.9537,-1.949,-1.965,-1.9747,-1.9769,-1.9883,-1.9949,-1.9998,-2.0011,-2.0079,-2.0168,-2.0193,-2.0244,0.1049,0.1468,0.1957,0.1887,0.1569,0.1315,0.1419,0.069,-0.0,-0.0162,-0.0827,-0.1623,-0.2404,-0.2293,-0.2279,-0.2825,-0.2868,-0.3587,-0.5715,-0.7675,-1.1183,-1.7268,-1.8012,0.0,0.0,-2.1556,-2.1735,-2.5421,-2.5704,-2.57,-2.5703,-2.5644,-2.5596,-2.5599,-2.56,-2.5589,-2.5582,-2.5593,-2.5606,-2.5642,-2.5609,-2.5623,-2.5665,-2.5618,-2.5591,-2.5561,-2.5591,-2.56,0.0,-2.5576,-2.5576,-2.5586,-2.5525,-2.5481,-2.5456,-2.5367,-2.5322,-2.5303,-2.5264,-2.5213,-2.5126,-2.5058,-2.4942,-2.4813,-2.4695,-2.4424,-2.4136,-2.3969,-2.3834,-2.3719,-2.3723,-2.3658,-2.3593,-2.3571,-2.3606,-2.3649,-2.3611,-2.3771,-2.3812,-2.3313,-2.294,-2.2073,-2.0043,-1.8761,-1.7555,-1.6202,-1.5938,-1.626,-1.7261,-1.8019,-1.8753,-1.9513,-2.0102,-2.0429,-2.0407,-2.0935,-2.076,-1.9536,-1.9541,-1.9582,-1.9541,-1.9728,-1.9843,-1.9875,-1.9971,-2.005,-2.0108,-2.0107,-2.0159,-2.0238,-2.0263,-2.0306,0.0,0.2987,0.371,0.3285,0.2997,0.2779,0.2785,0.1965,0.0,0.1333,0.028,-0.0784,-0.1398,-0.1734,-0.207,-0.2514,-0.2517,-0.2409,-0.2183,-0.571,-0.9732,-1.3601,-1.4168,-1.5786,-1.9804,-1.9948,-2.1433,-2.5375,-2.5681,-2.5689,-2.5686,-2.5628,-2.5593,-2.5588,-2.5598,-2.5627,-2.5696,-2.5642,-2.5634,-2.5697,-2.5632,-2.5595,-2.5604,-2.5599,-2.5564,0.0,-2.5564,-2.5585,0.0,-2.5525,-2.5541,-2.5589,-2.5525,-2.5456,-2.5411,-2.5411,-2.5368,-2.5303,-2.5243,-2.5213,-2.5191,-2.5105,-2.4997,-2.4814,-2.4459,-2.4316,-2.4247,-2.3901,-2.3728,-2.3629,-2.3628,-2.3633,-2.3616,-2.354,-2.3655,-2.3726,-2.3547,-2.3639,-2.3795,-2.3811,-2.2673,-2.1701,-2.1705,-1.9255,-1.7468,-1.8031,-1.6904,-1.6502,-1.7932,-1.8289,-1.8715,-1.9535,-2.0396,-2.0568,-1.971,-1.9837,-1.9894,-1.9686,-1.9628,-1.9605,-1.9605,-1.9795,-1.9928,-1.9998,-2.0125,-2.0238,-2.0285,-2.0301,-2.0308,-2.0292,-2.0363,-2.0353,0.3815,0.0,0.3737,0.3863,0.379,0.3813,0.0,0.4131,0.3553,0.2117,0.0949,0.0056,-0.0335,-0.0783,-0.1176,-0.1285,-0.1677,-0.1903,-0.1734,-0.5661,-0.8867,-0.9721,-1.0257,-1.3064,-1.9422,-1.7496,-1.8526,-2.4981,-2.5517,-2.555,-2.5552,-2.5525,-2.5518,-2.5524,-2.5574,-2.5629,-2.5695,-2.5679,-2.568,-2.5697,-2.5626,-2.5603,-2.5604,-2.5553,-2.5515,-2.5499,-2.5525,0.0,-2.5517,-2.551,-2.551,-2.5517,-2.5515,-2.5488,-2.548,-2.5482,-2.5476,-2.5441,-2.5378,-2.5293,-2.5171,-2.4997,-2.487,-2.4622,-2.3913,-2.4018,-2.433,-2.4095,-2.3976,-2.3915,-2.3905,-2.3905,-2.3864,-2.3689,-2.368,-2.35,-2.2695,-2.2126,-2.1637,-2.115,-2.0353,-1.9586,-1.902,-1.8444,-1.7648,-1.6487,-1.6638,-1.6974,-1.7177,-1.7947,-1.8795,-1.9663,-1.9948,-2.0025,-1.9919,-2.0417,-2.0379,-1.953,-1.9546,-1.9604,-1.9605,-1.9788,-1.9932,-2.0001,-2.0125,-2.0214,-2.0219,-2.0277,-2.0299,-2.0301,-2.0321,-2.0334,0.4184,0.4553,0.4655,0.457,0.4495,0.4532,0.4782,0.4646,0.413,0.2892,0.1618,0.067,0.0559,0.0111,-0.033,-0.0558,-0.0829,-0.1154,-0.1563,-0.3765,-0.5498,-0.5846,-0.6147,-0.9273,0.0,-1.5637,-1.7521,-2.4844,-2.546,-2.5498,-2.5499,-2.5499,-2.5503,-2.5498,-2.5566,-2.5629,-2.5703,-2.5703,-2.5703,-2.5704,-2.5657,-2.5632,-2.5586,-2.5154,-2.493,-2.488,-2.4483,0.0,-2.4307,-2.4312,-2.4544,-2.49,-2.4867,-2.5126,-2.5499,-2.5501,-2.5476,-2.545,-2.5405,-2.5332,-2.5213,-2.5009,-2.4911,-2.4648,-2.3652,-2.3526,-2.3694,-2.3612,-2.3763,-2.3967,-2.3996,-2.3653,-2.3281,-2.319,-2.3088,-2.2756,-2.1841,-2.1331,-2.0856,-2.0149,-1.9462,-1.8904,-1.8565,-1.8027,-1.7343,-1.639,-1.642,-1.6669,-1.6944,-1.7785,-1.8711,-1.961,-1.9673,-1.9695,-1.9762,-2.0155,-2.0148,-1.9531,-1.9619,-1.9636,-1.9504,-1.9793,-1.9979,-2.004,-2.0153,-2.0178,-2.0151,-2.0195,-2.0211,-2.0208,-2.0241,-2.0311,0.3919,0.4856,0.5445,0.5064,0.5044,0.5021,0.496,0.4679,0.4214,0.366,0.2453,0.1452,0.1341,0.082,0.0325,0.0,-0.0164,-0.0542,-0.1393,-0.1678,-0.2013,-0.2738,-0.2962,0.0,-1.365,-1.4452,-1.7515,-2.481,-2.5427,-2.5449,-2.5449,-2.5461,-2.5472,-2.5478,-2.5551,-2.5625,-2.5681,-2.5687,-2.5703,-2.5698,-2.5689,-2.5593,-2.5377,-2.476,-2.4303,-2.3973,0.0,0.0,-2.2907,-2.29,-2.3342,-2.4019,-2.4088,-2.4523,-2.5116,-2.5224,-2.5239,-2.5186,-2.5312,-2.5322,-2.5242,-2.5075,-2.4994,-2.4754,-2.3599,-2.3073,-2.2859,-2.2803,-2.3142,-2.3492,-2.3571,-2.2933,-2.2287,-2.2246,-2.2012,-2.1608,-2.0896,-2.048,-2.0064,-1.9582,-1.8824,-1.8365,-1.8612,-1.7642,-1.6826,-1.6707,-1.6284,-1.6248,-1.7003,-1.7732,-1.855,-1.9513,-1.955,-1.9508,-1.9523,-1.9637,-1.9673,-1.9592,-1.9812,-1.9864,-1.9637,-1.9994,-2.0138,-2.0058,-2.0125,-2.0143,-2.0069,-2.0069,-2.0078,-2.0097,-2.0163,-2.0321,0.349,0.4008,0.4298,0.4471,0.4865,0.5267,0.5222,0.5712,0.5762,0.0,0.3729,0.3063,0.2574,0.1171,0.0223,0.067,-0.0111,-0.0836,-0.1009,0.0,-0.2459,-0.235,0.0,-0.6608,-1.3627,-1.4383,-1.7394,-2.46,-2.5208,-2.5253,-2.5244,-2.5292,-2.5361,-2.5416,-2.5476,-2.5544,-2.5613,-2.5668,-2.5703,-2.5699,-2.5636,-2.5219,-2.4524,-2.5072,-2.4508,-2.3132,0.0,-2.3574,-2.2898,-2.2901,-2.3014,-2.3253,-2.3917,-2.3819,-2.3364,-2.3999,-2.4197,-2.4235,-2.4912,-2.5132,-2.5129,-2.5095,-2.4966,-2.4667,-2.3732,-2.3156,-2.2685,-2.2008,-2.1723,-2.1624,-2.1633,-2.1523,-2.1334,-2.1105,-2.0546,-1.9989,-1.963,-1.8043,-1.685,-1.742,-1.643,-1.5753,-1.6507,-1.6649,-1.6434,-1.5819,-1.634,-1.6886,-1.708,-1.774,-1.8573,-1.9576,-1.9574,-1.9546,-1.966,-1.9696,-1.9647,-1.9523,-2.0224,-2.0653,-2.0671,-2.0894,-2.0643,-1.9862,-1.9969,-1.9999,-1.9936,-1.9928,-1.9981,-2.0098,-2.0115,-2.0523,0.2592,0.3267,0.3418,0.4267,0.4599,0.4741,0.4978,0.5208,0.529,0.0,0.0,0.0,0.2349,0.1214,0.0436,0.0381,-0.0332,-0.1009,-0.1344,-0.1845,-0.2347,0.0,0.0,-0.7914,-1.1628,-1.5176,-1.8797,-2.2497,-2.4279,-2.5195,-2.5197,-2.5261,-2.5332,-2.5398,-2.5474,-2.5511,-2.555,-2.5652,-2.5701,-2.5702,-2.567,-2.5434,-2.498,-2.4371,-2.3656,-2.2871,0.0,-2.1874,-2.1505,-2.1502,-2.2074,-2.2975,-2.3349,-2.3231,-2.2827,-2.2622,-2.2269,-2.2134,-2.3726,-2.3996,-2.3781,-2.4657,-2.4803,-2.4476,-2.3649,-2.308,-2.2391,-2.0626,-2.0594,-2.1007,-2.0657,-2.0092,-1.9497,-1.9014,-1.8534,-1.8043,-1.7523,-1.6589,-1.5826,-1.5768,-1.5236,-1.495,-1.5425,-1.5697,-1.5732,-1.5436,-1.6305,-1.7008,-1.7037,-1.8006,-1.8855,-1.933,-1.9191,-1.915,-1.9352,-1.9376,-1.9434,-1.96,-1.9875,-2.0126,-2.0294,-2.0324,-2.017,-1.9806,-1.9902,-1.9913,-1.9852,-1.9881,-1.9926,-1.9996,-2.0467,-2.0938,0.0248,0.1807,0.2785,0.3954,0.4223,0.4224,0.441,0.4548,0.4649,0.4766,0.0,0.0,0.1954,0.1151,0.0376,-0.0373,-0.0822,-0.1344,-0.1902,-0.2234,-0.2908,-0.4197,-0.6447,-0.9075,-1.1974,-1.6162,-1.9552,-2.1631,-2.3889,-2.5166,-2.5101,-2.5206,-2.5261,-2.5214,-2.5341,-2.5392,-2.5381,-2.5521,-2.5615,-2.5681,-2.5682,-2.5541,-2.5249,-2.3841,-2.2981,-2.2522,-2.1164,-2.0465,-2.03,-2.0294,-2.1102,-2.2328,-2.2542,-2.2434,-2.2072,-2.1101,-2.0489,-2.0459,-2.2576,-2.2934,-2.265,-2.403,-2.4236,-2.3814,-2.3185,-2.2467,-2.148,-1.9513,-1.9388,-1.971,-1.9184,-1.8382,-1.7603,-1.7077,-1.6656,-1.6276,-1.5872,-1.5521,-1.5136,-1.4691,-1.4495,-1.4427,-1.4545,-1.4753,-1.4917,-1.4986,-1.6114,-1.6966,-1.6973,-1.8203,-1.9077,-1.9084,-1.8841,-1.8887,-1.9364,-1.9383,-1.9617,-2.0141,-2.0068,-2.0033,-2.0098,-2.0135,-2.0037,-1.9763,-1.9788,-1.9766,-1.9712,-1.9785,-1.9842,-1.9868,-2.0755,-2.1316,-0.4635,-0.1279,0.2545,0.305,0.3678,0.3959,0.3527,0.4233,0.4829,0.4268,0.0,0.0,0.0,0.095,-0.0276,-0.1389,-0.1696,-0.1957,-0.2569,0.0,-0.5202,-0.7807,-0.6987,-0.9528,-1.8079,-1.6972,-1.8207,-2.4241,-2.4952,-2.5021,-2.4842,-2.5066,-2.5041,-2.4667,-2.4952,-2.5103,-2.5032,-2.5168,-2.536,-2.561,-2.5613,-2.5179,-2.4387,-2.4191,-2.3226,-2.1683,-2.1501,-2.0993,-2.0304,-2.0298,-2.0405,-2.066,-2.1472,-2.1203,-2.0285,-1.9405,-1.9467,-2.025,-2.1903,-2.2488,-2.2602,-2.3352,-2.2989,-2.2256,-2.2123,-2.0864,-1.9412,-1.9239,-1.7824,-1.6332,-1.6225,-1.6128,-1.6031,-1.5934,-1.5364,-1.5037,-1.5659,-1.4691,-1.3854,-1.4486,-1.3999,-1.3514,-1.358,-1.3824,-1.4019,-1.4078,-1.565,-1.6844,-1.6907,-1.8146,-1.9016,-1.9005,-1.8824,-1.9138,-2.0211,-2.0258,-2.0602,-2.1496,-2.1713,-2.1576,-2.1032,-2.1531,-2.1123,-1.964,-1.9563,-1.9504,-1.9423,-1.9564,-1.9642,-1.9741,-2.0675,-2.1538,-0.2717,0.0044,0.1991,0.2859,0.3209,0.0,0.0,0.3544,0.3767,0.3508,0.2895,0.0,0.0,-0.0975,-0.1674,-0.2131,-0.211,-0.2325,-0.3023,-0.5332,-0.6784,-0.6329,-0.965,-1.2524,-1.3981,-1.5315,-1.7716,-2.1662,-2.2129,-2.2917,-2.4473,-2.4693,-2.4709,-2.4597,-2.479,-2.492,-2.4948,-2.5145,-2.5329,-2.5476,-2.5519,-2.5369,-2.5031,-2.4421,-2.3512,-2.2335,-2.1144,-2.0484,-2.0158,-1.9113,-1.9664,-2.107,-2.0321,-1.9516,-1.8705,-1.8252,-1.8289,-1.8948,-2.1562,-2.2479,-2.2607,-2.3285,-2.318,-2.2685,-2.2164,-2.1,-1.9682,-1.8663,-1.7754,-1.6905,-1.6194,-1.5538,-1.5023,-1.5007,-1.44,-1.3905,-1.4185,-1.3794,-1.3464,-1.3786,-1.3616,-1.3396,-1.3379,-1.3676,-1.4056,-1.4559,-1.5859,-1.6985,-1.7526,-1.8194,-1.8765,-1.9156,-1.9416,-1.9586,-1.9641,-2.0364,-2.0779,-2.077,-2.084,-2.0827,-2.0728,-2.0428,-2.001,-1.9489,-1.9442,-1.9359,-1.9218,-1.9527,-1.962,-1.9532,-2.0566,-2.1499,-0.3978,-0.0814,0.126,0.1927,0.0,0.0,0.3113,0.2932,0.2808,0.2995,0.2099,0.0675,-0.1251,0.0,0.0,0.0,-0.2857,-0.3041,-0.4012,-0.6265,-0.7559,-0.6853,-1.1234,-1.4153,-1.3828,-1.6098,-1.8659,-2.12,-2.158,-2.2191,-2.3305,-2.4031,-2.4122,-2.3417,-2.4195,-2.4635,-2.4681,-2.4901,-2.4979,-2.4897,-2.4965,-2.5184,-2.5491,-2.4274,-2.328,-2.2431,-2.0845,-1.9879,-1.934,-1.849,-1.903,-2.0262,-1.8812,-1.7928,-1.7437,-1.7029,-1.7243,-1.8124,-2.0814,-2.1736,-2.1904,-2.2852,-2.2642,-2.1931,-2.1377,-2.0248,-1.8995,-1.8141,-1.7383,-1.6786,-1.6545,-1.5557,-1.4613,-1.4571,-1.3931,-1.3329,-1.3278,-1.3278,-1.3278,-1.3329,-1.3329,-1.3422,-1.3675,-1.3967,-1.4465,-1.5261,-1.6329,-1.7252,-1.7801,-1.8136,-1.853,-1.9066,-1.972,-2.0069,-1.9967,-2.0802,-2.1292,-2.1166,-2.0664,-2.0409,-2.0491,-1.989,-1.9504,-1.9396,-1.9375,-1.9304,-1.9157,-1.9504,-1.9606,-1.9484,-2.0526,-2.1319,-0.9822,-0.4788,0.0355,0.0085,0.1476,0.0,0.2892,0.2447,0.2172,0.275,0.1176,-0.0602,-0.1557,-0.1968,0.0,-0.4165,-0.4059,-0.427,-0.5636,-0.6106,-0.7485,-1.0518,-1.1207,-1.3759,-1.9678,-2.0077,-2.1136,-2.3984,-2.4227,-2.3332,-2.1209,-2.3125,-2.3218,-2.0869,-2.3003,-2.4182,-2.4182,-2.431,-2.4176,-2.378,-2.3864,-2.4483,-2.5498,-2.3713,-2.246,-2.1637,-2.0699,-1.9313,-1.7783,-1.8715,-1.8569,-1.7697,-1.6919,-1.6609,-1.6503,-1.5642,-1.6381,-1.8027,-1.9557,-2.0116,-2.0365,-2.1888,-2.1095,-1.9518,-1.9509,-1.8194,-1.6865,-1.7672,-1.6499,-1.5374,-1.6897,-1.6125,-1.4897,-1.4736,-1.4042,-1.3354,-1.3227,-1.3201,-1.3201,-1.3201,-1.3201,-1.3505,-1.4432,-1.4719,-1.5123,-1.6072,-1.6993,-1.7611,-1.7603,-1.7955,-1.834,-1.8666,-1.9594,-2.0579,-2.15,-2.1758,-2.2256,-2.3118,-2.1674,-2.0713,-2.0503,-2.0349,-2.0018,-1.9413,-1.9326,-1.9291,-1.9301,-1.9497,-1.9592,-1.9625,-2.0549,-2.0994,-0.4461,-0.1039,0.0647,0.1782,0.2462,0.2914,0.0,0.2316,0.0,0.0,-0.0343,-0.1693,-0.2418,-0.2961,0.0,-0.505,-0.5058,-0.5112,-0.5609,-0.7807,-0.9,-0.7936,-1.1719,-1.5141,-1.6965,-1.7047,-1.8874,-2.3422,-2.2089,-2.0985,-2.0827,-2.2754,-2.294,-2.0875,-2.2337,-2.3206,-2.3345,-2.2963,-2.2842,-2.2953,-2.3062,-2.3025,-2.2862,-2.2939,-2.2168,-2.0765,-2.0441,-1.9686,-1.8666,-1.8316,-1.7337,-1.6135,-1.7081,-1.7072,-1.6569,-1.6926,-1.7734,-1.8711,-1.9177,-2.0499,-2.1865,-2.1053,-2.1123,-2.128,-1.9912,-1.819,-1.6847,-1.7561,-1.687,-1.6137,-1.7117,-1.6984,-1.6394,-1.5586,-1.4409,-1.3446,-1.3371,-1.3346,-1.3303,-1.3227,-1.3201,-1.3444,-1.419,-1.4588,-1.5245,-1.6564,-1.7241,-1.7737,-1.8111,-1.8591,-1.8822,-1.8659,-1.9412,-1.9799,-1.9503,-2.0281,-2.0717,-2.0595,-2.0274,-2.0376,-2.0976,-1.9875,-1.9226,-1.9196,-1.9216,-1.9184,-1.9082,-1.9426,-1.9546,-1.9466,-1.9998,-2.0552,-0.6199,-0.2177,0.0137,0.0848,0.1388,0.1807,0.1995,0.0,0.0,0.0,-0.1278,-0.2395,-0.2886,-0.3541,0.0,-0.5693,-0.5689,-0.5945,-0.7126,-0.8987,-0.9942,-0.918,-1.3281,-1.6233,-1.6382,-1.727,-1.9177,-2.2359,-2.1166,-2.0145,-1.9801,-2.1665,-2.1857,-1.9912,-2.1367,-2.2281,-2.2447,-2.2151,-2.202,-2.2009,-2.2162,-2.169,-2.0706,-2.1961,-2.1763,-2.0396,-1.9658,-1.9068,-1.8559,-1.7682,-1.6521,-1.54,-1.6379,-1.6659,-1.6524,-1.6702,-1.7706,-1.8955,-1.863,-1.9961,-2.1621,-2.0478,-2.0667,-2.114,-1.9944,-1.849,-1.7339,-1.7675,-1.7073,-1.6384,-1.6774,-1.6606,-1.6305,-1.6271,-1.5096,-1.3956,-1.3854,-1.3582,-1.3329,-1.3227,-1.3183,-1.3518,-1.4643,-1.5032,-1.5738,-1.7357,-1.7793,-1.8015,-1.8132,-1.8745,-1.8994,-1.8526,-1.9241,-1.9534,-1.9,-1.9764,-2.0125,-1.9843,-1.9721,-1.9947,-2.0542,-1.9485,-1.894,-1.9067,-1.9168,-1.92,-1.9124,-1.9471,-1.9605,-1.9527,-1.9809,-2.0245,-1.2531,-0.7178,-0.2225,-0.195,-0.0956,0.009,0.0403,-0.0224,-0.0809,-0.0809,0.0,-0.2755,-0.3173,-0.3853,-0.48,-0.6147,-0.6052,-0.6742,-0.9499,-0.9695,-1.0394,-1.2718,-1.5312,-1.7005,-1.7267,-1.9593,-2.1099,-2.1099,-2.1024,-2.022,-1.849,-2.0108,-2.0265,-1.8462,-2.0274,-2.135,-2.1489,-2.1607,-2.1442,-2.0999,-2.1181,-2.0544,-1.9273,-2.0928,-2.125,-2.0396,-1.8727,-1.7966,-1.782,-1.6963,-1.6135,-1.541,-1.5428,-1.5973,-1.6619,-1.5751,-1.689,-1.8756,-1.787,-1.8655,-2.0027,-1.9826,-1.9745,-1.9684,-1.9531,-1.8733,-1.7879,-1.7791,-1.7003,-1.619,-1.6177,-1.5532,-1.5271,-1.6746,-1.5815,-1.4564,-1.4449,-1.381,-1.3278,-1.321,-1.3188,-1.3705,-1.5448,-1.5784,-1.6411,-1.813,-1.8397,-1.8246,-1.7825,-1.8464,-1.8745,-1.8258,-1.8955,-1.9422,-1.9289,-1.9698,-1.9997,-2.0063,-1.9636,-1.9421,-1.9479,-1.9135,-1.8966,-1.8993,-1.9186,-1.9291,-1.9307,-1.9554,-1.9688,-1.9698,-1.9995,-2.0145,-1.4161,-1.365,-1.242,-0.4595,-0.1315,-0.0234,-0.1083,-0.1524,-0.1792,-0.1784,-0.2313,-0.3114,-0.429,-0.4653,-0.5215,-0.6473,-0.661,-0.7363,-0.9573,-0.9866,-1.0625,-1.2753,-1.5312,-1.7005,-1.7267,-1.9593,-2.1099,-2.1099,-2.0037,-1.9095,-1.8442,-1.905,-1.9097,-1.8424,-1.9694,-2.0481,-2.0666,-2.0131,-1.9991,0.0,-2.0224,-2.019,-2.0136,-2.0576,-2.0648,-2.036,-1.9298,-1.8454,-1.7759,-1.6933,-1.6459,-1.6316,-1.6983,-1.7742,-1.8358,-1.7485,-1.7517,-1.777,-1.6279,-1.6859,-1.8141,-1.743,-1.8027,-1.8878,-1.806,-1.7102,-1.636,-1.6637,-1.6061,-1.5576,-1.6555,-1.6246,-1.59,-1.6797,-1.5426,-1.389,-1.3818,-1.3489,-1.3227,-1.3201,-1.3396,-1.3917,-1.5064,-1.5689,-1.6409,-1.7473,-1.7645,-1.7608,-1.7501,-1.7658,-1.7687,-1.747,-1.7617,-1.7699,-1.7608,-1.7945,-1.8183,-1.8245,-1.8404,-1.8486,-1.8499,-1.8623,-1.8762,-1.8922,-1.9078,-1.9193,-1.9308,-1.9518,-1.9617,-1.9647,-2.0641,-2.1052,-1.631,-1.581,-1.4031,-0.5119,-0.22,-0.1559,-0.1766,-0.2243,-0.2776,-0.3108,-0.3152,-0.3548,-0.4676,-0.5113,-0.5892,-0.7787,-0.8092,-0.9161,-1.224,-1.2675,-1.3448,-1.5527,-1.6893,-1.7721,-1.7868,-1.9077,-1.9863,-1.9863,-1.9121,-1.8336,-1.7576,-1.8278,-1.8355,-1.7606,-1.8874,-1.9676,-1.987,-1.9497,-1.9531,-1.995,-1.9919,-2.0067,-2.036,-2.0447,-2.0458,-2.0371,-1.9919,-1.9233,-1.8359,-1.7518,-1.7149,-1.713,-1.716,-1.7921,-1.8886,-1.802,-1.7962,-1.8078,-1.6397,-1.6647,-1.7554,-1.6653,-1.718,-1.807,-1.7476,-1.6894,-1.6386,-1.6169,-1.5679,-1.5251,-1.5533,-1.5251,-1.4993,-1.5375,-1.4829,-1.4216,-1.4176,-1.3743,-1.3447,-1.3768,-1.3807,-1.4222,-1.5506,-1.6273,-1.6843,-1.7198,-1.7343,-1.7343,-1.7175,-1.7231,-1.7167,-1.6942,-1.701,-1.7027,-1.6926,-1.7175,-1.74,-1.7455,-1.778,-1.7953,-1.7953,-1.8243,-1.8526,-1.8789,-1.9035,-1.9168,-1.9246,-1.9846,-2.0164,-2.0247,-2.1365,-2.1838,-1.765,-1.449,-1.0175,-0.394,-0.2568,-0.2628,-0.217,-0.2645,-0.3402,-0.413,-0.4043,-0.4128,-0.4986,-0.5516,-0.6643,-0.9102,-0.9497,-1.0959,-1.5117,-1.547,-1.6066,-1.8159,-1.8235,-1.8099,-1.8099,-1.8292,-1.8437,-1.8437,-1.8127,-1.7637,-1.6935,-1.7622,-1.7716,-1.7019,-1.8218,-1.8975,-1.9184,-1.9213,-1.9421,-1.9807,-1.9871,-2.0038,-2.0297,-2.0428,-2.0454,-2.0418,-2.0415,-1.9923,-1.905,-1.8185,-1.7901,-1.7943,-1.7058,-1.7744,-1.9102,-1.808,-1.8164,-1.854,-1.6859,-1.6705,-1.7144,-1.6348,-1.6545,-1.7061,-1.6931,-1.6817,-1.656,-1.5811,-1.5373,-1.5022,-1.4437,-1.4067,-1.388,-1.3985,-1.4432,-1.4829,-1.4796,-1.4187,-1.3854,-1.456,-1.4458,-1.4725,-1.6204,-1.6868,-1.715,-1.6969,-1.7093,-1.7077,-1.6817,-1.6876,-1.685,-1.6588,-1.6704,-1.6773,-1.667,-1.6893,-1.7076,-1.7142,-1.7415,-1.7587,-1.7572,-1.805,-1.8454,-1.8771,-1.9129,-1.9302,-1.9276,-2.0312,-2.0865,-2.0988,-2.2007,-2.2502,-1.5824,-0.8465,-0.1378,-0.0596,-0.0709,-0.1402,-0.2695,0.0,-0.2994,0.0,-0.4574,-0.5096,-0.6016,-0.6279,-0.7026,-0.9142,-0.9497,-1.0959,-1.5117,-1.4552,-1.4478,-1.6565,-1.6625,-1.6512,-1.6512,-1.7502,-1.8161,-1.8161,-1.6901,-1.6707,-1.8004,-1.6862,-1.6782,-1.8128,-1.8315,-1.8529,-1.878,-1.8842,-1.9077,-1.9471,-1.9756,-2.004,-2.0305,-2.0376,-2.0439,-2.0492,-2.0487,-1.9987,-1.912,-1.8244,-1.8297,-1.8838,-1.7969,-1.8653,-1.9937,-1.8302,-1.777,-1.7635,-1.5965,-1.5445,-1.5501,-1.5328,-1.5336,-1.5408,-1.5333,-1.5249,-1.5132,-1.4838,-1.4686,-1.4663,-1.4908,-1.4513,-1.4185,-1.4718,-1.4908,-1.4946,-1.4821,-1.4476,-1.4456,-1.5359,-1.5586,-1.5862,-1.6536,-1.6528,-1.6429,-1.6336,-1.6336,-1.6336,-1.6289,-1.6316,-1.6344,-1.6355,-1.6375,-1.6421,-1.652,-1.6704,-1.6841,-1.6841,-1.7052,-1.7142,-1.7093,-1.8141,-1.8859,-1.913,-1.9575,-1.9721,-1.9546,-2.0724,-2.1261,-2.1195,-2.2305,-2.2926,-1.7539,-1.3465,-0.7985,-0.3029,-0.5087,-0.7644,-0.5037,-0.469,-0.4922,-0.4741,-0.4441,-0.4567,-0.579,-0.7193,-0.8829,-1.0906,-1.1495,-1.2736,-1.573,-1.4821,-1.4195,-1.5096,-1.5798,-1.6138,-1.5992,-1.7261,-1.8056,-1.7932,-1.7267,-1.6895,-1.6954,-1.6858,-1.688,-1.7049,-1.7826,-1.8344,-1.8597,-1.8652,-1.8938,-1.9401,-1.9746,-2.004,-2.0301,-2.0371,-2.0437,-2.0501,-2.0497,-2.0282,-1.9822,-1.8463,-1.8396,-1.9018,-1.7618,-1.7825,-1.8795,-1.7998,-1.7407,-1.6917,-1.6176,-1.5609,-1.527,-1.5695,-1.5496,-1.5178,-1.5602,-1.534,-1.4885,-1.4785,-1.4642,-1.4565,-1.4806,-1.4523,-1.423,-1.4543,-1.4807,-1.5098,-1.5444,-1.5293,-1.5263,-1.5912,-1.631,-1.6539,-1.663,-1.6409,-1.6234,-1.6187,-1.6194,-1.6194,-1.6194,-1.6194,-1.6214,-1.6234,-1.6394,-1.6546,-1.6625,-1.6747,-1.6901,-1.7018,-1.696,-1.7035,-1.728,-1.8144,-1.8771,-1.9038,-2.0042,-2.0588,-2.0677,-2.1644,-2.2054,-2.1947,-2.2937,-2.3379,-1.8605,-1.8344,-1.5847,-0.8803,-1.056,-1.2716,-0.7693,0.0,-0.6563,0.0,-0.4174,-0.4041,-0.5,-0.7451,-1.0042,-1.224,-1.3055,-1.4125,-1.6208,-1.4829,-1.3625,-1.3625,-1.4796,-1.5524,-1.527,-1.6926,-1.7945,-1.7752,-1.7675,-1.7261,-1.6382,-1.7102,-1.7207,-1.6434,-1.7471,-1.8128,-1.8344,-1.8508,-1.8869,-1.94,-1.9649,-1.9963,-2.0295,-2.0349,-2.0429,-2.0518,-2.0508,-2.0508,-2.0408,-1.888,-1.8632,-1.9036,-1.747,-1.7238,-1.7771,-1.7501,-1.7013,-1.6465,-1.6253,-1.5743,-1.5305,-1.5901,-1.566,-1.5237,-1.5838,-1.5513,-1.4929,-1.4928,-1.4757,-1.4624,-1.4893,-1.4628,-1.434,-1.4567,-1.4852,-1.5286,-1.6124,-1.6278,-1.637,-1.6636,-1.691,-1.7018,-1.6746,-1.6471,-1.6269,-1.6214,-1.6269,-1.6289,-1.6242,-1.6289,-1.6316,-1.6269,-1.6482,-1.6625,-1.6644,-1.6799,-1.6934,-1.7093,-1.696,-1.7108,-1.7632,-1.8369,-1.8993,-1.9476,-2.0825,-2.1485,-2.1426,-2.2284,-2.265,-2.2575,-2.3208,-2.3392,-1.709,-1.8509,-1.9462,-1.7892,-1.5374,-1.2646,-1.0292,0.0,-0.6885,-0.4238,-0.3995,-0.4168,-0.3779,-0.6519,-0.9658,-1.2191,-1.3049,-1.4131,-1.6205,-1.3907,-1.2023,-1.2023,-1.3195,-1.3943,-1.3731,-1.6194,-1.7721,-1.753,-1.7498,-1.7509,-1.7513,-1.7454,-1.7447,-1.7513,-1.7526,-1.7656,-1.7927,-1.8377,-1.886,-1.9409,-1.9429,-1.9736,-2.0295,-2.0301,-2.0409,-2.0586,-2.0527,-2.0541,-2.0516,-1.9614,-1.9217,-1.9109,-1.8189,-1.7824,-1.77,-1.6875,-1.6542,-1.6378,-1.5551,-1.5237,-1.5209,-1.5247,-1.5228,-1.5199,-1.5241,-1.5132,-1.499,-1.499,-1.4893,-1.4915,-1.5499,-1.5072,-1.466,-1.5364,-1.5369,-1.5501,-1.6607,-1.7406,-1.7872,-1.7824,-1.757,-1.7288,-1.7018,-1.6763,-1.649,-1.6242,-1.6425,-1.6509,-1.6328,-1.6528,-1.6599,-1.6417,-1.6425,-1.6436,-1.6493,-1.6678,-1.6815,-1.6815,-1.6977,-1.7369,-1.8044,-1.9017,-2.003,-2.1053,-2.2099,-2.216,-2.1223,-2.2203,-2.2704,-2.2695,-2.2738,-2.2712,-1.6022,-1.7772,-1.9093,-1.6917,-1.6971,-1.606,-1.0295,-0.9185,-0.8366,-0.4788,-0.3245,-0.3068,-0.4694,-0.7921,-1.0406,-1.0642,-1.2499,-1.3832,-1.357,-1.1773,-1.0502,-1.0502,-1.2629,-1.4006,-1.3811,-1.6338,-1.791,-1.7706,-1.7522,-1.7483,-1.7527,-1.7378,-1.7354,-1.7527,-1.7425,-1.7566,-1.7953,-1.8213,-1.8577,-1.9019,-1.9277,-1.961,-1.9981,-2.0163,-2.032,-2.0471,-2.0492,-2.0541,-2.0526,-1.9656,-1.9261,-1.9055,-1.762,-1.7026,-1.6859,-1.5992,-1.5676,-1.5705,-1.5955,-1.5676,-1.5378,-1.6445,-1.6083,-1.5299,-1.5853,-1.558,-1.5054,-1.5006,-1.4926,-1.4888,-1.5022,-1.4777,-1.4658,-1.5319,-1.5755,-1.6241,-1.6991,-1.7599,-1.7983,-1.7914,-1.7627,-1.7369,-1.7264,-1.7035,-1.6815,-1.672,-1.6797,-1.6841,-1.6763,-1.6686,-1.6615,-1.6543,-1.6562,-1.6599,-1.6625,-1.6773,-1.6934,-1.7043,-1.6825,-1.7171,-1.8186,-1.902,-1.9825,-2.0618,-2.165,-2.2264,-2.2425,-2.2574,-2.2484,-2.2186,-2.1975,-2.1757,-1.5181,-1.6039,-1.6843,-1.6386,-1.7512,-1.7105,-1.0955,-1.0193,-0.9426,-0.4543,-0.2845,-0.2758,-0.4465,-0.7744,-1.007,-0.973,-1.1531,-1.2693,-1.1833,-1.0542,-0.9683,-0.9683,-1.1901,-1.3357,-1.3153,-1.565,-1.7217,-1.702,-1.7231,0.0,-1.7441,-1.7281,-1.7265,-1.7441,-1.7361,-1.7551,-1.7992,-1.8095,-1.8364,-1.8806,-1.9068,-1.9411,-1.9807,-1.9982,-2.0181,-2.0371,-2.0438,-2.0521,-2.0555,-1.998,-1.952,-1.9082,-1.793,-1.7253,-1.6859,-1.6262,-1.6042,-1.6118,-1.6696,-1.6522,-1.6176,-1.7023,-1.6535,-1.5693,-1.5984,-1.5613,-1.5092,-1.5023,-1.4944,-1.4981,-1.5448,-1.5464,-1.5382,-1.5442,-1.6009,-1.6606,-1.687,-1.752,-1.8031,-1.7944,-1.7726,-1.7511,-1.7416,-1.7264,-1.7109,-1.701,-1.701,-1.701,-1.6942,-1.6789,-1.6641,-1.6581,-1.6599,-1.6617,-1.6599,-1.6765,-1.6952,-1.7068,-1.6825,-1.7171,-1.8212,-1.8939,-1.9601,-2.0305,-2.1253,-2.1973,-2.2511,-2.2233,-2.1927,-2.1619,-2.1318,-2.0911,0.0,0.0,0.0,-1.7182,-1.7208,-1.5467,-1.243,0.0,-0.991,-0.3433,-0.2836,-0.3317,-0.2924,-0.5718,-0.8414,-0.9518,-1.0202,-1.0756,-1.1182,-1.0356,-0.9683,-0.9683,-1.1013,-1.1812,-1.1637,-1.406,-1.5567,-1.5367,-1.6536,-1.723,-1.7245,-1.7208,-1.724,-1.7289,-1.7345,-1.7589,-1.7983,-1.7983,-1.8261,-1.878,-1.8788,-1.9139,-1.9777,-1.9787,-1.9972,-2.0291,-2.0366,-2.047,-2.0592,-2.0595,-2.0061,-1.924,-1.921,-1.8635,-1.7829,-1.7732,-1.7702,-1.7702,-1.7731,-1.7722,-1.7587,-1.6821,-1.6561,-1.6378,-1.5503,-1.5188,-1.5125,-1.5061,-1.4945,-1.5226,-1.6865,-1.7186,-1.6852,-1.587,-1.6144,-1.6572,-1.6303,-1.7287,-1.8184,-1.8027,-1.7886,-1.7712,-1.7464,-1.7416,-1.7313,-1.7068,-1.7076,-1.7043,-1.6841,-1.6823,-1.6704,-1.652,-1.6501,-1.6448,-1.639,-1.6704,-1.6842,-1.6789,-1.6977,-1.7419,-1.8152,-1.877,-1.9471,-2.027,-2.0998,-2.1347,-2.1276,-2.115,-2.107,-2.107,-2.0782,-2.0169,-1.4218,0.0,0.0,0.0,0.0,0.0,0.0,0.0,-0.9132,-0.3295,-0.2213,-0.2782,-0.4217,-0.4626,-0.5401,-0.7364,-0.9335,-1.0363,-0.9742,-0.9394,-0.9306,-0.9643,-1.1013,-1.1872,-1.1805,-1.338,-1.4367,0.0,-1.5274,-1.5865,-1.5918,-1.6787,-1.7265,-1.724,-1.733,-1.7458,-1.7557,-1.7803,-1.8035,-1.8229,-1.8599,-1.8898,-1.9094,-1.9578,-1.9849,-1.9963,-2.027,-2.0416,-2.046,-2.0556,-2.042,-2.0077,-1.9449,-1.9011,-1.8667,-1.7955,-1.7702,-1.7789,-1.8424,-1.8232,-1.777,-1.8181,-1.7908,-1.7279,-1.6403,-1.6093,-1.6034,-1.5954,-1.5808,-1.59,-1.6902,-1.7061,-1.691,-1.6662,-1.709,-1.7485,-1.7263,-1.7851,-1.8333,-1.8061,-1.7847,-1.7695,-1.7618,-1.7618,-1.7595,-1.7526,-1.7447,-1.7368,-1.732,-1.6977,-1.6704,-1.6644,-1.6436,-1.6269,-1.6269,-1.6375,-1.6448,-1.6448,-1.6535,-1.6931,-1.7662,-1.8518,-1.916,-1.9633,-2.0552,-2.0926,-2.0712,-2.0722,-2.064,-2.0431,-1.9577,-1.9067,-1.4788,-1.5807,0.0,0.0,0.0,0.0,-1.2117,-1.0694,-0.8935,0.0,-0.3414,-0.3798,-0.5961,-0.544,-0.5519,-0.8001,-0.8785,-0.8982,-0.8732,-0.8895,-0.9185,-0.9639,-1.0912,-1.1728,-1.1717,-1.3378,-1.4441,-1.4441,-1.5441,-1.6063,-1.6111,-1.6809,-1.7215,-1.7207,-1.7289,-1.7346,-1.7384,-1.7595,-1.7803,-1.8005,-1.8375,-1.8645,-1.8813,-1.9201,-1.9434,-1.9523,-1.9733,-1.9931,-2.0117,-2.0254,-2.0381,-2.0448,-1.9908,-1.9682,-1.9571,-1.8996,-1.8782,-1.8859,-1.9369,-1.9206,-1.8811,-1.8991,-1.8718,-1.8175,-1.7307,-1.6974,-1.6886,-1.6818,-1.6904,-1.7079,-1.7387,-1.7417,-1.7366,-1.7371,-1.7603,-1.7752,-1.7567,-1.8029,-1.8404,-1.8061,-1.7869,-1.7763,-1.7718,-1.771,-1.771,-1.771,-1.7486,-1.7336,-1.7336,-1.6868,-1.652,-1.6474,-1.6281,-1.6159,-1.6131,-1.6199,-1.6262,-1.6219,-1.6289,-1.6439,-1.6732,-1.7782,-1.84,-1.8465,-1.9622,-2.0012,-1.9615,-2.0062,-1.9984,-1.9398,-1.8767,-1.8235,-1.5696,0.0,0.0,0.0,0.0,0.0,-1.3237,-1.1334,-0.9048,0.0,-0.5406,-0.559,-0.7511,-0.7217,-0.7447,-0.9695,-0.8554,-0.7615,-0.8228,-0.8765,-0.9319,-0.9763,-1.0954,-1.1702,-1.171,-1.3713,-1.4995,-1.4995,-1.6168,-1.6923,-1.6981,-1.7052,-1.7085,-1.7069,-1.715,-1.7257,-1.7377,-1.7319,-1.7493,-1.7931,-1.8009,-1.8293,-1.8699,-1.8765,-1.8897,-1.9075,-1.9039,-1.925,-1.962,-1.9797,-2.0121,-2.0496,-2.0432,-2.04,-2.0378,-2.0323,-2.0304,-2.0296,-2.0304,-2.0294,-2.0178,-1.9471,-1.923,-1.9066,-1.8207,-1.785,-1.7705,-1.7585,-1.8012,-1.8436,-1.8201,-1.8115,-1.8109,-1.8049,-1.7932,-1.7769,-1.7586,-1.8035,-1.8393,-1.8061,-1.7953,-1.7839,-1.771,-1.7687,-1.7687,-1.771,-1.7344,-1.7093,-1.7093,-1.6617,-1.6254,-1.6194,-1.6103,-1.6039,-1.5975,-1.6103,-1.6131,-1.6039,-1.6103,-1.6006,-1.5764,-1.6918,-1.746,-1.7309,-1.8571,-1.8968,-1.8458,-1.9259,-1.9155,-1.8226,-1.803,-1.741,0.0,0.0,0.0,0.0,0.0,0.0,-1.0013,-0.9492,-0.8826,0.0,-0.5345,-0.5773,-0.6236,-0.7253,-0.784,-0.7285,-0.902,-0.9933,-0.8484,-0.9271,-1.0141,-1.0611,-1.2063,-1.3031,-1.303,-1.3472,-1.3754,-1.3754,-1.488,-1.5763,-1.6193,-1.677,-1.6842,-1.6249,-1.6858,-1.7199,-1.724,-1.6769,-1.6857,-1.7509,-1.7224,-1.7445,-1.8166,-1.8597,-1.8819,-1.8868,-1.9075,-1.9116,-1.9092,-1.949,-1.9987,-2.0492,-2.0429,-2.0369,-2.0315,-2.0299,-2.0267,-2.023,-2.0272,-2.0294,-2.0272,-2.0121,-2.007,-1.9906,-1.9085,-1.8722,-1.8468,-1.8028,-1.8486,-1.9103,-1.8992,-1.8892,-1.885,-1.899,-1.8837,-1.861,-1.842,-1.8439,-1.8397,-1.807,-1.7909,-1.7794,-1.771,-1.765,-1.765,-1.7687,-1.7304,-1.701,-1.701,-1.6562,-1.6179,-1.606,-1.5934,-1.5856,-1.5848,-1.5856,-1.5791,-1.5631,-1.5667,-1.5802,-1.6019,-1.6837,-1.7473,-1.7919,-1.8761,-1.9058,-1.8731,-1.8647,-1.8284,-1.7632,-1.6437,-1.5497,0.0,0.0,0.0,-1.4874,0.0,0.0,0.0,-0.9172,-0.8005,-0.6629,-0.6165,-0.6468,-0.8012,-0.8109,-0.8327,-0.9457,-0.9672,-0.9569,-0.9169,-1.0455,-1.1613,-1.2085,-1.3422,-1.4301,-1.4301,-1.4868,-1.5087,-1.4724,-1.5071,-1.5344,-1.5448,-1.5965,-1.6019,-1.5467,-1.5835,-1.6073,-1.6101,-1.5796,-1.5871,-1.6297,-1.6171,-1.6561,-1.7394,-1.7229,-1.7674,-1.8531,-1.816,-1.842,-1.9124,-1.9394,-1.9862,-2.0398,-2.0362,-2.0325,-2.0296,-2.0304,-2.026,-2.0201,-2.024,-2.0287,-2.035,-2.0354,-2.0298,-2.0174,-1.9769,-1.9508,-1.9245,-1.873,-1.8935,-1.9246,-1.9014,-1.8887,-1.8843,-1.9051,-1.8922,-1.8706,-1.8573,-1.8505,-1.8365,-1.8048,-1.7939,-1.7856,-1.771,-1.7673,-1.7627,-1.7549,-1.7376,-1.715,-1.6876,-1.6562,-1.6254,-1.5991,-1.5712,-1.5544,-1.5544,-1.5463,-1.5359,-1.5262,-1.53,-1.5362,-1.5382,-1.6204,-1.6991,-1.7723,-1.8268,-1.839,-1.8108,-1.7915,-1.7747,-1.7564,-1.6372,-1.5192,0.0,0.0,0.0,0.0,0.0,-1.0684,0.0,0.0,0.0,0.0,0.0,0.0,0.0,0.0,0.0,-1.1541,0.0,0.0,0.0,-1.1864,0.0,-1.314,-1.4332,-1.5146,-1.5146,-1.5969,-1.6315,-1.5828,-1.5394,-1.5038,-1.48,-1.5112,-1.5137,-1.4796,-1.4864,-1.493,-1.4983,-1.484,-1.4901,-1.5164,-1.5277,-1.5824,-1.6684,-1.6192,-1.6802,-1.8204,-1.7421,-1.7833,-1.9045,-1.9238,-1.9608,-2.0071,-2.0254,-2.0296,-2.0258,-2.0294,-2.0227,-2.0157,-2.019,-2.0282,-2.0376,-2.0399,-2.032,-2.0208,-2.0157,-1.9983,-1.9712,-1.9274,-1.9137,-1.9072,-1.8735,-1.8596,-1.8622,-1.8807,-1.8723,-1.8559,-1.8502,-1.8434,-1.8313,-1.807,-1.8048,-1.7988,-1.7763,-1.7718,-1.7641,-1.7511,-1.7502,-1.7344,-1.6918,-1.6651,-1.6367,-1.6039,-1.5617,-1.5366,-1.5336,-1.5156,-1.502,-1.4951,-1.4982,-1.501,-1.496,-1.5928,-1.675,-1.738,-1.7747,-1.7754,-1.7488,-1.7598,-1.7598,-1.7509,-1.6593,-1.5386,0.0,0.0,0.0,0.0,-1.0461,0.0,0.0,0.0,-0.6567,-0.7224,0.0,0.0,0.0,0.0,0.0,0.0,0.0,0.0,-1.1796,-1.3089,-1.3645,-1.24,-1.384,-1.4927,-1.4927,-1.4627,-1.4595,-1.5002,-1.4539,-1.4278,-1.4359,-1.4736,-1.4775,-1.4384,-1.471,-1.4897,-1.4916,-1.4268,-1.4298,-1.502,-1.5103,-1.5561,-1.6391,-1.7233,-1.7778,-1.8043,-1.8093,-1.8101,-1.8113,-1.8766,-1.9087,-1.9227,-2.0063,-2.0277,-2.0144,-2.0258,-2.0142,-1.9962,-2.0139,-2.025,-2.0325,-2.0376,-2.035,-2.0236,-2.0002,-1.971,-1.9383,-1.9031,-1.8762,-1.8569,-1.8464,-1.843,-1.8467,-1.8671,-1.8614,-1.8494,-1.8434,-1.8371,-1.8256,-1.8113,-1.8184,-1.8166,-1.7839,-1.7749,-1.7732,-1.7839,-1.7604,-1.7408,-1.7415,-1.6926,-1.6535,-1.6351,-1.5875,-1.5522,-1.5396,-1.5261,-1.5056,-1.4739,-1.4739,-1.5098,-1.5896,-1.7086,-1.7605,-1.7393,-1.7747,-1.7875,-1.7835,-1.8247,-1.7955,-1.6954,-1.6034,-1.5124,0.0,0.0,0.0,0.0,0.0,0.0,-0.5806,0.0,-0.5161,0.0,0.0,0.0,0.0,0.0,0.0,0.0,-1.0483,0.0,0.0,0.0,-1.2517,-1.303,0.0,0.0,-1.413,-1.3735,-1.3802,-1.4653,-1.3719,-1.3342,-1.3859,-1.3609,-1.3435,-1.3439,-1.3255,-1.3298,-1.362,-1.3746,-1.3964,-1.4314,-1.4767,-1.5429,-1.6242,-1.6215,-1.6827,-1.7855,-1.7525,-1.7764,-1.8448,-1.8807,-1.9132,-1.9461,-1.9967,-2.0195,-2.0221,-2.0278,-2.023,-2.0141,-2.0223,-2.0301,-2.0344,-2.0246,-2.0209,-2.0106,-1.9728,-1.9567,-1.9392,-1.8771,-1.8617,-1.857,-1.8344,-1.8266,-1.8333,-1.8536,-1.8476,-1.838,-1.8351,-1.8286,-1.8215,-1.8113,-1.8213,-1.8249,-1.807,-1.7967,-1.7901,-1.7749,-1.7735,-1.7658,-1.7415,-1.7224,-1.6969,-1.6549,-1.6463,-1.6077,-1.5284,-1.573,-1.5748,-1.5029,-1.5002,-1.5074,-1.5278,-1.5941,-1.6407,-1.6574,-1.6749,-1.6937,-1.707,-1.7115,-1.6913,-1.6427,-1.6454,-1.5611,-1.371,0.0,0.0,0.0,0.0,0.0,0.0,0.0,0.0,0.0,0.0,0.0,0.0,0.0,0.0,0.0,0.0,-1.0204,0.0,-1.0753,0.0,0.0,0.0,0.0,0.0,-1.2374,-1.2539,-1.3652,-1.2689,-1.2465,-1.3431,-1.2867,-1.2639,-1.29,-1.2394,-1.2317,-1.2709,-1.3424,-1.3796,-1.3812,-1.4752,-1.5538,-1.6158,-1.5797,-1.6373,-1.7679,-1.722,-1.7619,-1.8577,-1.877,-1.9121,-1.9557,-1.9802,-2.0045,-2.0271,-2.0294,-2.0279,-2.0254,-2.0292,-2.0342,-2.0367,-2.0172,-2.0105,-2.0003,-1.954,-1.94,-1.9268,-1.8524,-1.8369,-1.834,-1.8035,-1.8023,-1.8091,-1.8255,-1.8251,-1.8223,-1.8223,-1.84,-1.8538,-1.8413,-1.8761,-1.8997,-1.8827,-1.8422,-1.8044,-1.7822,-1.7922,-1.79,-1.7595,-1.7739,-1.7697,-1.7261,-1.7456,-1.7176,-1.6114,-1.6695,-1.6711,-1.5846,-1.5813,-1.5624,-1.5145,-1.5476,-1.5828,-1.6137,-1.6264,-1.6447,-1.6625,-1.6576,-1.6347,-1.6045,-1.6608,-1.6011,0.0,0.0,0.0,-0.8299,0.0,0.0,0.0,0.0,-0.4784,0.0,0.0,0.0,0.0,0.0,0.0,0.0,0.0,0.0,0.0,0.0,0.0,0.0,0.0,0.0,0.0,-1.0182,-1.0282,0.0,-1.1278,-1.175,-1.3131,-1.294,-1.2917,-1.319,-1.2909,-1.2756,-1.2709,-1.3424,-1.3796,-1.3816,-1.5273,-1.6017,-1.6129,-1.6884,-1.7283,-1.7432,-1.7723,-1.7932,-1.8061,-1.8517,-1.8875,-1.9154,-1.948,-1.985,-2.0211,-2.0282,-2.0221,-2.0119,-2.025,-2.0337,-2.0365,-2.0167,-2.0102,-2.0012,-1.9544,-1.9191,-1.8806,-1.8268,-1.7937,-1.7679,-1.7407,-1.7517,-1.771,-1.771,-1.7869,-1.8013,-1.8013,-1.8771,-1.9391,-1.9192,-2.0105,-2.0793,-2.0392,-1.9147,-1.8217,-1.827,-1.8171,-1.8113,-1.816,-1.8512,-1.8754,-1.873,-1.8979,-1.8917,-1.8432,-1.8169,-1.7818,-1.7261,-1.7406,-1.7102,-1.6196,-1.6675,-1.6792,-1.6494,-1.6805,-1.698,-1.6993,-1.7439,-1.7022,-1.5797,-1.6025,-1.6089,0.0,0.0,-0.8441,-0.7062,0.0,0.0,0.0,0.0,0.0,0.0,0.0,0.0,0.0,0.0,0.0,0.0,0.0,0.0,0.0,0.0,0.0,0.0,0.0,0.0,0.0,0.0,0.0,0.0,-1.1411,0.0,-1.3438,-1.2702,-1.244,-1.2973,-1.2474,-1.2612,-1.3414,-1.4158,-1.477,-1.5273,-1.6305,-1.6778,-1.6767,-1.713,-1.7314,-1.733,-1.7496,-1.7704,-1.7944,-1.815,-1.8522,-1.899,-1.9191,-1.9597,-2.0086,-2.0186,-2.0255,-2.0313,-2.0346,-2.0383,-2.0301,-1.9702,-1.9497,-1.934,-1.8475,-1.8341,-1.8395,-1.7915,-1.7766,-1.7774,-1.7763,-1.7769,-1.7796,-1.7869,-1.8044,-1.8343,-1.8875,-1.9165,-1.9494,-2.0072,-2.0507,-2.0753,-2.0616,-2.0159,-1.9758,-1.9699,-1.9169,-1.8987,-1.9585,-1.9773,-1.9809,-1.9671,-2.0099,-2.0003,-1.8993,-1.8902,-1.869,-1.8257,-1.8295,-1.7788,-1.6571,-1.6703,-1.6517,-1.5926,-1.6248,-1.6292,-1.6091,-1.6034,-1.5834,-1.538,-1.506,-1.5065,-1.1951,-0.9827,0.0,-0.6461,-0.5095,0.0,-0.4806,0.0,-0.5249,0.0,0.0,0.0,0.0,0.0,0.0,0.0,0.0,0.0,0.0,-1.0398,0.0,0.0,0.0,0.0,0.0,-0.955,-1.0427,-1.2073,-1.1603,0.0,0.0,0.0,-1.2416,-1.2855,-1.244,-1.2493,-1.3116,-1.4404,-1.5153,-1.5384,-1.6712,-1.7273,-1.7174,-1.7011,-1.6936,-1.6951,-1.7121,-1.733,-1.7586,-1.8,-1.8463,-1.8911,-1.9098,-1.9448,-1.9892,-2.0115,-2.0278,-2.0404,-2.0404,-2.04,-2.0274,-1.946,-1.9202,-1.8996,-1.7921,-1.7804,-1.7978,-1.7562,-1.7509,-1.7608,-1.7718,-1.7791,-1.7824,-1.7932,-1.8365,-1.8904,-1.9423,-1.9896,-2.039,-2.0987,-2.1319,-2.1505,-2.1425,-2.1127,-2.0811,-2.0543,-1.9951,-1.9735,-2.031,-2.0644,-2.0776,-2.0661,-2.1206,-2.1214,-2.0248,-2.0096,-1.9965,-1.9665,-1.9382,-1.8755,-1.7675,-1.7227,-1.6814,-1.6309,-1.6373,-1.6312,-1.6104,-1.6097,-1.5965,-1.5737,-1.5057,-1.4929]}]]